<?xml version="1.0" encoding="UTF-8" standalone="no" ?>
<gpx xmlns="http://www.topografix.com/GPX/1/1" xmlns:xsi="http://www.w3.org/2001/XMLSchema-instance" xsi:schemaLocation="http://www.topografix.com/GPX/1/1 http://www.topografix.com/GPX/1/1/gpx.xsd" version="1.1" creator="VisuGPX - https://www.visugpx.com">
  <metadata>
    <name>Trail per Camin</name>
    <desc><![CDATA[5 septembre 2010
27km, 2000m D ]]></desc>
  </metadata>
  <trk>
    <name><![CDATA[Trail Per Cami]]></name>
    <cmt><![CDATA[4h01'02''

24e/134 (12e senior)]]></cmt>
    <trkseg>
      <trkpt lat="44.01489" lon="7.32086">
        <ele>819.17999267578</ele>
        <time>2010-09-05T07:00:10Z</time>
      </trkpt>
      <trkpt lat="44.01489" lon="7.32086">
        <ele>820.61999511719</ele>
        <time>2010-09-05T07:00:14Z</time>
      </trkpt>
      <trkpt lat="44.01487" lon="7.3208">
        <ele>820.14001464844</ele>
        <time>2010-09-05T07:00:18Z</time>
      </trkpt>
      <trkpt lat="44.0148" lon="7.32041">
        <ele>818.70001220703</ele>
        <time>2010-09-05T07:00:30Z</time>
      </trkpt>
      <trkpt lat="44.01495" lon="7.32019">
        <ele>822.54998779297</ele>
        <time>2010-09-05T07:00:40Z</time>
      </trkpt>
      <trkpt lat="44.01508" lon="7.32017">
        <ele>823.51000976562</ele>
        <time>2010-09-05T07:00:46Z</time>
      </trkpt>
      <trkpt lat="44.01514" lon="7.32007">
        <ele>823.98999023438</ele>
        <time>2010-09-05T07:00:50Z</time>
      </trkpt>
      <trkpt lat="44.01523" lon="7.31996">
        <ele>824.95001220703</ele>
        <time>2010-09-05T07:00:55Z</time>
      </trkpt>
      <trkpt lat="44.0154" lon="7.31972">
        <ele>822.54998779297</ele>
        <time>2010-09-05T07:01:05Z</time>
      </trkpt>
      <trkpt lat="44.01541" lon="7.31966">
        <ele>823.98999023438</ele>
        <time>2010-09-05T07:01:07Z</time>
      </trkpt>
      <trkpt lat="44.01543" lon="7.31963">
        <ele>823.03002929688</ele>
        <time>2010-09-05T07:01:09Z</time>
      </trkpt>
      <trkpt lat="44.01565" lon="7.31969">
        <ele>823.98999023438</ele>
        <time>2010-09-05T07:01:17Z</time>
      </trkpt>
      <trkpt lat="44.01575" lon="7.31966">
        <ele>821.58001708984</ele>
        <time>2010-09-05T07:01:21Z</time>
      </trkpt>
      <trkpt lat="44.01585" lon="7.31965">
        <ele>821.09997558594</ele>
        <time>2010-09-05T07:01:25Z</time>
      </trkpt>
      <trkpt lat="44.01623" lon="7.3195">
        <ele>820.14001464844</ele>
        <time>2010-09-05T07:01:37Z</time>
      </trkpt>
      <trkpt lat="44.01651" lon="7.3193">
        <ele>816.78002929688</ele>
        <time>2010-09-05T07:01:47Z</time>
      </trkpt>
      <trkpt lat="44.01686" lon="7.31928">
        <ele>816.29998779297</ele>
        <time>2010-09-05T07:01:59Z</time>
      </trkpt>
      <trkpt lat="44.01713" lon="7.31936">
        <ele>819.17999267578</ele>
        <time>2010-09-05T07:02:10Z</time>
      </trkpt>
      <trkpt lat="44.01727" lon="7.31955">
        <ele>822.54998779297</ele>
        <time>2010-09-05T07:02:17Z</time>
      </trkpt>
      <trkpt lat="44.01738" lon="7.31975">
        <ele>823.51000976562</ele>
        <time>2010-09-05T07:02:24Z</time>
      </trkpt>
      <trkpt lat="44.01742" lon="7.31982">
        <ele>823.51000976562</ele>
        <time>2010-09-05T07:02:27Z</time>
      </trkpt>
      <trkpt lat="44.01747" lon="7.31987">
        <ele>825.90997314453</ele>
        <time>2010-09-05T07:02:30Z</time>
      </trkpt>
      <trkpt lat="44.01757" lon="7.31994">
        <ele>828.78997802734</ele>
        <time>2010-09-05T07:02:38Z</time>
      </trkpt>
      <trkpt lat="44.01758" lon="7.31995">
        <ele>827.34997558594</ele>
        <time>2010-09-05T07:02:39Z</time>
      </trkpt>
      <trkpt lat="44.01782" lon="7.32">
        <ele>829.76000976562</ele>
        <time>2010-09-05T07:02:50Z</time>
      </trkpt>
      <trkpt lat="44.01786" lon="7.32">
        <ele>830.71997070312</ele>
        <time>2010-09-05T07:02:52Z</time>
      </trkpt>
      <trkpt lat="44.0181" lon="7.31989">
        <ele>834.08001708984</ele>
        <time>2010-09-05T07:03:02Z</time>
      </trkpt>
      <trkpt lat="44.01816" lon="7.31986">
        <ele>833.11999511719</ele>
        <time>2010-09-05T07:03:05Z</time>
      </trkpt>
      <trkpt lat="44.01823" lon="7.31993">
        <ele>835.03997802734</ele>
        <time>2010-09-05T07:03:10Z</time>
      </trkpt>
      <trkpt lat="44.01816" lon="7.32006">
        <ele>835.03997802734</ele>
        <time>2010-09-05T07:03:15Z</time>
      </trkpt>
      <trkpt lat="44.01799" lon="7.32026">
        <ele>837.45001220703</ele>
        <time>2010-09-05T07:03:26Z</time>
      </trkpt>
      <trkpt lat="44.01781" lon="7.32036">
        <ele>840.80999755859</ele>
        <time>2010-09-05T07:03:36Z</time>
      </trkpt>
      <trkpt lat="44.01772" lon="7.32039">
        <ele>840.33001708984</ele>
        <time>2010-09-05T07:03:41Z</time>
      </trkpt>
      <trkpt lat="44.01765" lon="7.32041">
        <ele>840.80999755859</ele>
        <time>2010-09-05T07:03:44Z</time>
      </trkpt>
      <trkpt lat="44.01757" lon="7.32044">
        <ele>840.80999755859</ele>
        <time>2010-09-05T07:03:48Z</time>
      </trkpt>
      <trkpt lat="44.01744" lon="7.32047">
        <ele>844.17999267578</ele>
        <time>2010-09-05T07:03:54Z</time>
      </trkpt>
      <trkpt lat="44.01714" lon="7.32039">
        <ele>845.61999511719</ele>
        <time>2010-09-05T07:04:05Z</time>
      </trkpt>
      <trkpt lat="44.01687" lon="7.32025">
        <ele>848.5</ele>
        <time>2010-09-05T07:04:18Z</time>
      </trkpt>
      <trkpt lat="44.01656" lon="7.32029">
        <ele>845.14001464844</ele>
        <time>2010-09-05T07:04:31Z</time>
      </trkpt>
      <trkpt lat="44.01641" lon="7.32032">
        <ele>848.5</ele>
        <time>2010-09-05T07:04:38Z</time>
      </trkpt>
      <trkpt lat="44.0163" lon="7.32037">
        <ele>848.5</ele>
        <time>2010-09-05T07:04:43Z</time>
      </trkpt>
      <trkpt lat="44.01629" lon="7.32064">
        <ele>852.34997558594</ele>
        <time>2010-09-05T07:04:53Z</time>
      </trkpt>
      <trkpt lat="44.01637" lon="7.32068">
        <ele>853.78997802734</ele>
        <time>2010-09-05T07:04:57Z</time>
      </trkpt>
      <trkpt lat="44.01646" lon="7.32064">
        <ele>853.30999755859</ele>
        <time>2010-09-05T07:05:02Z</time>
      </trkpt>
      <trkpt lat="44.01649" lon="7.32062">
        <ele>855.71002197266</ele>
        <time>2010-09-05T07:05:04Z</time>
      </trkpt>
      <trkpt lat="44.01667" lon="7.3206">
        <ele>859.08001708984</ele>
        <time>2010-09-05T07:05:15Z</time>
      </trkpt>
      <trkpt lat="44.01674" lon="7.32059">
        <ele>858.59002685547</ele>
        <time>2010-09-05T07:05:20Z</time>
      </trkpt>
      <trkpt lat="44.01677" lon="7.3206">
        <ele>859.55999755859</ele>
        <time>2010-09-05T07:05:22Z</time>
      </trkpt>
      <trkpt lat="44.01682" lon="7.32063">
        <ele>860.03997802734</ele>
        <time>2010-09-05T07:05:25Z</time>
      </trkpt>
      <trkpt lat="44.01685" lon="7.32067">
        <ele>861.47998046875</ele>
        <time>2010-09-05T07:05:28Z</time>
      </trkpt>
      <trkpt lat="44.01695" lon="7.32076">
        <ele>865.32000732422</ele>
        <time>2010-09-05T07:05:39Z</time>
      </trkpt>
      <trkpt lat="44.01713" lon="7.32087">
        <ele>869.16998291016</ele>
        <time>2010-09-05T07:05:53Z</time>
      </trkpt>
      <trkpt lat="44.01715" lon="7.32089">
        <ele>868.21002197266</ele>
        <time>2010-09-05T07:05:54Z</time>
      </trkpt>
      <trkpt lat="44.0172" lon="7.32101">
        <ele>871.09002685547</ele>
        <time>2010-09-05T07:06:01Z</time>
      </trkpt>
      <trkpt lat="44.01721" lon="7.32103">
        <ele>873.01000976562</ele>
        <time>2010-09-05T07:06:03Z</time>
      </trkpt>
      <trkpt lat="44.01722" lon="7.32105">
        <ele>873.5</ele>
        <time>2010-09-05T07:06:04Z</time>
      </trkpt>
      <trkpt lat="44.01728" lon="7.3211">
        <ele>875.90002441406</ele>
        <time>2010-09-05T07:06:10Z</time>
      </trkpt>
      <trkpt lat="44.01738" lon="7.32114">
        <ele>878.29998779297</ele>
        <time>2010-09-05T07:06:17Z</time>
      </trkpt>
      <trkpt lat="44.01742" lon="7.3212">
        <ele>879.26000976562</ele>
        <time>2010-09-05T07:06:21Z</time>
      </trkpt>
      <trkpt lat="44.01752" lon="7.32131">
        <ele>881.66998291016</ele>
        <time>2010-09-05T07:06:30Z</time>
      </trkpt>
      <trkpt lat="44.01756" lon="7.32135">
        <ele>882.63000488281</ele>
        <time>2010-09-05T07:06:34Z</time>
      </trkpt>
      <trkpt lat="44.0177" lon="7.32132">
        <ele>884.07000732422</ele>
        <time>2010-09-05T07:06:42Z</time>
      </trkpt>
      <trkpt lat="44.01793" lon="7.32125">
        <ele>886.46997070312</ele>
        <time>2010-09-05T07:06:52Z</time>
      </trkpt>
      <trkpt lat="44.01807" lon="7.32143">
        <ele>886.95001220703</ele>
        <time>2010-09-05T07:07:02Z</time>
      </trkpt>
      <trkpt lat="44.01815" lon="7.32149">
        <ele>891.28002929688</ele>
        <time>2010-09-05T07:07:06Z</time>
      </trkpt>
      <trkpt lat="44.01817" lon="7.3215">
        <ele>891.76000976562</ele>
        <time>2010-09-05T07:07:07Z</time>
      </trkpt>
      <trkpt lat="44.0183" lon="7.3216">
        <ele>893.20001220703</ele>
        <time>2010-09-05T07:07:14Z</time>
      </trkpt>
      <trkpt lat="44.01847" lon="7.32173">
        <ele>895.60998535156</ele>
        <time>2010-09-05T07:07:25Z</time>
      </trkpt>
      <trkpt lat="44.01868" lon="7.32189">
        <ele>898.01000976562</ele>
        <time>2010-09-05T07:07:38Z</time>
      </trkpt>
      <trkpt lat="44.01879" lon="7.32198">
        <ele>899.92999267578</ele>
        <time>2010-09-05T07:07:43Z</time>
      </trkpt>
      <trkpt lat="44.01882" lon="7.32201">
        <ele>898.48999023438</ele>
        <time>2010-09-05T07:07:45Z</time>
      </trkpt>
      <trkpt lat="44.01892" lon="7.32214">
        <ele>903.29998779297</ele>
        <time>2010-09-05T07:07:55Z</time>
      </trkpt>
      <trkpt lat="44.01894" lon="7.32218">
        <ele>904.26000976562</ele>
        <time>2010-09-05T07:07:57Z</time>
      </trkpt>
      <trkpt lat="44.01896" lon="7.32222">
        <ele>900.40997314453</ele>
        <time>2010-09-05T07:07:59Z</time>
      </trkpt>
      <trkpt lat="44.019" lon="7.32227">
        <ele>905.21997070312</ele>
        <time>2010-09-05T07:08:01Z</time>
      </trkpt>
      <trkpt lat="44.0192" lon="7.32258">
        <ele>904.26000976562</ele>
        <time>2010-09-05T07:08:14Z</time>
      </trkpt>
      <trkpt lat="44.01925" lon="7.32264">
        <ele>906.65997314453</ele>
        <time>2010-09-05T07:08:19Z</time>
      </trkpt>
      <trkpt lat="44.01933" lon="7.32268">
        <ele>909.53997802734</ele>
        <time>2010-09-05T07:08:24Z</time>
      </trkpt>
      <trkpt lat="44.01939" lon="7.32272">
        <ele>906.17999267578</ele>
        <time>2010-09-05T07:08:27Z</time>
      </trkpt>
      <trkpt lat="44.01946" lon="7.32276">
        <ele>909.53997802734</ele>
        <time>2010-09-05T07:08:30Z</time>
      </trkpt>
      <trkpt lat="44.01952" lon="7.32286">
        <ele>912.90997314453</ele>
        <time>2010-09-05T07:08:37Z</time>
      </trkpt>
      <trkpt lat="44.01954" lon="7.32288">
        <ele>912.90997314453</ele>
        <time>2010-09-05T07:08:38Z</time>
      </trkpt>
      <trkpt lat="44.01961" lon="7.32299">
        <ele>913.86999511719</ele>
        <time>2010-09-05T07:08:42Z</time>
      </trkpt>
      <trkpt lat="44.0198" lon="7.32328">
        <ele>915.78997802734</ele>
        <time>2010-09-05T07:08:53Z</time>
      </trkpt>
      <trkpt lat="44.0197" lon="7.32367">
        <ele>915.78997802734</ele>
        <time>2010-09-05T07:09:06Z</time>
      </trkpt>
      <trkpt lat="44.01969" lon="7.32378">
        <ele>915.78997802734</ele>
        <time>2010-09-05T07:09:09Z</time>
      </trkpt>
      <trkpt lat="44.01966" lon="7.32396">
        <ele>916.75</ele>
        <time>2010-09-05T07:09:14Z</time>
      </trkpt>
      <trkpt lat="44.01971" lon="7.32439">
        <ele>917.23999023438</ele>
        <time>2010-09-05T07:09:26Z</time>
      </trkpt>
      <trkpt lat="44.01974" lon="7.3245">
        <ele>917.71997070312</ele>
        <time>2010-09-05T07:09:30Z</time>
      </trkpt>
      <trkpt lat="44.01982" lon="7.32466">
        <ele>918.67999267578</ele>
        <time>2010-09-05T07:09:35Z</time>
      </trkpt>
      <trkpt lat="44.0199" lon="7.32481">
        <ele>918.20001220703</ele>
        <time>2010-09-05T07:09:41Z</time>
      </trkpt>
      <trkpt lat="44.01992" lon="7.32486">
        <ele>919.64001464844</ele>
        <time>2010-09-05T07:09:43Z</time>
      </trkpt>
      <trkpt lat="44.02001" lon="7.32498">
        <ele>922.52001953125</ele>
        <time>2010-09-05T07:09:52Z</time>
      </trkpt>
      <trkpt lat="44.02006" lon="7.32503">
        <ele>923.47998046875</ele>
        <time>2010-09-05T07:09:56Z</time>
      </trkpt>
      <trkpt lat="44.02011" lon="7.32507">
        <ele>925.40997314453</ele>
        <time>2010-09-05T07:10:00Z</time>
      </trkpt>
      <trkpt lat="44.02026" lon="7.32508">
        <ele>928.28997802734</ele>
        <time>2010-09-05T07:10:07Z</time>
      </trkpt>
      <trkpt lat="44.02033" lon="7.3251">
        <ele>928.77001953125</ele>
        <time>2010-09-05T07:10:10Z</time>
      </trkpt>
      <trkpt lat="44.02038" lon="7.32514">
        <ele>928.77001953125</ele>
        <time>2010-09-05T07:10:14Z</time>
      </trkpt>
      <trkpt lat="44.02059" lon="7.32525">
        <ele>934.05999755859</ele>
        <time>2010-09-05T07:10:25Z</time>
      </trkpt>
      <trkpt lat="44.02061" lon="7.32525">
        <ele>934.05999755859</ele>
        <time>2010-09-05T07:10:26Z</time>
      </trkpt>
      <trkpt lat="44.0208" lon="7.32526">
        <ele>937.90002441406</ele>
        <time>2010-09-05T07:10:35Z</time>
      </trkpt>
      <trkpt lat="44.02082" lon="7.32526">
        <ele>937.41998291016</ele>
        <time>2010-09-05T07:10:36Z</time>
      </trkpt>
      <trkpt lat="44.02095" lon="7.32529">
        <ele>938.85998535156</ele>
        <time>2010-09-05T07:10:44Z</time>
      </trkpt>
      <trkpt lat="44.02102" lon="7.32532">
        <ele>941.27001953125</ele>
        <time>2010-09-05T07:10:49Z</time>
      </trkpt>
      <trkpt lat="44.02121" lon="7.32531">
        <ele>944.15002441406</ele>
        <time>2010-09-05T07:10:58Z</time>
      </trkpt>
      <trkpt lat="44.02145" lon="7.32536">
        <ele>944.63000488281</ele>
        <time>2010-09-05T07:11:10Z</time>
      </trkpt>
      <trkpt lat="44.02157" lon="7.3255">
        <ele>949.44000244141</ele>
        <time>2010-09-05T07:11:18Z</time>
      </trkpt>
      <trkpt lat="44.0218" lon="7.3255">
        <ele>950.40002441406</ele>
        <time>2010-09-05T07:11:33Z</time>
      </trkpt>
      <trkpt lat="44.0219" lon="7.32552">
        <ele>952.32000732422</ele>
        <time>2010-09-05T07:11:40Z</time>
      </trkpt>
      <trkpt lat="44.02193" lon="7.32553">
        <ele>954.72998046875</ele>
        <time>2010-09-05T07:11:42Z</time>
      </trkpt>
      <trkpt lat="44.02194" lon="7.32553">
        <ele>953.77001953125</ele>
        <time>2010-09-05T07:11:43Z</time>
      </trkpt>
      <trkpt lat="44.02208" lon="7.32559">
        <ele>955.69000244141</ele>
        <time>2010-09-05T07:11:52Z</time>
      </trkpt>
      <trkpt lat="44.0222" lon="7.3256">
        <ele>959.04998779297</ele>
        <time>2010-09-05T07:12:00Z</time>
      </trkpt>
      <trkpt lat="44.02234" lon="7.32562">
        <ele>960.97998046875</ele>
        <time>2010-09-05T07:12:10Z</time>
      </trkpt>
      <trkpt lat="44.02237" lon="7.3256">
        <ele>960.01000976562</ele>
        <time>2010-09-05T07:12:12Z</time>
      </trkpt>
      <trkpt lat="44.0224" lon="7.32555">
        <ele>962.90002441406</ele>
        <time>2010-09-05T07:12:16Z</time>
      </trkpt>
      <trkpt lat="44.02241" lon="7.32553">
        <ele>963.85998535156</ele>
        <time>2010-09-05T07:12:17Z</time>
      </trkpt>
      <trkpt lat="44.02246" lon="7.32548">
        <ele>964.82000732422</ele>
        <time>2010-09-05T07:12:21Z</time>
      </trkpt>
      <trkpt lat="44.02253" lon="7.32548">
        <ele>965.78002929688</ele>
        <time>2010-09-05T07:12:25Z</time>
      </trkpt>
      <trkpt lat="44.02256" lon="7.32548">
        <ele>967.21997070312</ele>
        <time>2010-09-05T07:12:27Z</time>
      </trkpt>
      <trkpt lat="44.02278" lon="7.32552">
        <ele>969.63000488281</ele>
        <time>2010-09-05T07:12:41Z</time>
      </trkpt>
      <trkpt lat="44.02287" lon="7.32555">
        <ele>972.98999023438</ele>
        <time>2010-09-05T07:12:46Z</time>
      </trkpt>
      <trkpt lat="44.02292" lon="7.32555">
        <ele>969.63000488281</ele>
        <time>2010-09-05T07:12:48Z</time>
      </trkpt>
      <trkpt lat="44.02294" lon="7.32556">
        <ele>970.59002685547</ele>
        <time>2010-09-05T07:12:49Z</time>
      </trkpt>
      <trkpt lat="44.02312" lon="7.32557">
        <ele>976.84002685547</ele>
        <time>2010-09-05T07:12:58Z</time>
      </trkpt>
      <trkpt lat="44.02331" lon="7.32555">
        <ele>978.76000976562</ele>
        <time>2010-09-05T07:13:09Z</time>
      </trkpt>
      <trkpt lat="44.02336" lon="7.32554">
        <ele>980.67999267578</ele>
        <time>2010-09-05T07:13:14Z</time>
      </trkpt>
      <trkpt lat="44.02341" lon="7.32552">
        <ele>982.11999511719</ele>
        <time>2010-09-05T07:13:20Z</time>
      </trkpt>
      <trkpt lat="44.02345" lon="7.32552">
        <ele>983.09002685547</ele>
        <time>2010-09-05T07:13:23Z</time>
      </trkpt>
      <trkpt lat="44.02368" lon="7.32529">
        <ele>980.67999267578</ele>
        <time>2010-09-05T07:13:34Z</time>
      </trkpt>
      <trkpt lat="44.02377" lon="7.32525">
        <ele>984.04998779297</ele>
        <time>2010-09-05T07:13:37Z</time>
      </trkpt>
      <trkpt lat="44.02385" lon="7.32523">
        <ele>981.64001464844</ele>
        <time>2010-09-05T07:13:40Z</time>
      </trkpt>
      <trkpt lat="44.02413" lon="7.32514">
        <ele>981.64001464844</ele>
        <time>2010-09-05T07:13:51Z</time>
      </trkpt>
      <trkpt lat="44.02423" lon="7.32514">
        <ele>982.59997558594</ele>
        <time>2010-09-05T07:13:55Z</time>
      </trkpt>
      <trkpt lat="44.02428" lon="7.32514">
        <ele>982.11999511719</ele>
        <time>2010-09-05T07:13:57Z</time>
      </trkpt>
      <trkpt lat="44.02441" lon="7.32508">
        <ele>980.20001220703</ele>
        <time>2010-09-05T07:14:02Z</time>
      </trkpt>
      <trkpt lat="44.02454" lon="7.32489">
        <ele>981.15997314453</ele>
        <time>2010-09-05T07:14:10Z</time>
      </trkpt>
      <trkpt lat="44.02462" lon="7.32456">
        <ele>983.09002685547</ele>
        <time>2010-09-05T07:14:20Z</time>
      </trkpt>
      <trkpt lat="44.02467" lon="7.32424">
        <ele>981.64001464844</ele>
        <time>2010-09-05T07:14:30Z</time>
      </trkpt>
      <trkpt lat="44.0247" lon="7.3241">
        <ele>978.76000976562</ele>
        <time>2010-09-05T07:14:34Z</time>
      </trkpt>
      <trkpt lat="44.02472" lon="7.32404">
        <ele>981.15997314453</ele>
        <time>2010-09-05T07:14:36Z</time>
      </trkpt>
      <trkpt lat="44.02471" lon="7.32368">
        <ele>980.67999267578</ele>
        <time>2010-09-05T07:14:46Z</time>
      </trkpt>
      <trkpt lat="44.02471" lon="7.32364">
        <ele>981.15997314453</ele>
        <time>2010-09-05T07:14:47Z</time>
      </trkpt>
      <trkpt lat="44.02469" lon="7.32348">
        <ele>979.23999023438</ele>
        <time>2010-09-05T07:14:51Z</time>
      </trkpt>
      <trkpt lat="44.02471" lon="7.32329">
        <ele>977.79998779297</ele>
        <time>2010-09-05T07:14:56Z</time>
      </trkpt>
      <trkpt lat="44.02472" lon="7.32324">
        <ele>981.64001464844</ele>
        <time>2010-09-05T07:14:57Z</time>
      </trkpt>
      <trkpt lat="44.02475" lon="7.32316">
        <ele>982.59997558594</ele>
        <time>2010-09-05T07:14:59Z</time>
      </trkpt>
      <trkpt lat="44.02483" lon="7.32301">
        <ele>980.67999267578</ele>
        <time>2010-09-05T07:15:04Z</time>
      </trkpt>
      <trkpt lat="44.02486" lon="7.32295">
        <ele>979.71997070312</ele>
        <time>2010-09-05T07:15:06Z</time>
      </trkpt>
      <trkpt lat="44.02498" lon="7.32267">
        <ele>981.15997314453</ele>
        <time>2010-09-05T07:15:14Z</time>
      </trkpt>
      <trkpt lat="44.02503" lon="7.32264">
        <ele>979.71997070312</ele>
        <time>2010-09-05T07:15:16Z</time>
      </trkpt>
      <trkpt lat="44.02515" lon="7.32261">
        <ele>981.64001464844</ele>
        <time>2010-09-05T07:15:20Z</time>
      </trkpt>
      <trkpt lat="44.02523" lon="7.32259">
        <ele>981.64001464844</ele>
        <time>2010-09-05T07:15:24Z</time>
      </trkpt>
      <trkpt lat="44.02525" lon="7.32259">
        <ele>979.71997070312</ele>
        <time>2010-09-05T07:15:25Z</time>
      </trkpt>
      <trkpt lat="44.0253" lon="7.32256">
        <ele>979.23999023438</ele>
        <time>2010-09-05T07:15:28Z</time>
      </trkpt>
      <trkpt lat="44.02531" lon="7.32254">
        <ele>979.23999023438</ele>
        <time>2010-09-05T07:15:29Z</time>
      </trkpt>
      <trkpt lat="44.02532" lon="7.32252">
        <ele>979.23999023438</ele>
        <time>2010-09-05T07:15:30Z</time>
      </trkpt>
      <trkpt lat="44.02539" lon="7.32243">
        <ele>980.20001220703</ele>
        <time>2010-09-05T07:15:35Z</time>
      </trkpt>
      <trkpt lat="44.02547" lon="7.32237">
        <ele>982.11999511719</ele>
        <time>2010-09-05T07:15:46Z</time>
      </trkpt>
      <trkpt lat="44.02549" lon="7.32235">
        <ele>982.59997558594</ele>
        <time>2010-09-05T07:15:49Z</time>
      </trkpt>
      <trkpt lat="44.02557" lon="7.32223">
        <ele>985.01000976562</ele>
        <time>2010-09-05T07:15:59Z</time>
      </trkpt>
      <trkpt lat="44.0256" lon="7.32215">
        <ele>986.92999267578</ele>
        <time>2010-09-05T07:16:04Z</time>
      </trkpt>
      <trkpt lat="44.0256" lon="7.32212">
        <ele>988.36999511719</ele>
        <time>2010-09-05T07:16:06Z</time>
      </trkpt>
      <trkpt lat="44.02561" lon="7.32209">
        <ele>989.80999755859</ele>
        <time>2010-09-05T07:16:08Z</time>
      </trkpt>
      <trkpt lat="44.02565" lon="7.3221">
        <ele>993.65997314453</ele>
        <time>2010-09-05T07:16:15Z</time>
      </trkpt>
      <trkpt lat="44.02566" lon="7.3221">
        <ele>990.29998779297</ele>
        <time>2010-09-05T07:16:16Z</time>
      </trkpt>
      <trkpt lat="44.02567" lon="7.32209">
        <ele>993.65997314453</ele>
        <time>2010-09-05T07:16:17Z</time>
      </trkpt>
      <trkpt lat="44.02568" lon="7.32209">
        <ele>989.33001708984</ele>
        <time>2010-09-05T07:16:18Z</time>
      </trkpt>
      <trkpt lat="44.0257" lon="7.32208">
        <ele>992.21997070312</ele>
        <time>2010-09-05T07:16:21Z</time>
      </trkpt>
      <trkpt lat="44.02571" lon="7.32208">
        <ele>992.70001220703</ele>
        <time>2010-09-05T07:16:22Z</time>
      </trkpt>
      <trkpt lat="44.02576" lon="7.32208">
        <ele>997.51000976562</ele>
        <time>2010-09-05T07:16:31Z</time>
      </trkpt>
      <trkpt lat="44.02579" lon="7.32203">
        <ele>997.51000976562</ele>
        <time>2010-09-05T07:16:35Z</time>
      </trkpt>
      <trkpt lat="44.02583" lon="7.32191">
        <ele>996.05999755859</ele>
        <time>2010-09-05T07:16:41Z</time>
      </trkpt>
      <trkpt lat="44.02585" lon="7.32188">
        <ele>998.46997070312</ele>
        <time>2010-09-05T07:16:43Z</time>
      </trkpt>
      <trkpt lat="44.02589" lon="7.32184">
        <ele>1000.3900146484</ele>
        <time>2010-09-05T07:16:47Z</time>
      </trkpt>
      <trkpt lat="44.02594" lon="7.32183">
        <ele>999.42999267578</ele>
        <time>2010-09-05T07:16:52Z</time>
      </trkpt>
      <trkpt lat="44.02596" lon="7.32183">
        <ele>1002.3099975586</ele>
        <time>2010-09-05T07:16:54Z</time>
      </trkpt>
      <trkpt lat="44.026" lon="7.32176">
        <ele>1003.75</ele>
        <time>2010-09-05T07:16:59Z</time>
      </trkpt>
      <trkpt lat="44.02602" lon="7.32174">
        <ele>1000.3900146484</ele>
        <time>2010-09-05T07:17:01Z</time>
      </trkpt>
      <trkpt lat="44.02608" lon="7.32164">
        <ele>1001.3499755859</ele>
        <time>2010-09-05T07:17:07Z</time>
      </trkpt>
      <trkpt lat="44.02617" lon="7.32157">
        <ele>1004.2299804688</ele>
        <time>2010-09-05T07:17:13Z</time>
      </trkpt>
      <trkpt lat="44.02617" lon="7.32156">
        <ele>1003.2700195312</ele>
        <time>2010-09-05T07:17:14Z</time>
      </trkpt>
      <trkpt lat="44.02623" lon="7.32148">
        <ele>1007.1199951172</ele>
        <time>2010-09-05T07:17:23Z</time>
      </trkpt>
      <trkpt lat="44.02624" lon="7.32147">
        <ele>1006.1599731445</ele>
        <time>2010-09-05T07:17:24Z</time>
      </trkpt>
      <trkpt lat="44.02629" lon="7.3214">
        <ele>1009.5200195312</ele>
        <time>2010-09-05T07:17:29Z</time>
      </trkpt>
      <trkpt lat="44.02633" lon="7.32136">
        <ele>1005.200012207</ele>
        <time>2010-09-05T07:17:32Z</time>
      </trkpt>
      <trkpt lat="44.02634" lon="7.32135">
        <ele>1007.5999755859</ele>
        <time>2010-09-05T07:17:33Z</time>
      </trkpt>
      <trkpt lat="44.02637" lon="7.32133">
        <ele>1009.5200195312</ele>
        <time>2010-09-05T07:17:36Z</time>
      </trkpt>
      <trkpt lat="44.02641" lon="7.32131">
        <ele>1010</ele>
        <time>2010-09-05T07:17:40Z</time>
      </trkpt>
      <trkpt lat="44.02644" lon="7.32128">
        <ele>1013.3699951172</ele>
        <time>2010-09-05T07:17:43Z</time>
      </trkpt>
      <trkpt lat="44.02648" lon="7.32123">
        <ele>1010.4799804688</ele>
        <time>2010-09-05T07:17:47Z</time>
      </trkpt>
      <trkpt lat="44.02658" lon="7.32102">
        <ele>1016.25</ele>
        <time>2010-09-05T07:17:58Z</time>
      </trkpt>
      <trkpt lat="44.02663" lon="7.32096">
        <ele>1016.25</ele>
        <time>2010-09-05T07:18:03Z</time>
      </trkpt>
      <trkpt lat="44.02667" lon="7.32091">
        <ele>1016.7299804688</ele>
        <time>2010-09-05T07:18:07Z</time>
      </trkpt>
      <trkpt lat="44.02673" lon="7.32081">
        <ele>1017.2100219727</ele>
        <time>2010-09-05T07:18:11Z</time>
      </trkpt>
      <trkpt lat="44.02681" lon="7.32072">
        <ele>1020.5800170898</ele>
        <time>2010-09-05T07:18:18Z</time>
      </trkpt>
      <trkpt lat="44.02682" lon="7.32071">
        <ele>1016.7299804688</ele>
        <time>2010-09-05T07:18:19Z</time>
      </trkpt>
      <trkpt lat="44.02686" lon="7.32066">
        <ele>1020.5800170898</ele>
        <time>2010-09-05T07:18:22Z</time>
      </trkpt>
      <trkpt lat="44.02691" lon="7.32062">
        <ele>1022.0200195312</ele>
        <time>2010-09-05T07:18:26Z</time>
      </trkpt>
      <trkpt lat="44.02691" lon="7.32061">
        <ele>1021.0599975586</ele>
        <time>2010-09-05T07:18:27Z</time>
      </trkpt>
      <trkpt lat="44.02694" lon="7.32047">
        <ele>1020.5800170898</ele>
        <time>2010-09-05T07:18:33Z</time>
      </trkpt>
      <trkpt lat="44.02712" lon="7.32024">
        <ele>1021.0599975586</ele>
        <time>2010-09-05T07:18:44Z</time>
      </trkpt>
      <trkpt lat="44.02714" lon="7.32022">
        <ele>1017.6900024414</ele>
        <time>2010-09-05T07:18:45Z</time>
      </trkpt>
      <trkpt lat="44.02721" lon="7.32018">
        <ele>1019.6199951172</ele>
        <time>2010-09-05T07:18:50Z</time>
      </trkpt>
      <trkpt lat="44.02725" lon="7.32018">
        <ele>1020.5800170898</ele>
        <time>2010-09-05T07:18:55Z</time>
      </trkpt>
      <trkpt lat="44.02728" lon="7.32015">
        <ele>1023.9400024414</ele>
        <time>2010-09-05T07:18:59Z</time>
      </trkpt>
      <trkpt lat="44.02736" lon="7.32011">
        <ele>1023.4600219727</ele>
        <time>2010-09-05T07:19:05Z</time>
      </trkpt>
      <trkpt lat="44.02738" lon="7.32005">
        <ele>1024.4200439453</ele>
        <time>2010-09-05T07:19:08Z</time>
      </trkpt>
      <trkpt lat="44.02737" lon="7.31995">
        <ele>1024.9000244141</ele>
        <time>2010-09-05T07:19:13Z</time>
      </trkpt>
      <trkpt lat="44.02738" lon="7.31992">
        <ele>1028.2700195312</ele>
        <time>2010-09-05T07:19:15Z</time>
      </trkpt>
      <trkpt lat="44.02739" lon="7.3199">
        <ele>1027.3100585938</ele>
        <time>2010-09-05T07:19:16Z</time>
      </trkpt>
      <trkpt lat="44.02747" lon="7.31968">
        <ele>1030.6700439453</ele>
        <time>2010-09-05T07:19:29Z</time>
      </trkpt>
      <trkpt lat="44.02753" lon="7.31959">
        <ele>1032.1099853516</ele>
        <time>2010-09-05T07:19:36Z</time>
      </trkpt>
      <trkpt lat="44.02757" lon="7.31953">
        <ele>1035</ele>
        <time>2010-09-05T07:19:42Z</time>
      </trkpt>
      <trkpt lat="44.02757" lon="7.31953">
        <ele>1034.5200195312</ele>
        <time>2010-09-05T07:19:43Z</time>
      </trkpt>
      <trkpt lat="44.02758" lon="7.31949">
        <ele>1033.5500488281</ele>
        <time>2010-09-05T07:19:48Z</time>
      </trkpt>
      <trkpt lat="44.02762" lon="7.31941">
        <ele>1036.4399414062</ele>
        <time>2010-09-05T07:19:54Z</time>
      </trkpt>
      <trkpt lat="44.02763" lon="7.3194">
        <ele>1037.4000244141</ele>
        <time>2010-09-05T07:19:55Z</time>
      </trkpt>
      <trkpt lat="44.02776" lon="7.31916">
        <ele>1041.25</ele>
        <time>2010-09-05T07:20:10Z</time>
      </trkpt>
      <trkpt lat="44.02777" lon="7.31915">
        <ele>1038.8399658203</ele>
        <time>2010-09-05T07:20:11Z</time>
      </trkpt>
      <trkpt lat="44.02784" lon="7.31905">
        <ele>1042.6899414062</ele>
        <time>2010-09-05T07:20:18Z</time>
      </trkpt>
      <trkpt lat="44.02789" lon="7.31898">
        <ele>1041.7299804688</ele>
        <time>2010-09-05T07:20:23Z</time>
      </trkpt>
      <trkpt lat="44.0279" lon="7.31896">
        <ele>1044.6099853516</ele>
        <time>2010-09-05T07:20:24Z</time>
      </trkpt>
      <trkpt lat="44.02796" lon="7.31888">
        <ele>1044.6099853516</ele>
        <time>2010-09-05T07:20:29Z</time>
      </trkpt>
      <trkpt lat="44.02801" lon="7.31885">
        <ele>1044.6099853516</ele>
        <time>2010-09-05T07:20:34Z</time>
      </trkpt>
      <trkpt lat="44.02805" lon="7.31881">
        <ele>1046.5300292969</ele>
        <time>2010-09-05T07:20:39Z</time>
      </trkpt>
      <trkpt lat="44.02815" lon="7.3187">
        <ele>1050.3800048828</ele>
        <time>2010-09-05T07:20:50Z</time>
      </trkpt>
      <trkpt lat="44.02816" lon="7.31869">
        <ele>1050.8599853516</ele>
        <time>2010-09-05T07:20:51Z</time>
      </trkpt>
      <trkpt lat="44.02829" lon="7.31855">
        <ele>1053.2600097656</ele>
        <time>2010-09-05T07:21:04Z</time>
      </trkpt>
      <trkpt lat="44.02838" lon="7.31847">
        <ele>1057.1099853516</ele>
        <time>2010-09-05T07:21:11Z</time>
      </trkpt>
      <trkpt lat="44.02841" lon="7.31843">
        <ele>1053.2600097656</ele>
        <time>2010-09-05T07:21:14Z</time>
      </trkpt>
      <trkpt lat="44.02842" lon="7.31842">
        <ele>1056.1500244141</ele>
        <time>2010-09-05T07:21:15Z</time>
      </trkpt>
      <trkpt lat="44.0285" lon="7.31838">
        <ele>1058.0699462891</ele>
        <time>2010-09-05T07:21:21Z</time>
      </trkpt>
      <trkpt lat="44.02854" lon="7.31836">
        <ele>1056.6300048828</ele>
        <time>2010-09-05T07:21:24Z</time>
      </trkpt>
      <trkpt lat="44.02856" lon="7.31835">
        <ele>1058.5500488281</ele>
        <time>2010-09-05T07:21:26Z</time>
      </trkpt>
      <trkpt lat="44.02863" lon="7.31834">
        <ele>1059.5100097656</ele>
        <time>2010-09-05T07:21:31Z</time>
      </trkpt>
      <trkpt lat="44.02866" lon="7.31838">
        <ele>1063.8399658203</ele>
        <time>2010-09-05T07:21:39Z</time>
      </trkpt>
      <trkpt lat="44.02866" lon="7.31838">
        <ele>1063.3599853516</ele>
        <time>2010-09-05T07:21:40Z</time>
      </trkpt>
      <trkpt lat="44.02868" lon="7.31843">
        <ele>1063.3599853516</ele>
        <time>2010-09-05T07:21:47Z</time>
      </trkpt>
      <trkpt lat="44.02867" lon="7.31846">
        <ele>1065.7600097656</ele>
        <time>2010-09-05T07:21:49Z</time>
      </trkpt>
      <trkpt lat="44.02866" lon="7.31851">
        <ele>1070.5699462891</ele>
        <time>2010-09-05T07:21:54Z</time>
      </trkpt>
      <trkpt lat="44.02865" lon="7.31852">
        <ele>1065.7600097656</ele>
        <time>2010-09-05T07:21:55Z</time>
      </trkpt>
      <trkpt lat="44.02864" lon="7.31852">
        <ele>1070.0799560547</ele>
        <time>2010-09-05T07:21:56Z</time>
      </trkpt>
      <trkpt lat="44.02864" lon="7.31855">
        <ele>1071.0500488281</ele>
        <time>2010-09-05T07:22:01Z</time>
      </trkpt>
      <trkpt lat="44.02863" lon="7.31862">
        <ele>1075.8499755859</ele>
        <time>2010-09-05T07:22:13Z</time>
      </trkpt>
      <trkpt lat="44.02863" lon="7.31863">
        <ele>1073.9300537109</ele>
        <time>2010-09-05T07:22:14Z</time>
      </trkpt>
      <trkpt lat="44.02864" lon="7.31868">
        <ele>1077.2900390625</ele>
        <time>2010-09-05T07:22:20Z</time>
      </trkpt>
      <trkpt lat="44.02868" lon="7.31869">
        <ele>1074.4100341797</ele>
        <time>2010-09-05T07:22:26Z</time>
      </trkpt>
      <trkpt lat="44.02868" lon="7.3187">
        <ele>1078.2600097656</ele>
        <time>2010-09-05T07:22:27Z</time>
      </trkpt>
      <trkpt lat="44.02868" lon="7.31871">
        <ele>1078.2600097656</ele>
        <time>2010-09-05T07:22:28Z</time>
      </trkpt>
      <trkpt lat="44.02867" lon="7.31876">
        <ele>1082.0999755859</ele>
        <time>2010-09-05T07:22:34Z</time>
      </trkpt>
      <trkpt lat="44.02866" lon="7.31877">
        <ele>1078.2600097656</ele>
        <time>2010-09-05T07:22:35Z</time>
      </trkpt>
      <trkpt lat="44.02866" lon="7.31878">
        <ele>1082.0999755859</ele>
        <time>2010-09-05T07:22:36Z</time>
      </trkpt>
      <trkpt lat="44.02866" lon="7.31879">
        <ele>1076.8100585938</ele>
        <time>2010-09-05T07:22:37Z</time>
      </trkpt>
      <trkpt lat="44.02866" lon="7.31881">
        <ele>1079.6999511719</ele>
        <time>2010-09-05T07:22:38Z</time>
      </trkpt>
      <trkpt lat="44.02865" lon="7.31884">
        <ele>1084.0200195312</ele>
        <time>2010-09-05T07:22:41Z</time>
      </trkpt>
      <trkpt lat="44.02864" lon="7.31885">
        <ele>1080.6600341797</ele>
        <time>2010-09-05T07:22:42Z</time>
      </trkpt>
      <trkpt lat="44.02863" lon="7.31889">
        <ele>1084.5</ele>
        <time>2010-09-05T07:22:47Z</time>
      </trkpt>
      <trkpt lat="44.02865" lon="7.31893">
        <ele>1084.5</ele>
        <time>2010-09-05T07:22:53Z</time>
      </trkpt>
      <trkpt lat="44.02865" lon="7.31898">
        <ele>1085.4699707031</ele>
        <time>2010-09-05T07:23:03Z</time>
      </trkpt>
      <trkpt lat="44.02867" lon="7.31898">
        <ele>1089.3100585938</ele>
        <time>2010-09-05T07:23:07Z</time>
      </trkpt>
      <trkpt lat="44.02871" lon="7.31902">
        <ele>1092.1999511719</ele>
        <time>2010-09-05T07:23:17Z</time>
      </trkpt>
      <trkpt lat="44.02871" lon="7.31906">
        <ele>1093.1600341797</ele>
        <time>2010-09-05T07:23:22Z</time>
      </trkpt>
      <trkpt lat="44.02871" lon="7.31908">
        <ele>1095.0799560547</ele>
        <time>2010-09-05T07:23:27Z</time>
      </trkpt>
      <trkpt lat="44.02874" lon="7.31915">
        <ele>1096.0400390625</ele>
        <time>2010-09-05T07:23:36Z</time>
      </trkpt>
      <trkpt lat="44.02875" lon="7.31922">
        <ele>1099.8900146484</ele>
        <time>2010-09-05T07:23:45Z</time>
      </trkpt>
      <trkpt lat="44.02877" lon="7.31923">
        <ele>1102.7700195312</ele>
        <time>2010-09-05T07:23:51Z</time>
      </trkpt>
      <trkpt lat="44.02879" lon="7.31924">
        <ele>1102.2900390625</ele>
        <time>2010-09-05T07:23:55Z</time>
      </trkpt>
      <trkpt lat="44.02881" lon="7.31928">
        <ele>1105.6500244141</ele>
        <time>2010-09-05T07:24:03Z</time>
      </trkpt>
      <trkpt lat="44.02882" lon="7.3193">
        <ele>1107.0999755859</ele>
        <time>2010-09-05T07:24:07Z</time>
      </trkpt>
      <trkpt lat="44.02882" lon="7.31935">
        <ele>1108.0600585938</ele>
        <time>2010-09-05T07:24:13Z</time>
      </trkpt>
      <trkpt lat="44.0288" lon="7.31939">
        <ele>1109.0200195312</ele>
        <time>2010-09-05T07:24:18Z</time>
      </trkpt>
      <trkpt lat="44.02881" lon="7.31945">
        <ele>1112.3800048828</ele>
        <time>2010-09-05T07:24:25Z</time>
      </trkpt>
      <trkpt lat="44.02881" lon="7.31947">
        <ele>1113.3399658203</ele>
        <time>2010-09-05T07:24:27Z</time>
      </trkpt>
      <trkpt lat="44.02881" lon="7.3195">
        <ele>1114.7900390625</ele>
        <time>2010-09-05T07:24:29Z</time>
      </trkpt>
      <trkpt lat="44.02879" lon="7.31956">
        <ele>1115.2700195312</ele>
        <time>2010-09-05T07:24:37Z</time>
      </trkpt>
      <trkpt lat="44.0288" lon="7.31961">
        <ele>1120.0699462891</ele>
        <time>2010-09-05T07:24:48Z</time>
      </trkpt>
      <trkpt lat="44.0288" lon="7.31961">
        <ele>1116.7099609375</ele>
        <time>2010-09-05T07:24:49Z</time>
      </trkpt>
      <trkpt lat="44.02882" lon="7.31962">
        <ele>1119.5899658203</ele>
        <time>2010-09-05T07:24:56Z</time>
      </trkpt>
      <trkpt lat="44.02879" lon="7.31965">
        <ele>1120.0699462891</ele>
        <time>2010-09-05T07:25:01Z</time>
      </trkpt>
      <trkpt lat="44.02877" lon="7.31969">
        <ele>1121.5200195312</ele>
        <time>2010-09-05T07:25:07Z</time>
      </trkpt>
      <trkpt lat="44.029" lon="7.31979">
        <ele>1125.3599853516</ele>
        <time>2010-09-05T07:25:17Z</time>
      </trkpt>
      <trkpt lat="44.02908" lon="7.31982">
        <ele>1128.7299804688</ele>
        <time>2010-09-05T07:25:20Z</time>
      </trkpt>
      <trkpt lat="44.02909" lon="7.31983">
        <ele>1125.3599853516</ele>
        <time>2010-09-05T07:25:21Z</time>
      </trkpt>
      <trkpt lat="44.02923" lon="7.32006">
        <ele>1129.2099609375</ele>
        <time>2010-09-05T07:25:32Z</time>
      </trkpt>
      <trkpt lat="44.02945" lon="7.32015">
        <ele>1130.6500244141</ele>
        <time>2010-09-05T07:25:43Z</time>
      </trkpt>
      <trkpt lat="44.02952" lon="7.32017">
        <ele>1135.9399414062</ele>
        <time>2010-09-05T07:25:47Z</time>
      </trkpt>
      <trkpt lat="44.02954" lon="7.32018">
        <ele>1132.0899658203</ele>
        <time>2010-09-05T07:25:48Z</time>
      </trkpt>
      <trkpt lat="44.02958" lon="7.3202">
        <ele>1134.9699707031</ele>
        <time>2010-09-05T07:25:50Z</time>
      </trkpt>
      <trkpt lat="44.02959" lon="7.32022">
        <ele>1134.4899902344</ele>
        <time>2010-09-05T07:25:51Z</time>
      </trkpt>
      <trkpt lat="44.02963" lon="7.32025">
        <ele>1133.5300292969</ele>
        <time>2010-09-05T07:25:53Z</time>
      </trkpt>
      <trkpt lat="44.0298" lon="7.32043">
        <ele>1137.3800048828</ele>
        <time>2010-09-05T07:26:02Z</time>
      </trkpt>
      <trkpt lat="44.02982" lon="7.32046">
        <ele>1136.9000244141</ele>
        <time>2010-09-05T07:26:03Z</time>
      </trkpt>
      <trkpt lat="44.03008" lon="7.32088">
        <ele>1140.2600097656</ele>
        <time>2010-09-05T07:26:19Z</time>
      </trkpt>
      <trkpt lat="44.03034" lon="7.32085">
        <ele>1143.1400146484</ele>
        <time>2010-09-05T07:26:32Z</time>
      </trkpt>
      <trkpt lat="44.03068" lon="7.32078">
        <ele>1144.5899658203</ele>
        <time>2010-09-05T07:26:45Z</time>
      </trkpt>
      <trkpt lat="44.03086" lon="7.32062">
        <ele>1145.5500488281</ele>
        <time>2010-09-05T07:26:53Z</time>
      </trkpt>
      <trkpt lat="44.03111" lon="7.32062">
        <ele>1146.9899902344</ele>
        <time>2010-09-05T07:27:04Z</time>
      </trkpt>
      <trkpt lat="44.03116" lon="7.32066">
        <ele>1147.9499511719</ele>
        <time>2010-09-05T07:27:07Z</time>
      </trkpt>
      <trkpt lat="44.03122" lon="7.32075">
        <ele>1152.2800292969</ele>
        <time>2010-09-05T07:27:12Z</time>
      </trkpt>
      <trkpt lat="44.03139" lon="7.32099">
        <ele>1155.6400146484</ele>
        <time>2010-09-05T07:27:22Z</time>
      </trkpt>
      <trkpt lat="44.03141" lon="7.32101">
        <ele>1155.1600341797</ele>
        <time>2010-09-05T07:27:23Z</time>
      </trkpt>
      <trkpt lat="44.03152" lon="7.3211">
        <ele>1159.0100097656</ele>
        <time>2010-09-05T07:27:30Z</time>
      </trkpt>
      <trkpt lat="44.03153" lon="7.32112">
        <ele>1155.1600341797</ele>
        <time>2010-09-05T07:27:31Z</time>
      </trkpt>
      <trkpt lat="44.03157" lon="7.32119">
        <ele>1159.4899902344</ele>
        <time>2010-09-05T07:27:34Z</time>
      </trkpt>
      <trkpt lat="44.03158" lon="7.32121">
        <ele>1157.5600585938</ele>
        <time>2010-09-05T07:27:35Z</time>
      </trkpt>
      <trkpt lat="44.03166" lon="7.32134">
        <ele>1157.5600585938</ele>
        <time>2010-09-05T07:27:41Z</time>
      </trkpt>
      <trkpt lat="44.03171" lon="7.32137">
        <ele>1159.4899902344</ele>
        <time>2010-09-05T07:27:43Z</time>
      </trkpt>
      <trkpt lat="44.0321" lon="7.32135">
        <ele>1163.8100585938</ele>
        <time>2010-09-05T07:27:57Z</time>
      </trkpt>
      <trkpt lat="44.03212" lon="7.32134">
        <ele>1162.8499755859</ele>
        <time>2010-09-05T07:27:58Z</time>
      </trkpt>
      <trkpt lat="44.03241" lon="7.32135">
        <ele>1164.7700195312</ele>
        <time>2010-09-05T07:28:11Z</time>
      </trkpt>
      <trkpt lat="44.03257" lon="7.32125">
        <ele>1169.0999755859</ele>
        <time>2010-09-05T07:28:19Z</time>
      </trkpt>
      <trkpt lat="44.03259" lon="7.32125">
        <ele>1168.6199951172</ele>
        <time>2010-09-05T07:28:20Z</time>
      </trkpt>
      <trkpt lat="44.03263" lon="7.32124">
        <ele>1166.6999511719</ele>
        <time>2010-09-05T07:28:22Z</time>
      </trkpt>
      <trkpt lat="44.03272" lon="7.32122">
        <ele>1171.0200195312</ele>
        <time>2010-09-05T07:28:26Z</time>
      </trkpt>
      <trkpt lat="44.03305" lon="7.32102">
        <ele>1174.3900146484</ele>
        <time>2010-09-05T07:28:42Z</time>
      </trkpt>
      <trkpt lat="44.03307" lon="7.32101">
        <ele>1172.9499511719</ele>
        <time>2010-09-05T07:28:43Z</time>
      </trkpt>
      <trkpt lat="44.03325" lon="7.32106">
        <ele>1177.75</ele>
        <time>2010-09-05T07:28:53Z</time>
      </trkpt>
      <trkpt lat="44.03327" lon="7.32108">
        <ele>1174.3900146484</ele>
        <time>2010-09-05T07:28:54Z</time>
      </trkpt>
      <trkpt lat="44.03335" lon="7.3212">
        <ele>1174.3900146484</ele>
        <time>2010-09-05T07:28:59Z</time>
      </trkpt>
      <trkpt lat="44.03346" lon="7.32133">
        <ele>1180.1600341797</ele>
        <time>2010-09-05T07:29:06Z</time>
      </trkpt>
      <trkpt lat="44.03361" lon="7.32154">
        <ele>1180.1600341797</ele>
        <time>2010-09-05T07:29:14Z</time>
      </trkpt>
      <trkpt lat="44.03371" lon="7.32166">
        <ele>1181.5999755859</ele>
        <time>2010-09-05T07:29:21Z</time>
      </trkpt>
      <trkpt lat="44.03378" lon="7.32172">
        <ele>1180.6400146484</ele>
        <time>2010-09-05T07:29:25Z</time>
      </trkpt>
      <trkpt lat="44.03379" lon="7.32173">
        <ele>1184</ele>
        <time>2010-09-05T07:29:26Z</time>
      </trkpt>
      <trkpt lat="44.03387" lon="7.32176">
        <ele>1184.4799804688</ele>
        <time>2010-09-05T07:29:31Z</time>
      </trkpt>
      <trkpt lat="44.03402" lon="7.3218">
        <ele>1188.3299560547</ele>
        <time>2010-09-05T07:29:39Z</time>
      </trkpt>
      <trkpt lat="44.03418" lon="7.3219">
        <ele>1190.25</ele>
        <time>2010-09-05T07:29:48Z</time>
      </trkpt>
      <trkpt lat="44.03438" lon="7.32207">
        <ele>1192.6500244141</ele>
        <time>2010-09-05T07:30:00Z</time>
      </trkpt>
      <trkpt lat="44.03441" lon="7.32209">
        <ele>1193.6099853516</ele>
        <time>2010-09-05T07:30:02Z</time>
      </trkpt>
      <trkpt lat="44.0345" lon="7.32215">
        <ele>1192.6500244141</ele>
        <time>2010-09-05T07:30:07Z</time>
      </trkpt>
      <trkpt lat="44.03465" lon="7.32224">
        <ele>1196.0200195312</ele>
        <time>2010-09-05T07:30:13Z</time>
      </trkpt>
      <trkpt lat="44.03475" lon="7.32227">
        <ele>1195.5400390625</ele>
        <time>2010-09-05T07:30:17Z</time>
      </trkpt>
      <trkpt lat="44.03505" lon="7.32221">
        <ele>1197.9399414062</ele>
        <time>2010-09-05T07:30:30Z</time>
      </trkpt>
      <trkpt lat="44.03509" lon="7.3221">
        <ele>1195.0600585938</ele>
        <time>2010-09-05T07:30:34Z</time>
      </trkpt>
      <trkpt lat="44.03503" lon="7.32197">
        <ele>1198.4200439453</ele>
        <time>2010-09-05T07:30:38Z</time>
      </trkpt>
      <trkpt lat="44.03496" lon="7.32195">
        <ele>1199.3800048828</ele>
        <time>2010-09-05T07:30:42Z</time>
      </trkpt>
      <trkpt lat="44.03488" lon="7.32162">
        <ele>1200.3399658203</ele>
        <time>2010-09-05T07:30:52Z</time>
      </trkpt>
      <trkpt lat="44.03489" lon="7.32156">
        <ele>1200.3399658203</ele>
        <time>2010-09-05T07:30:53Z</time>
      </trkpt>
      <trkpt lat="44.0349" lon="7.3215">
        <ele>1196.9799804688</ele>
        <time>2010-09-05T07:30:54Z</time>
      </trkpt>
      <trkpt lat="44.03491" lon="7.32145">
        <ele>1198.4200439453</ele>
        <time>2010-09-05T07:30:55Z</time>
      </trkpt>
      <trkpt lat="44.03495" lon="7.32136">
        <ele>1199.8599853516</ele>
        <time>2010-09-05T07:30:57Z</time>
      </trkpt>
      <trkpt lat="44.0351" lon="7.32081">
        <ele>1203.2299804688</ele>
        <time>2010-09-05T07:31:13Z</time>
      </trkpt>
      <trkpt lat="44.03519" lon="7.32047">
        <ele>1207.0699462891</ele>
        <time>2010-09-05T07:31:26Z</time>
      </trkpt>
      <trkpt lat="44.03522" lon="7.32043">
        <ele>1208.5100097656</ele>
        <time>2010-09-05T07:31:28Z</time>
      </trkpt>
      <trkpt lat="44.03542" lon="7.32011">
        <ele>1210.4399414062</ele>
        <time>2010-09-05T07:31:42Z</time>
      </trkpt>
      <trkpt lat="44.03558" lon="7.31999">
        <ele>1213.8000488281</ele>
        <time>2010-09-05T07:31:51Z</time>
      </trkpt>
      <trkpt lat="44.03576" lon="7.31992">
        <ele>1217.1700439453</ele>
        <time>2010-09-05T07:32:02Z</time>
      </trkpt>
      <trkpt lat="44.03602" lon="7.31988">
        <ele>1221.4899902344</ele>
        <time>2010-09-05T07:32:12Z</time>
      </trkpt>
      <trkpt lat="44.03622" lon="7.31971">
        <ele>1222.4499511719</ele>
        <time>2010-09-05T07:32:23Z</time>
      </trkpt>
      <trkpt lat="44.03624" lon="7.3196">
        <ele>1222.4499511719</ele>
        <time>2010-09-05T07:32:27Z</time>
      </trkpt>
      <trkpt lat="44.03625" lon="7.31914">
        <ele>1226.3000488281</ele>
        <time>2010-09-05T07:32:40Z</time>
      </trkpt>
      <trkpt lat="44.03627" lon="7.31908">
        <ele>1223.4200439453</ele>
        <time>2010-09-05T07:32:42Z</time>
      </trkpt>
      <trkpt lat="44.0363" lon="7.31903">
        <ele>1225.3399658203</ele>
        <time>2010-09-05T07:32:44Z</time>
      </trkpt>
      <trkpt lat="44.03648" lon="7.31889">
        <ele>1229.6600341797</ele>
        <time>2010-09-05T07:32:53Z</time>
      </trkpt>
      <trkpt lat="44.03651" lon="7.31885">
        <ele>1229.1800537109</ele>
        <time>2010-09-05T07:32:55Z</time>
      </trkpt>
      <trkpt lat="44.03659" lon="7.31861">
        <ele>1230.6199951172</ele>
        <time>2010-09-05T07:33:04Z</time>
      </trkpt>
      <trkpt lat="44.03656" lon="7.31815">
        <ele>1233.9899902344</ele>
        <time>2010-09-05T07:33:17Z</time>
      </trkpt>
      <trkpt lat="44.03659" lon="7.31794">
        <ele>1234.9499511719</ele>
        <time>2010-09-05T07:33:26Z</time>
      </trkpt>
      <trkpt lat="44.03659" lon="7.3179">
        <ele>1237.8299560547</ele>
        <time>2010-09-05T07:33:29Z</time>
      </trkpt>
      <trkpt lat="44.0366" lon="7.31789">
        <ele>1237.3499755859</ele>
        <time>2010-09-05T07:33:30Z</time>
      </trkpt>
      <trkpt lat="44.0366" lon="7.31785">
        <ele>1240.7199707031</ele>
        <time>2010-09-05T07:33:35Z</time>
      </trkpt>
      <trkpt lat="44.03663" lon="7.31783">
        <ele>1241.6800537109</ele>
        <time>2010-09-05T07:33:42Z</time>
      </trkpt>
      <trkpt lat="44.03665" lon="7.31779">
        <ele>1242.6400146484</ele>
        <time>2010-09-05T07:33:46Z</time>
      </trkpt>
      <trkpt lat="44.03658" lon="7.31764">
        <ele>1243.5999755859</ele>
        <time>2010-09-05T07:33:54Z</time>
      </trkpt>
      <trkpt lat="44.03661" lon="7.31758">
        <ele>1246.0100097656</ele>
        <time>2010-09-05T07:33:59Z</time>
      </trkpt>
      <trkpt lat="44.03664" lon="7.31753">
        <ele>1249.8499755859</ele>
        <time>2010-09-05T07:34:03Z</time>
      </trkpt>
      <trkpt lat="44.03671" lon="7.31744">
        <ele>1249.3699951172</ele>
        <time>2010-09-05T07:34:11Z</time>
      </trkpt>
      <trkpt lat="44.03676" lon="7.31739">
        <ele>1251.7700195312</ele>
        <time>2010-09-05T07:34:18Z</time>
      </trkpt>
      <trkpt lat="44.03679" lon="7.31736">
        <ele>1251.7700195312</ele>
        <time>2010-09-05T07:34:21Z</time>
      </trkpt>
      <trkpt lat="44.03683" lon="7.31727">
        <ele>1254.1800537109</ele>
        <time>2010-09-05T07:34:26Z</time>
      </trkpt>
      <trkpt lat="44.03687" lon="7.31711">
        <ele>1257.0600585938</ele>
        <time>2010-09-05T07:34:32Z</time>
      </trkpt>
      <trkpt lat="44.03688" lon="7.31703">
        <ele>1257.0600585938</ele>
        <time>2010-09-05T07:34:36Z</time>
      </trkpt>
      <trkpt lat="44.03697" lon="7.31705">
        <ele>1259.4599609375</ele>
        <time>2010-09-05T07:34:43Z</time>
      </trkpt>
      <trkpt lat="44.03701" lon="7.317">
        <ele>1259.9399414062</ele>
        <time>2010-09-05T07:34:47Z</time>
      </trkpt>
      <trkpt lat="44.03708" lon="7.31689">
        <ele>1261.3900146484</ele>
        <time>2010-09-05T07:34:53Z</time>
      </trkpt>
      <trkpt lat="44.03711" lon="7.31684">
        <ele>1263.3100585938</ele>
        <time>2010-09-05T07:34:58Z</time>
      </trkpt>
      <trkpt lat="44.03714" lon="7.31682">
        <ele>1262.3499755859</ele>
        <time>2010-09-05T07:35:01Z</time>
      </trkpt>
      <trkpt lat="44.03716" lon="7.3168">
        <ele>1264.2700195312</ele>
        <time>2010-09-05T07:35:03Z</time>
      </trkpt>
      <trkpt lat="44.03726" lon="7.31668">
        <ele>1266.6700439453</ele>
        <time>2010-09-05T07:35:15Z</time>
      </trkpt>
      <trkpt lat="44.03745" lon="7.31664">
        <ele>1270.0400390625</ele>
        <time>2010-09-05T07:35:25Z</time>
      </trkpt>
      <trkpt lat="44.03747" lon="7.31663">
        <ele>1269.0799560547</ele>
        <time>2010-09-05T07:35:26Z</time>
      </trkpt>
      <trkpt lat="44.03754" lon="7.31659">
        <ele>1270.5200195312</ele>
        <time>2010-09-05T07:35:32Z</time>
      </trkpt>
      <trkpt lat="44.03765" lon="7.3165">
        <ele>1273.8800048828</ele>
        <time>2010-09-05T07:35:38Z</time>
      </trkpt>
      <trkpt lat="44.03788" lon="7.31627">
        <ele>1273.4000244141</ele>
        <time>2010-09-05T07:35:49Z</time>
      </trkpt>
      <trkpt lat="44.03809" lon="7.3161">
        <ele>1277.25</ele>
        <time>2010-09-05T07:36:00Z</time>
      </trkpt>
      <trkpt lat="44.03825" lon="7.31609">
        <ele>1279.1700439453</ele>
        <time>2010-09-05T07:36:11Z</time>
      </trkpt>
      <trkpt lat="44.03837" lon="7.31615">
        <ele>1282.0600585938</ele>
        <time>2010-09-05T07:36:22Z</time>
      </trkpt>
      <trkpt lat="44.03839" lon="7.31618">
        <ele>1283.0200195312</ele>
        <time>2010-09-05T07:36:25Z</time>
      </trkpt>
      <trkpt lat="44.03858" lon="7.31623">
        <ele>1283.9799804688</ele>
        <time>2010-09-05T07:36:35Z</time>
      </trkpt>
      <trkpt lat="44.0388" lon="7.31634">
        <ele>1284.4599609375</ele>
        <time>2010-09-05T07:36:45Z</time>
      </trkpt>
      <trkpt lat="44.039" lon="7.3164">
        <ele>1286.8599853516</ele>
        <time>2010-09-05T07:36:55Z</time>
      </trkpt>
      <trkpt lat="44.0391" lon="7.31649">
        <ele>1290.2299804688</ele>
        <time>2010-09-05T07:37:07Z</time>
      </trkpt>
      <trkpt lat="44.03911" lon="7.31651">
        <ele>1290.2299804688</ele>
        <time>2010-09-05T07:37:08Z</time>
      </trkpt>
      <trkpt lat="44.03931" lon="7.31665">
        <ele>1292.1500244141</ele>
        <time>2010-09-05T07:37:19Z</time>
      </trkpt>
      <trkpt lat="44.03938" lon="7.31667">
        <ele>1293.5899658203</ele>
        <time>2010-09-05T07:37:26Z</time>
      </trkpt>
      <trkpt lat="44.03951" lon="7.31673">
        <ele>1295.0300292969</ele>
        <time>2010-09-05T07:37:33Z</time>
      </trkpt>
      <trkpt lat="44.03963" lon="7.31685">
        <ele>1298.4000244141</ele>
        <time>2010-09-05T07:37:44Z</time>
      </trkpt>
      <trkpt lat="44.03966" lon="7.31688">
        <ele>1299.3599853516</ele>
        <time>2010-09-05T07:37:46Z</time>
      </trkpt>
      <trkpt lat="44.0397" lon="7.31693">
        <ele>1298.8800048828</ele>
        <time>2010-09-05T07:37:50Z</time>
      </trkpt>
      <trkpt lat="44.03973" lon="7.31695">
        <ele>1301.2800292969</ele>
        <time>2010-09-05T07:37:54Z</time>
      </trkpt>
      <trkpt lat="44.0398" lon="7.31703">
        <ele>1305.1300048828</ele>
        <time>2010-09-05T07:38:06Z</time>
      </trkpt>
      <trkpt lat="44.03995" lon="7.31707">
        <ele>1306.0899658203</ele>
        <time>2010-09-05T07:38:14Z</time>
      </trkpt>
      <trkpt lat="44.04013" lon="7.31708">
        <ele>1308.0100097656</ele>
        <time>2010-09-05T07:38:24Z</time>
      </trkpt>
      <trkpt lat="44.04026" lon="7.31716">
        <ele>1311.3800048828</ele>
        <time>2010-09-05T07:38:32Z</time>
      </trkpt>
      <trkpt lat="44.04042" lon="7.31733">
        <ele>1314.7399902344</ele>
        <time>2010-09-05T07:38:42Z</time>
      </trkpt>
      <trkpt lat="44.04063" lon="7.31772">
        <ele>1316.1800537109</ele>
        <time>2010-09-05T07:38:56Z</time>
      </trkpt>
      <trkpt lat="44.04071" lon="7.3179">
        <ele>1319.5500488281</ele>
        <time>2010-09-05T07:39:08Z</time>
      </trkpt>
      <trkpt lat="44.04068" lon="7.31793">
        <ele>1320.9899902344</ele>
        <time>2010-09-05T07:39:12Z</time>
      </trkpt>
      <trkpt lat="44.04064" lon="7.31802">
        <ele>1323.8699951172</ele>
        <time>2010-09-05T07:39:21Z</time>
      </trkpt>
      <trkpt lat="44.04059" lon="7.31808">
        <ele>1327.2399902344</ele>
        <time>2010-09-05T07:39:32Z</time>
      </trkpt>
      <trkpt lat="44.04056" lon="7.3181">
        <ele>1327.7199707031</ele>
        <time>2010-09-05T07:39:37Z</time>
      </trkpt>
      <trkpt lat="44.04053" lon="7.31819">
        <ele>1331.5600585938</ele>
        <time>2010-09-05T07:39:49Z</time>
      </trkpt>
      <trkpt lat="44.0405" lon="7.31823">
        <ele>1334.9300537109</ele>
        <time>2010-09-05T07:40:00Z</time>
      </trkpt>
      <trkpt lat="44.0405" lon="7.31825">
        <ele>1335.8900146484</ele>
        <time>2010-09-05T07:40:03Z</time>
      </trkpt>
      <trkpt lat="44.04046" lon="7.31824">
        <ele>1339.7299804688</ele>
        <time>2010-09-05T07:40:15Z</time>
      </trkpt>
      <trkpt lat="44.04038" lon="7.31829">
        <ele>1343.5799560547</ele>
        <time>2010-09-05T07:40:28Z</time>
      </trkpt>
      <trkpt lat="44.04038" lon="7.3183">
        <ele>1343.0999755859</ele>
        <time>2010-09-05T07:40:29Z</time>
      </trkpt>
      <trkpt lat="44.04042" lon="7.3184">
        <ele>1346.4599609375</ele>
        <time>2010-09-05T07:40:39Z</time>
      </trkpt>
      <trkpt lat="44.04047" lon="7.31844">
        <ele>1349.3499755859</ele>
        <time>2010-09-05T07:40:50Z</time>
      </trkpt>
      <trkpt lat="44.04048" lon="7.31848">
        <ele>1350.3100585938</ele>
        <time>2010-09-05T07:40:55Z</time>
      </trkpt>
      <trkpt lat="44.04046" lon="7.31856">
        <ele>1352.7099609375</ele>
        <time>2010-09-05T07:41:04Z</time>
      </trkpt>
      <trkpt lat="44.04033" lon="7.31855">
        <ele>1356.0799560547</ele>
        <time>2010-09-05T07:41:16Z</time>
      </trkpt>
      <trkpt lat="44.04025" lon="7.31863">
        <ele>1360.4000244141</ele>
        <time>2010-09-05T07:41:27Z</time>
      </trkpt>
      <trkpt lat="44.04025" lon="7.31866">
        <ele>1361.3599853516</ele>
        <time>2010-09-05T07:41:32Z</time>
      </trkpt>
      <trkpt lat="44.04025" lon="7.31869">
        <ele>1361.8399658203</ele>
        <time>2010-09-05T07:41:36Z</time>
      </trkpt>
      <trkpt lat="44.04029" lon="7.31871">
        <ele>1363.7700195312</ele>
        <time>2010-09-05T07:41:40Z</time>
      </trkpt>
      <trkpt lat="44.04031" lon="7.31873">
        <ele>1363.7700195312</ele>
        <time>2010-09-05T07:41:45Z</time>
      </trkpt>
      <trkpt lat="44.04031" lon="7.31876">
        <ele>1365.6899414062</ele>
        <time>2010-09-05T07:41:48Z</time>
      </trkpt>
      <trkpt lat="44.04043" lon="7.3189">
        <ele>1368.0899658203</ele>
        <time>2010-09-05T07:41:56Z</time>
      </trkpt>
      <trkpt lat="44.04062" lon="7.31912">
        <ele>1370.5</ele>
        <time>2010-09-05T07:42:09Z</time>
      </trkpt>
      <trkpt lat="44.04083" lon="7.31932">
        <ele>1372.9000244141</ele>
        <time>2010-09-05T07:42:22Z</time>
      </trkpt>
      <trkpt lat="44.04086" lon="7.31935">
        <ele>1373.3800048828</ele>
        <time>2010-09-05T07:42:24Z</time>
      </trkpt>
      <trkpt lat="44.04115" lon="7.31953">
        <ele>1375.3000488281</ele>
        <time>2010-09-05T07:42:39Z</time>
      </trkpt>
      <trkpt lat="44.04124" lon="7.31959">
        <ele>1376.2600097656</ele>
        <time>2010-09-05T07:42:45Z</time>
      </trkpt>
      <trkpt lat="44.04141" lon="7.31974">
        <ele>1376.2600097656</ele>
        <time>2010-09-05T07:42:55Z</time>
      </trkpt>
      <trkpt lat="44.04172" lon="7.32">
        <ele>1379.6300048828</ele>
        <time>2010-09-05T07:43:09Z</time>
      </trkpt>
      <trkpt lat="44.04185" lon="7.32015">
        <ele>1380.1099853516</ele>
        <time>2010-09-05T07:43:15Z</time>
      </trkpt>
      <trkpt lat="44.04208" lon="7.32054">
        <ele>1382.0300292969</ele>
        <time>2010-09-05T07:43:29Z</time>
      </trkpt>
      <trkpt lat="44.04219" lon="7.32062">
        <ele>1383.4699707031</ele>
        <time>2010-09-05T07:43:37Z</time>
      </trkpt>
      <trkpt lat="44.0424" lon="7.32073">
        <ele>1385.4000244141</ele>
        <time>2010-09-05T07:43:47Z</time>
      </trkpt>
      <trkpt lat="44.0426" lon="7.32085">
        <ele>1385.8800048828</ele>
        <time>2010-09-05T07:43:57Z</time>
      </trkpt>
      <trkpt lat="44.04286" lon="7.32106">
        <ele>1387.3199462891</ele>
        <time>2010-09-05T07:44:08Z</time>
      </trkpt>
      <trkpt lat="44.04311" lon="7.32132">
        <ele>1386.8399658203</ele>
        <time>2010-09-05T07:44:17Z</time>
      </trkpt>
      <trkpt lat="44.04308" lon="7.32142">
        <ele>1389.7199707031</ele>
        <time>2010-09-05T07:44:26Z</time>
      </trkpt>
      <trkpt lat="44.04291" lon="7.32136">
        <ele>1392.1300048828</ele>
        <time>2010-09-05T07:44:36Z</time>
      </trkpt>
      <trkpt lat="44.04282" lon="7.32134">
        <ele>1393.0899658203</ele>
        <time>2010-09-05T07:44:41Z</time>
      </trkpt>
      <trkpt lat="44.0427" lon="7.32131">
        <ele>1393.5699462891</ele>
        <time>2010-09-05T07:44:47Z</time>
      </trkpt>
      <trkpt lat="44.04255" lon="7.32122">
        <ele>1396.4499511719</ele>
        <time>2010-09-05T07:44:57Z</time>
      </trkpt>
      <trkpt lat="44.04255" lon="7.32122">
        <ele>1396.4499511719</ele>
        <time>2010-09-05T07:44:58Z</time>
      </trkpt>
      <trkpt lat="44.04256" lon="7.32122">
        <ele>1396.9300537109</ele>
        <time>2010-09-05T07:45:01Z</time>
      </trkpt>
      <trkpt lat="44.04263" lon="7.32126">
        <ele>1397.8900146484</ele>
        <time>2010-09-05T07:45:07Z</time>
      </trkpt>
      <trkpt lat="44.04274" lon="7.32128">
        <ele>1401.2600097656</ele>
        <time>2010-09-05T07:45:17Z</time>
      </trkpt>
      <trkpt lat="44.04289" lon="7.32141">
        <ele>1403.6600341797</ele>
        <time>2010-09-05T07:45:27Z</time>
      </trkpt>
      <trkpt lat="44.04305" lon="7.3217">
        <ele>1406.5500488281</ele>
        <time>2010-09-05T07:45:37Z</time>
      </trkpt>
      <trkpt lat="44.04308" lon="7.32178">
        <ele>1408.4699707031</ele>
        <time>2010-09-05T07:45:42Z</time>
      </trkpt>
      <trkpt lat="44.04314" lon="7.32185">
        <ele>1409.9100341797</ele>
        <time>2010-09-05T07:45:46Z</time>
      </trkpt>
      <trkpt lat="44.04319" lon="7.32196">
        <ele>1411.8299560547</ele>
        <time>2010-09-05T07:45:55Z</time>
      </trkpt>
      <trkpt lat="44.04332" lon="7.32212">
        <ele>1414.2399902344</ele>
        <time>2010-09-05T07:46:06Z</time>
      </trkpt>
      <trkpt lat="44.04347" lon="7.32231">
        <ele>1417.1199951172</ele>
        <time>2010-09-05T07:46:18Z</time>
      </trkpt>
      <trkpt lat="44.04354" lon="7.3224">
        <ele>1418.5600585938</ele>
        <time>2010-09-05T07:46:24Z</time>
      </trkpt>
      <trkpt lat="44.04359" lon="7.32246">
        <ele>1419.5200195312</ele>
        <time>2010-09-05T07:46:27Z</time>
      </trkpt>
      <trkpt lat="44.04366" lon="7.32266">
        <ele>1422.8900146484</ele>
        <time>2010-09-05T07:46:39Z</time>
      </trkpt>
      <trkpt lat="44.04358" lon="7.32267">
        <ele>1425.7700195312</ele>
        <time>2010-09-05T07:46:48Z</time>
      </trkpt>
      <trkpt lat="44.04355" lon="7.32267">
        <ele>1425.7700195312</ele>
        <time>2010-09-05T07:46:51Z</time>
      </trkpt>
      <trkpt lat="44.04338" lon="7.32263">
        <ele>1429.1400146484</ele>
        <time>2010-09-05T07:47:01Z</time>
      </trkpt>
      <trkpt lat="44.04336" lon="7.32262">
        <ele>1429.6199951172</ele>
        <time>2010-09-05T07:47:02Z</time>
      </trkpt>
      <trkpt lat="44.04328" lon="7.32261">
        <ele>1431.5400390625</ele>
        <time>2010-09-05T07:47:08Z</time>
      </trkpt>
      <trkpt lat="44.04324" lon="7.32261">
        <ele>1432.5</ele>
        <time>2010-09-05T07:47:10Z</time>
      </trkpt>
      <trkpt lat="44.04316" lon="7.32259">
        <ele>1432.9799804688</ele>
        <time>2010-09-05T07:47:15Z</time>
      </trkpt>
      <trkpt lat="44.04311" lon="7.32257">
        <ele>1434.9100341797</ele>
        <time>2010-09-05T07:47:19Z</time>
      </trkpt>
      <trkpt lat="44.04307" lon="7.32257">
        <ele>1436.3499755859</ele>
        <time>2010-09-05T07:47:22Z</time>
      </trkpt>
      <trkpt lat="44.04311" lon="7.32264">
        <ele>1440.1899414062</ele>
        <time>2010-09-05T07:47:35Z</time>
      </trkpt>
      <trkpt lat="44.04312" lon="7.32264">
        <ele>1439.7099609375</ele>
        <time>2010-09-05T07:47:36Z</time>
      </trkpt>
      <trkpt lat="44.04317" lon="7.3227">
        <ele>1443.0799560547</ele>
        <time>2010-09-05T07:47:45Z</time>
      </trkpt>
      <trkpt lat="44.0432" lon="7.32278">
        <ele>1446.4399414062</ele>
        <time>2010-09-05T07:47:56Z</time>
      </trkpt>
      <trkpt lat="44.04325" lon="7.32287">
        <ele>1448.3599853516</ele>
        <time>2010-09-05T07:48:02Z</time>
      </trkpt>
      <trkpt lat="44.04325" lon="7.32288">
        <ele>1448.3599853516</ele>
        <time>2010-09-05T07:48:03Z</time>
      </trkpt>
      <trkpt lat="44.04327" lon="7.32298">
        <ele>1451.25</ele>
        <time>2010-09-05T07:48:11Z</time>
      </trkpt>
      <trkpt lat="44.04335" lon="7.32307">
        <ele>1453.1700439453</ele>
        <time>2010-09-05T07:48:17Z</time>
      </trkpt>
      <trkpt lat="44.0434" lon="7.32318">
        <ele>1454.1300048828</ele>
        <time>2010-09-05T07:48:23Z</time>
      </trkpt>
      <trkpt lat="44.04347" lon="7.3233">
        <ele>1457.9799804688</ele>
        <time>2010-09-05T07:48:35Z</time>
      </trkpt>
      <trkpt lat="44.04355" lon="7.32339">
        <ele>1458.4599609375</ele>
        <time>2010-09-05T07:48:41Z</time>
      </trkpt>
      <trkpt lat="44.04358" lon="7.32352">
        <ele>1461.3399658203</ele>
        <time>2010-09-05T07:48:49Z</time>
      </trkpt>
      <trkpt lat="44.04361" lon="7.32367">
        <ele>1462.7800292969</ele>
        <time>2010-09-05T07:48:55Z</time>
      </trkpt>
      <trkpt lat="44.04364" lon="7.32375">
        <ele>1464.2299804688</ele>
        <time>2010-09-05T07:48:58Z</time>
      </trkpt>
      <trkpt lat="44.04369" lon="7.32388">
        <ele>1465.6700439453</ele>
        <time>2010-09-05T07:49:03Z</time>
      </trkpt>
      <trkpt lat="44.04369" lon="7.32389">
        <ele>1465.6700439453</ele>
        <time>2010-09-05T07:49:04Z</time>
      </trkpt>
      <trkpt lat="44.0437" lon="7.32395">
        <ele>1466.1500244141</ele>
        <time>2010-09-05T07:49:08Z</time>
      </trkpt>
      <trkpt lat="44.0437" lon="7.32398">
        <ele>1466.6300048828</ele>
        <time>2010-09-05T07:49:10Z</time>
      </trkpt>
      <trkpt lat="44.04374" lon="7.32404">
        <ele>1468.0699462891</ele>
        <time>2010-09-05T07:49:14Z</time>
      </trkpt>
      <trkpt lat="44.04375" lon="7.3241">
        <ele>1470.4699707031</ele>
        <time>2010-09-05T07:49:24Z</time>
      </trkpt>
      <trkpt lat="44.04375" lon="7.32411">
        <ele>1470.4699707031</ele>
        <time>2010-09-05T07:49:25Z</time>
      </trkpt>
      <trkpt lat="44.04377" lon="7.32411">
        <ele>1470.4699707031</ele>
        <time>2010-09-05T07:49:28Z</time>
      </trkpt>
      <trkpt lat="44.04388" lon="7.3242">
        <ele>1472.4000244141</ele>
        <time>2010-09-05T07:49:36Z</time>
      </trkpt>
      <trkpt lat="44.04395" lon="7.32429">
        <ele>1473.8399658203</ele>
        <time>2010-09-05T07:49:42Z</time>
      </trkpt>
      <trkpt lat="44.04399" lon="7.32432">
        <ele>1474.8000488281</ele>
        <time>2010-09-05T07:49:45Z</time>
      </trkpt>
      <trkpt lat="44.04404" lon="7.32437">
        <ele>1475.7600097656</ele>
        <time>2010-09-05T07:49:49Z</time>
      </trkpt>
      <trkpt lat="44.04411" lon="7.32441">
        <ele>1477.6800537109</ele>
        <time>2010-09-05T07:49:55Z</time>
      </trkpt>
      <trkpt lat="44.04419" lon="7.3245">
        <ele>1481.0500488281</ele>
        <time>2010-09-05T07:50:04Z</time>
      </trkpt>
      <trkpt lat="44.04438" lon="7.3246">
        <ele>1482.4899902344</ele>
        <time>2010-09-05T07:50:16Z</time>
      </trkpt>
      <trkpt lat="44.04446" lon="7.32472">
        <ele>1487.3000488281</ele>
        <time>2010-09-05T07:50:30Z</time>
      </trkpt>
      <trkpt lat="44.04449" lon="7.32479">
        <ele>1490.6600341797</ele>
        <time>2010-09-05T07:50:41Z</time>
      </trkpt>
      <trkpt lat="44.04456" lon="7.32493">
        <ele>1493.5500488281</ele>
        <time>2010-09-05T07:50:52Z</time>
      </trkpt>
      <trkpt lat="44.04462" lon="7.325">
        <ele>1495.9499511719</ele>
        <time>2010-09-05T07:51:00Z</time>
      </trkpt>
      <trkpt lat="44.04464" lon="7.32505">
        <ele>1499.3100585938</ele>
        <time>2010-09-05T07:51:09Z</time>
      </trkpt>
      <trkpt lat="44.04467" lon="7.32521">
        <ele>1502.1999511719</ele>
        <time>2010-09-05T07:51:23Z</time>
      </trkpt>
      <trkpt lat="44.04476" lon="7.32541">
        <ele>1505.5600585938</ele>
        <time>2010-09-05T07:51:33Z</time>
      </trkpt>
      <trkpt lat="44.04484" lon="7.32568">
        <ele>1508.4499511719</ele>
        <time>2010-09-05T07:51:46Z</time>
      </trkpt>
      <trkpt lat="44.04496" lon="7.3259">
        <ele>1512.2900390625</ele>
        <time>2010-09-05T07:51:58Z</time>
      </trkpt>
      <trkpt lat="44.04499" lon="7.32609">
        <ele>1515.1800537109</ele>
        <time>2010-09-05T07:52:09Z</time>
      </trkpt>
      <trkpt lat="44.045" lon="7.32613">
        <ele>1515.1800537109</ele>
        <time>2010-09-05T07:52:11Z</time>
      </trkpt>
      <trkpt lat="44.04499" lon="7.32624">
        <ele>1518.0600585938</ele>
        <time>2010-09-05T07:52:18Z</time>
      </trkpt>
      <trkpt lat="44.04496" lon="7.3264">
        <ele>1520.9399414062</ele>
        <time>2010-09-05T07:52:27Z</time>
      </trkpt>
      <trkpt lat="44.04494" lon="7.32655">
        <ele>1522.8699951172</ele>
        <time>2010-09-05T07:52:37Z</time>
      </trkpt>
      <trkpt lat="44.0449" lon="7.32665">
        <ele>1526.2299804688</ele>
        <time>2010-09-05T07:52:44Z</time>
      </trkpt>
      <trkpt lat="44.04485" lon="7.3268">
        <ele>1528.6300048828</ele>
        <time>2010-09-05T07:52:54Z</time>
      </trkpt>
      <trkpt lat="44.04485" lon="7.32683">
        <ele>1528.6300048828</ele>
        <time>2010-09-05T07:52:56Z</time>
      </trkpt>
      <trkpt lat="44.04484" lon="7.32692">
        <ele>1530.0799560547</ele>
        <time>2010-09-05T07:53:02Z</time>
      </trkpt>
      <trkpt lat="44.04482" lon="7.32696">
        <ele>1531.0400390625</ele>
        <time>2010-09-05T07:53:05Z</time>
      </trkpt>
      <trkpt lat="44.04483" lon="7.32707">
        <ele>1532.9599609375</ele>
        <time>2010-09-05T07:53:12Z</time>
      </trkpt>
      <trkpt lat="44.04482" lon="7.32719">
        <ele>1535.8399658203</ele>
        <time>2010-09-05T07:53:21Z</time>
      </trkpt>
      <trkpt lat="44.04477" lon="7.32726">
        <ele>1538.7299804688</ele>
        <time>2010-09-05T07:53:30Z</time>
      </trkpt>
      <trkpt lat="44.04477" lon="7.32727">
        <ele>1538.25</ele>
        <time>2010-09-05T07:53:31Z</time>
      </trkpt>
      <trkpt lat="44.04476" lon="7.32737">
        <ele>1540.6500244141</ele>
        <time>2010-09-05T07:53:40Z</time>
      </trkpt>
      <trkpt lat="44.04476" lon="7.32744">
        <ele>1542.0899658203</ele>
        <time>2010-09-05T07:53:45Z</time>
      </trkpt>
      <trkpt lat="44.04474" lon="7.32757">
        <ele>1545.9399414062</ele>
        <time>2010-09-05T07:53:55Z</time>
      </trkpt>
      <trkpt lat="44.04474" lon="7.32762">
        <ele>1547.3800048828</ele>
        <time>2010-09-05T07:54:00Z</time>
      </trkpt>
      <trkpt lat="44.04477" lon="7.32767">
        <ele>1550.7399902344</ele>
        <time>2010-09-05T07:54:09Z</time>
      </trkpt>
      <trkpt lat="44.0448" lon="7.32768">
        <ele>1553.1500244141</ele>
        <time>2010-09-05T07:54:19Z</time>
      </trkpt>
      <trkpt lat="44.04491" lon="7.3278">
        <ele>1556.5100097656</ele>
        <time>2010-09-05T07:54:32Z</time>
      </trkpt>
      <trkpt lat="44.04497" lon="7.32789">
        <ele>1557.9499511719</ele>
        <time>2010-09-05T07:54:39Z</time>
      </trkpt>
      <trkpt lat="44.04497" lon="7.32794">
        <ele>1560.3599853516</ele>
        <time>2010-09-05T07:54:44Z</time>
      </trkpt>
      <trkpt lat="44.04498" lon="7.32809">
        <ele>1563.2399902344</ele>
        <time>2010-09-05T07:54:53Z</time>
      </trkpt>
      <trkpt lat="44.04502" lon="7.3282">
        <ele>1566.6099853516</ele>
        <time>2010-09-05T07:55:02Z</time>
      </trkpt>
      <trkpt lat="44.04504" lon="7.32824">
        <ele>1567.0899658203</ele>
        <time>2010-09-05T07:55:06Z</time>
      </trkpt>
      <trkpt lat="44.04508" lon="7.3283">
        <ele>1570.4499511719</ele>
        <time>2010-09-05T07:55:16Z</time>
      </trkpt>
      <trkpt lat="44.04508" lon="7.32831">
        <ele>1569.9699707031</ele>
        <time>2010-09-05T07:55:17Z</time>
      </trkpt>
      <trkpt lat="44.04509" lon="7.32834">
        <ele>1571.8900146484</ele>
        <time>2010-09-05T07:55:20Z</time>
      </trkpt>
      <trkpt lat="44.04514" lon="7.3284">
        <ele>1573.3299560547</ele>
        <time>2010-09-05T07:55:27Z</time>
      </trkpt>
      <trkpt lat="44.04522" lon="7.32847">
        <ele>1576.2199707031</ele>
        <time>2010-09-05T07:55:38Z</time>
      </trkpt>
      <trkpt lat="44.04527" lon="7.32856">
        <ele>1579.5799560547</ele>
        <time>2010-09-05T07:55:48Z</time>
      </trkpt>
      <trkpt lat="44.04537" lon="7.32869">
        <ele>1582.4699707031</ele>
        <time>2010-09-05T07:55:59Z</time>
      </trkpt>
      <trkpt lat="44.04542" lon="7.32875">
        <ele>1584.8699951172</ele>
        <time>2010-09-05T07:56:05Z</time>
      </trkpt>
      <trkpt lat="44.04544" lon="7.32881">
        <ele>1585.8299560547</ele>
        <time>2010-09-05T07:56:09Z</time>
      </trkpt>
      <trkpt lat="44.04547" lon="7.32885">
        <ele>1589.6800537109</ele>
        <time>2010-09-05T07:56:17Z</time>
      </trkpt>
      <trkpt lat="44.04548" lon="7.32886">
        <ele>1588.7199707031</ele>
        <time>2010-09-05T07:56:18Z</time>
      </trkpt>
      <trkpt lat="44.04551" lon="7.32888">
        <ele>1590.6400146484</ele>
        <time>2010-09-05T07:56:24Z</time>
      </trkpt>
      <trkpt lat="44.04557" lon="7.3289">
        <ele>1594</ele>
        <time>2010-09-05T07:56:33Z</time>
      </trkpt>
      <trkpt lat="44.04559" lon="7.32891">
        <ele>1594.9599609375</ele>
        <time>2010-09-05T07:56:35Z</time>
      </trkpt>
      <trkpt lat="44.0456" lon="7.32892">
        <ele>1595.4499511719</ele>
        <time>2010-09-05T07:56:37Z</time>
      </trkpt>
      <trkpt lat="44.04562" lon="7.32898">
        <ele>1595.4499511719</ele>
        <time>2010-09-05T07:56:41Z</time>
      </trkpt>
      <trkpt lat="44.04565" lon="7.32906">
        <ele>1596.8900146484</ele>
        <time>2010-09-05T07:56:44Z</time>
      </trkpt>
      <trkpt lat="44.04585" lon="7.32913">
        <ele>1599.7700195312</ele>
        <time>2010-09-05T07:56:56Z</time>
      </trkpt>
      <trkpt lat="44.04599" lon="7.32928">
        <ele>1603.1400146484</ele>
        <time>2010-09-05T07:57:06Z</time>
      </trkpt>
      <trkpt lat="44.04606" lon="7.32964">
        <ele>1606.0200195312</ele>
        <time>2010-09-05T07:57:18Z</time>
      </trkpt>
      <trkpt lat="44.04599" lon="7.32976">
        <ele>1606.0200195312</ele>
        <time>2010-09-05T07:57:25Z</time>
      </trkpt>
      <trkpt lat="44.04594" lon="7.32974">
        <ele>1608.9000244141</ele>
        <time>2010-09-05T07:57:34Z</time>
      </trkpt>
      <trkpt lat="44.04591" lon="7.3297">
        <ele>1610.3499755859</ele>
        <time>2010-09-05T07:57:38Z</time>
      </trkpt>
      <trkpt lat="44.04583" lon="7.32963">
        <ele>1610.3499755859</ele>
        <time>2010-09-05T07:57:45Z</time>
      </trkpt>
      <trkpt lat="44.04578" lon="7.32956">
        <ele>1610.3499755859</ele>
        <time>2010-09-05T07:57:50Z</time>
      </trkpt>
      <trkpt lat="44.04571" lon="7.32951">
        <ele>1611.7900390625</ele>
        <time>2010-09-05T07:57:57Z</time>
      </trkpt>
      <trkpt lat="44.04558" lon="7.32954">
        <ele>1615.6300048828</ele>
        <time>2010-09-05T07:58:08Z</time>
      </trkpt>
      <trkpt lat="44.04547" lon="7.3296">
        <ele>1618.5200195312</ele>
        <time>2010-09-05T07:58:20Z</time>
      </trkpt>
      <trkpt lat="44.04543" lon="7.32963">
        <ele>1619.9599609375</ele>
        <time>2010-09-05T07:58:24Z</time>
      </trkpt>
      <trkpt lat="44.04533" lon="7.32967">
        <ele>1623.3199462891</ele>
        <time>2010-09-05T07:58:35Z</time>
      </trkpt>
      <trkpt lat="44.04532" lon="7.32967">
        <ele>1623.8000488281</ele>
        <time>2010-09-05T07:58:37Z</time>
      </trkpt>
      <trkpt lat="44.04528" lon="7.32968">
        <ele>1624.7700195312</ele>
        <time>2010-09-05T07:58:41Z</time>
      </trkpt>
      <trkpt lat="44.04523" lon="7.3297">
        <ele>1626.6899414062</ele>
        <time>2010-09-05T07:58:45Z</time>
      </trkpt>
      <trkpt lat="44.04507" lon="7.32969">
        <ele>1629.5699462891</ele>
        <time>2010-09-05T07:58:54Z</time>
      </trkpt>
      <trkpt lat="44.04496" lon="7.32974">
        <ele>1631.9799804688</ele>
        <time>2010-09-05T07:59:02Z</time>
      </trkpt>
      <trkpt lat="44.04467" lon="7.32966">
        <ele>1632.9399414062</ele>
        <time>2010-09-05T07:59:14Z</time>
      </trkpt>
      <trkpt lat="44.04436" lon="7.32946">
        <ele>1633.9000244141</ele>
        <time>2010-09-05T07:59:25Z</time>
      </trkpt>
      <trkpt lat="44.04427" lon="7.32944">
        <ele>1635.3399658203</ele>
        <time>2010-09-05T07:59:29Z</time>
      </trkpt>
      <trkpt lat="44.0442" lon="7.32945">
        <ele>1636.7800292969</ele>
        <time>2010-09-05T07:59:33Z</time>
      </trkpt>
      <trkpt lat="44.04413" lon="7.32945">
        <ele>1635.8199462891</ele>
        <time>2010-09-05T07:59:37Z</time>
      </trkpt>
      <trkpt lat="44.04408" lon="7.32943">
        <ele>1637.2600097656</ele>
        <time>2010-09-05T07:59:41Z</time>
      </trkpt>
      <trkpt lat="44.04403" lon="7.32943">
        <ele>1637.2600097656</ele>
        <time>2010-09-05T07:59:46Z</time>
      </trkpt>
      <trkpt lat="44.04386" lon="7.32937">
        <ele>1639.1899414062</ele>
        <time>2010-09-05T07:59:55Z</time>
      </trkpt>
      <trkpt lat="44.04373" lon="7.32927">
        <ele>1640.1500244141</ele>
        <time>2010-09-05T08:00:00Z</time>
      </trkpt>
      <trkpt lat="44.0437" lon="7.32925">
        <ele>1640.1500244141</ele>
        <time>2010-09-05T08:00:01Z</time>
      </trkpt>
      <trkpt lat="44.0434" lon="7.32895">
        <ele>1642.0699462891</ele>
        <time>2010-09-05T08:00:15Z</time>
      </trkpt>
      <trkpt lat="44.04315" lon="7.32882">
        <ele>1643.9899902344</ele>
        <time>2010-09-05T08:00:25Z</time>
      </trkpt>
      <trkpt lat="44.04312" lon="7.32882">
        <ele>1644.9499511719</ele>
        <time>2010-09-05T08:00:27Z</time>
      </trkpt>
      <trkpt lat="44.04306" lon="7.3288">
        <ele>1645.4300537109</ele>
        <time>2010-09-05T08:00:31Z</time>
      </trkpt>
      <trkpt lat="44.04293" lon="7.32882">
        <ele>1645.4300537109</ele>
        <time>2010-09-05T08:00:38Z</time>
      </trkpt>
      <trkpt lat="44.04286" lon="7.32882">
        <ele>1646.4000244141</ele>
        <time>2010-09-05T08:00:42Z</time>
      </trkpt>
      <trkpt lat="44.04277" lon="7.32876">
        <ele>1647.8399658203</ele>
        <time>2010-09-05T08:00:46Z</time>
      </trkpt>
      <trkpt lat="44.04274" lon="7.32874">
        <ele>1648.3199462891</ele>
        <time>2010-09-05T08:00:47Z</time>
      </trkpt>
      <trkpt lat="44.04255" lon="7.32859">
        <ele>1651.1999511719</ele>
        <time>2010-09-05T08:00:59Z</time>
      </trkpt>
      <trkpt lat="44.0425" lon="7.32862">
        <ele>1651.6800537109</ele>
        <time>2010-09-05T08:01:03Z</time>
      </trkpt>
      <trkpt lat="44.0424" lon="7.32868">
        <ele>1656.0100097656</ele>
        <time>2010-09-05T08:01:15Z</time>
      </trkpt>
      <trkpt lat="44.0423" lon="7.32868">
        <ele>1659.3699951172</ele>
        <time>2010-09-05T08:01:27Z</time>
      </trkpt>
      <trkpt lat="44.04226" lon="7.32871">
        <ele>1662.2600097656</ele>
        <time>2010-09-05T08:01:36Z</time>
      </trkpt>
      <trkpt lat="44.04218" lon="7.32874">
        <ele>1666.0999755859</ele>
        <time>2010-09-05T08:01:46Z</time>
      </trkpt>
      <trkpt lat="44.04208" lon="7.32879">
        <ele>1669.4699707031</ele>
        <time>2010-09-05T08:01:57Z</time>
      </trkpt>
      <trkpt lat="44.04208" lon="7.3288">
        <ele>1669.9499511719</ele>
        <time>2010-09-05T08:01:58Z</time>
      </trkpt>
      <trkpt lat="44.04195" lon="7.32885">
        <ele>1672.8299560547</ele>
        <time>2010-09-05T08:02:08Z</time>
      </trkpt>
      <trkpt lat="44.04194" lon="7.32885">
        <ele>1672.8299560547</ele>
        <time>2010-09-05T08:02:09Z</time>
      </trkpt>
      <trkpt lat="44.04189" lon="7.32888">
        <ele>1674.75</ele>
        <time>2010-09-05T08:02:16Z</time>
      </trkpt>
      <trkpt lat="44.04189" lon="7.32899">
        <ele>1677.6400146484</ele>
        <time>2010-09-05T08:02:26Z</time>
      </trkpt>
      <trkpt lat="44.04191" lon="7.32914">
        <ele>1681</ele>
        <time>2010-09-05T08:02:37Z</time>
      </trkpt>
      <trkpt lat="44.04193" lon="7.32924">
        <ele>1682.9300537109</ele>
        <time>2010-09-05T08:02:44Z</time>
      </trkpt>
      <trkpt lat="44.04193" lon="7.32934">
        <ele>1683.8900146484</ele>
        <time>2010-09-05T08:02:51Z</time>
      </trkpt>
      <trkpt lat="44.04189" lon="7.32941">
        <ele>1685.8100585938</ele>
        <time>2010-09-05T08:02:57Z</time>
      </trkpt>
      <trkpt lat="44.04188" lon="7.32942">
        <ele>1685.8100585938</ele>
        <time>2010-09-05T08:02:58Z</time>
      </trkpt>
      <trkpt lat="44.04188" lon="7.32945">
        <ele>1686.7700195312</ele>
        <time>2010-09-05T08:03:00Z</time>
      </trkpt>
      <trkpt lat="44.04187" lon="7.3295">
        <ele>1687.25</ele>
        <time>2010-09-05T08:03:04Z</time>
      </trkpt>
      <trkpt lat="44.04187" lon="7.32953">
        <ele>1688.2099609375</ele>
        <time>2010-09-05T08:03:06Z</time>
      </trkpt>
      <trkpt lat="44.04187" lon="7.32957">
        <ele>1688.2099609375</ele>
        <time>2010-09-05T08:03:08Z</time>
      </trkpt>
      <trkpt lat="44.04184" lon="7.32992">
        <ele>1690.1400146484</ele>
        <time>2010-09-05T08:03:20Z</time>
      </trkpt>
      <trkpt lat="44.04173" lon="7.33032">
        <ele>1692.5400390625</ele>
        <time>2010-09-05T08:03:32Z</time>
      </trkpt>
      <trkpt lat="44.04172" lon="7.33035">
        <ele>1693.0200195312</ele>
        <time>2010-09-05T08:03:33Z</time>
      </trkpt>
      <trkpt lat="44.0416" lon="7.33051">
        <ele>1695.4200439453</ele>
        <time>2010-09-05T08:03:45Z</time>
      </trkpt>
      <trkpt lat="44.04158" lon="7.33056">
        <ele>1696.3800048828</ele>
        <time>2010-09-05T08:03:49Z</time>
      </trkpt>
      <trkpt lat="44.04153" lon="7.33061">
        <ele>1697.8299560547</ele>
        <time>2010-09-05T08:03:53Z</time>
      </trkpt>
      <trkpt lat="44.04137" lon="7.33072">
        <ele>1699.75</ele>
        <time>2010-09-05T08:04:03Z</time>
      </trkpt>
      <trkpt lat="44.04129" lon="7.33083">
        <ele>1702.6300048828</ele>
        <time>2010-09-05T08:04:10Z</time>
      </trkpt>
      <trkpt lat="44.04124" lon="7.33093">
        <ele>1703.5899658203</ele>
        <time>2010-09-05T08:04:16Z</time>
      </trkpt>
      <trkpt lat="44.04119" lon="7.33098">
        <ele>1704.5500488281</ele>
        <time>2010-09-05T08:04:19Z</time>
      </trkpt>
      <trkpt lat="44.04112" lon="7.33107">
        <ele>1705.0400390625</ele>
        <time>2010-09-05T08:04:23Z</time>
      </trkpt>
      <trkpt lat="44.04109" lon="7.33111">
        <ele>1706.4799804688</ele>
        <time>2010-09-05T08:04:25Z</time>
      </trkpt>
      <trkpt lat="44.0409" lon="7.33111">
        <ele>1709.3599853516</ele>
        <time>2010-09-05T08:04:37Z</time>
      </trkpt>
      <trkpt lat="44.04089" lon="7.33112">
        <ele>1709.3599853516</ele>
        <time>2010-09-05T08:04:38Z</time>
      </trkpt>
      <trkpt lat="44.0409" lon="7.33124">
        <ele>1711.2800292969</ele>
        <time>2010-09-05T08:04:43Z</time>
      </trkpt>
      <trkpt lat="44.04088" lon="7.33131">
        <ele>1711.7600097656</ele>
        <time>2010-09-05T08:04:47Z</time>
      </trkpt>
      <trkpt lat="44.04086" lon="7.33138">
        <ele>1713.2099609375</ele>
        <time>2010-09-05T08:04:53Z</time>
      </trkpt>
      <trkpt lat="44.04076" lon="7.33137">
        <ele>1715.6099853516</ele>
        <time>2010-09-05T08:05:05Z</time>
      </trkpt>
      <trkpt lat="44.04075" lon="7.33138">
        <ele>1717.0500488281</ele>
        <time>2010-09-05T08:05:08Z</time>
      </trkpt>
      <trkpt lat="44.04065" lon="7.33141">
        <ele>1719.9399414062</ele>
        <time>2010-09-05T08:05:18Z</time>
      </trkpt>
      <trkpt lat="44.04055" lon="7.3314">
        <ele>1723.3000488281</ele>
        <time>2010-09-05T08:05:26Z</time>
      </trkpt>
      <trkpt lat="44.04046" lon="7.33147">
        <ele>1726.1800537109</ele>
        <time>2010-09-05T08:05:40Z</time>
      </trkpt>
      <trkpt lat="44.04032" lon="7.33147">
        <ele>1729.5500488281</ele>
        <time>2010-09-05T08:05:51Z</time>
      </trkpt>
      <trkpt lat="44.04024" lon="7.33147">
        <ele>1731.9499511719</ele>
        <time>2010-09-05T08:06:00Z</time>
      </trkpt>
      <trkpt lat="44.04022" lon="7.33155">
        <ele>1734.8399658203</ele>
        <time>2010-09-05T08:06:08Z</time>
      </trkpt>
      <trkpt lat="44.04013" lon="7.33156">
        <ele>1736.2800292969</ele>
        <time>2010-09-05T08:06:16Z</time>
      </trkpt>
      <trkpt lat="44.04" lon="7.33155">
        <ele>1738.1999511719</ele>
        <time>2010-09-05T08:06:27Z</time>
      </trkpt>
      <trkpt lat="44.0399" lon="7.33159">
        <ele>1742.0500488281</ele>
        <time>2010-09-05T08:06:37Z</time>
      </trkpt>
      <trkpt lat="44.0398" lon="7.33159">
        <ele>1743.4899902344</ele>
        <time>2010-09-05T08:06:44Z</time>
      </trkpt>
      <trkpt lat="44.03972" lon="7.33164">
        <ele>1746.3699951172</ele>
        <time>2010-09-05T08:06:53Z</time>
      </trkpt>
      <trkpt lat="44.03961" lon="7.33168">
        <ele>1749.7399902344</ele>
        <time>2010-09-05T08:07:05Z</time>
      </trkpt>
      <trkpt lat="44.03948" lon="7.33168">
        <ele>1752.6199951172</ele>
        <time>2010-09-05T08:07:15Z</time>
      </trkpt>
      <trkpt lat="44.03943" lon="7.3317">
        <ele>1754.0600585938</ele>
        <time>2010-09-05T08:07:21Z</time>
      </trkpt>
      <trkpt lat="44.03942" lon="7.33171">
        <ele>1753.5799560547</ele>
        <time>2010-09-05T08:07:22Z</time>
      </trkpt>
      <trkpt lat="44.03938" lon="7.33184">
        <ele>1757.9100341797</ele>
        <time>2010-09-05T08:07:34Z</time>
      </trkpt>
      <trkpt lat="44.03929" lon="7.33195">
        <ele>1761.75</ele>
        <time>2010-09-05T08:07:46Z</time>
      </trkpt>
      <trkpt lat="44.03915" lon="7.33209">
        <ele>1764.6400146484</ele>
        <time>2010-09-05T08:07:59Z</time>
      </trkpt>
      <trkpt lat="44.03912" lon="7.33213">
        <ele>1766.0799560547</ele>
        <time>2010-09-05T08:08:03Z</time>
      </trkpt>
      <trkpt lat="44.0391" lon="7.33217">
        <ele>1767.5200195312</ele>
        <time>2010-09-05T08:08:08Z</time>
      </trkpt>
      <trkpt lat="44.0391" lon="7.33221">
        <ele>1769.4399414062</ele>
        <time>2010-09-05T08:08:13Z</time>
      </trkpt>
      <trkpt lat="44.03914" lon="7.33227">
        <ele>1770.8900146484</ele>
        <time>2010-09-05T08:08:21Z</time>
      </trkpt>
      <trkpt lat="44.03919" lon="7.33239">
        <ele>1774.25</ele>
        <time>2010-09-05T08:08:33Z</time>
      </trkpt>
      <trkpt lat="44.03926" lon="7.33249">
        <ele>1777.6099853516</ele>
        <time>2010-09-05T08:08:43Z</time>
      </trkpt>
      <trkpt lat="44.03927" lon="7.3325">
        <ele>1777.6099853516</ele>
        <time>2010-09-05T08:08:44Z</time>
      </trkpt>
      <trkpt lat="44.0393" lon="7.33252">
        <ele>1779.0600585938</ele>
        <time>2010-09-05T08:08:47Z</time>
      </trkpt>
      <trkpt lat="44.03933" lon="7.33256">
        <ele>1779.5400390625</ele>
        <time>2010-09-05T08:08:51Z</time>
      </trkpt>
      <trkpt lat="44.03939" lon="7.33258">
        <ele>1782.4200439453</ele>
        <time>2010-09-05T08:08:59Z</time>
      </trkpt>
      <trkpt lat="44.03946" lon="7.33261">
        <ele>1785.3100585938</ele>
        <time>2010-09-05T08:09:09Z</time>
      </trkpt>
      <trkpt lat="44.0395" lon="7.33261">
        <ele>1786.2700195312</ele>
        <time>2010-09-05T08:09:14Z</time>
      </trkpt>
      <trkpt lat="44.03957" lon="7.33265">
        <ele>1790.5899658203</ele>
        <time>2010-09-05T08:09:27Z</time>
      </trkpt>
      <trkpt lat="44.03958" lon="7.33266">
        <ele>1790.5899658203</ele>
        <time>2010-09-05T08:09:28Z</time>
      </trkpt>
      <trkpt lat="44.03963" lon="7.33271">
        <ele>1792.0300292969</ele>
        <time>2010-09-05T08:09:34Z</time>
      </trkpt>
      <trkpt lat="44.03972" lon="7.33274">
        <ele>1794.9200439453</ele>
        <time>2010-09-05T08:09:45Z</time>
      </trkpt>
      <trkpt lat="44.03978" lon="7.33275">
        <ele>1798.2800292969</ele>
        <time>2010-09-05T08:09:55Z</time>
      </trkpt>
      <trkpt lat="44.03985" lon="7.3328">
        <ele>1800.6899414062</ele>
        <time>2010-09-05T08:10:03Z</time>
      </trkpt>
      <trkpt lat="44.03993" lon="7.33286">
        <ele>1803.5699462891</ele>
        <time>2010-09-05T08:10:12Z</time>
      </trkpt>
      <trkpt lat="44.03998" lon="7.33289">
        <ele>1806.9399414062</ele>
        <time>2010-09-05T08:10:23Z</time>
      </trkpt>
      <trkpt lat="44.04003" lon="7.33292">
        <ele>1809.3399658203</ele>
        <time>2010-09-05T08:10:34Z</time>
      </trkpt>
      <trkpt lat="44.04008" lon="7.33296">
        <ele>1812.6999511719</ele>
        <time>2010-09-05T08:10:45Z</time>
      </trkpt>
      <trkpt lat="44.04018" lon="7.33301">
        <ele>1815.5899658203</ele>
        <time>2010-09-05T08:10:58Z</time>
      </trkpt>
      <trkpt lat="44.04026" lon="7.33306">
        <ele>1818.4699707031</ele>
        <time>2010-09-05T08:11:09Z</time>
      </trkpt>
      <trkpt lat="44.04033" lon="7.33311">
        <ele>1821.8399658203</ele>
        <time>2010-09-05T08:11:19Z</time>
      </trkpt>
      <trkpt lat="44.04042" lon="7.33318">
        <ele>1824.7199707031</ele>
        <time>2010-09-05T08:11:31Z</time>
      </trkpt>
      <trkpt lat="44.04048" lon="7.33323">
        <ele>1828.0799560547</ele>
        <time>2010-09-05T08:11:41Z</time>
      </trkpt>
      <trkpt lat="44.0405" lon="7.33324">
        <ele>1829.0500488281</ele>
        <time>2010-09-05T08:11:43Z</time>
      </trkpt>
      <trkpt lat="44.04061" lon="7.3333">
        <ele>1832.4100341797</ele>
        <time>2010-09-05T08:11:55Z</time>
      </trkpt>
      <trkpt lat="44.04075" lon="7.33333">
        <ele>1835.7700195312</ele>
        <time>2010-09-05T08:12:09Z</time>
      </trkpt>
      <trkpt lat="44.04087" lon="7.33335">
        <ele>1839.1400146484</ele>
        <time>2010-09-05T08:12:21Z</time>
      </trkpt>
      <trkpt lat="44.04087" lon="7.33335">
        <ele>1839.6199951172</ele>
        <time>2010-09-05T08:12:22Z</time>
      </trkpt>
      <trkpt lat="44.04098" lon="7.33339">
        <ele>1842.9799804688</ele>
        <time>2010-09-05T08:12:32Z</time>
      </trkpt>
      <trkpt lat="44.04102" lon="7.33341">
        <ele>1843.9499511719</ele>
        <time>2010-09-05T08:12:36Z</time>
      </trkpt>
      <trkpt lat="44.04113" lon="7.33353">
        <ele>1847.7900390625</ele>
        <time>2010-09-05T08:12:48Z</time>
      </trkpt>
      <trkpt lat="44.04124" lon="7.33356">
        <ele>1851.6400146484</ele>
        <time>2010-09-05T08:13:00Z</time>
      </trkpt>
      <trkpt lat="44.04131" lon="7.33355">
        <ele>1854.5200195312</ele>
        <time>2010-09-05T08:13:09Z</time>
      </trkpt>
      <trkpt lat="44.04132" lon="7.33355">
        <ele>1854.5200195312</ele>
        <time>2010-09-05T08:13:10Z</time>
      </trkpt>
      <trkpt lat="44.04144" lon="7.33361">
        <ele>1858.3699951172</ele>
        <time>2010-09-05T08:13:23Z</time>
      </trkpt>
      <trkpt lat="44.04161" lon="7.33374">
        <ele>1861.7299804688</ele>
        <time>2010-09-05T08:13:34Z</time>
      </trkpt>
      <trkpt lat="44.04169" lon="7.33377">
        <ele>1864.6099853516</ele>
        <time>2010-09-05T08:13:44Z</time>
      </trkpt>
      <trkpt lat="44.04177" lon="7.33393">
        <ele>1868.4599609375</ele>
        <time>2010-09-05T08:13:54Z</time>
      </trkpt>
      <trkpt lat="44.04187" lon="7.33403">
        <ele>1871.3399658203</ele>
        <time>2010-09-05T08:14:07Z</time>
      </trkpt>
      <trkpt lat="44.04201" lon="7.33416">
        <ele>1874.7099609375</ele>
        <time>2010-09-05T08:14:21Z</time>
      </trkpt>
      <trkpt lat="44.04202" lon="7.33417">
        <ele>1875.1899414062</ele>
        <time>2010-09-05T08:14:22Z</time>
      </trkpt>
      <trkpt lat="44.04211" lon="7.33426">
        <ele>1878.5500488281</ele>
        <time>2010-09-05T08:14:30Z</time>
      </trkpt>
      <trkpt lat="44.04212" lon="7.33427">
        <ele>1878.0699462891</ele>
        <time>2010-09-05T08:14:31Z</time>
      </trkpt>
      <trkpt lat="44.04219" lon="7.33435">
        <ele>1881.4399414062</ele>
        <time>2010-09-05T08:14:42Z</time>
      </trkpt>
      <trkpt lat="44.04233" lon="7.33457">
        <ele>1884.3199462891</ele>
        <time>2010-09-05T08:14:57Z</time>
      </trkpt>
      <trkpt lat="44.04241" lon="7.33473">
        <ele>1887.2099609375</ele>
        <time>2010-09-05T08:15:10Z</time>
      </trkpt>
      <trkpt lat="44.04238" lon="7.33479">
        <ele>1888.1700439453</ele>
        <time>2010-09-05T08:15:15Z</time>
      </trkpt>
      <trkpt lat="44.04236" lon="7.33483">
        <ele>1889.1300048828</ele>
        <time>2010-09-05T08:15:17Z</time>
      </trkpt>
      <trkpt lat="44.04224" lon="7.33494">
        <ele>1890.0899658203</ele>
        <time>2010-09-05T08:15:25Z</time>
      </trkpt>
      <trkpt lat="44.04211" lon="7.33504">
        <ele>1893.9300537109</ele>
        <time>2010-09-05T08:15:38Z</time>
      </trkpt>
      <trkpt lat="44.04196" lon="7.33514">
        <ele>1897.3000488281</ele>
        <time>2010-09-05T08:15:50Z</time>
      </trkpt>
      <trkpt lat="44.04189" lon="7.33524">
        <ele>1899.6999511719</ele>
        <time>2010-09-05T08:16:00Z</time>
      </trkpt>
      <trkpt lat="44.0419" lon="7.3353">
        <ele>1901.6300048828</ele>
        <time>2010-09-05T08:16:06Z</time>
      </trkpt>
      <trkpt lat="44.04191" lon="7.33533">
        <ele>1902.5899658203</ele>
        <time>2010-09-05T08:16:09Z</time>
      </trkpt>
      <trkpt lat="44.04188" lon="7.33543">
        <ele>1904.5100097656</ele>
        <time>2010-09-05T08:16:17Z</time>
      </trkpt>
      <trkpt lat="44.04184" lon="7.33546">
        <ele>1906.4300537109</ele>
        <time>2010-09-05T08:16:21Z</time>
      </trkpt>
      <trkpt lat="44.04176" lon="7.33547">
        <ele>1907.3900146484</ele>
        <time>2010-09-05T08:16:27Z</time>
      </trkpt>
      <trkpt lat="44.04158" lon="7.33547">
        <ele>1909.8000488281</ele>
        <time>2010-09-05T08:16:35Z</time>
      </trkpt>
      <trkpt lat="44.04133" lon="7.33558">
        <ele>1910.7600097656</ele>
        <time>2010-09-05T08:16:46Z</time>
      </trkpt>
      <trkpt lat="44.04114" lon="7.33575">
        <ele>1913.1600341797</ele>
        <time>2010-09-05T08:16:57Z</time>
      </trkpt>
      <trkpt lat="44.04115" lon="7.33584">
        <ele>1914.1199951172</ele>
        <time>2010-09-05T08:17:02Z</time>
      </trkpt>
      <trkpt lat="44.04118" lon="7.33589">
        <ele>1914.5999755859</ele>
        <time>2010-09-05T08:17:05Z</time>
      </trkpt>
      <trkpt lat="44.04123" lon="7.33592">
        <ele>1916.0400390625</ele>
        <time>2010-09-05T08:17:10Z</time>
      </trkpt>
      <trkpt lat="44.04136" lon="7.33605">
        <ele>1917.9699707031</ele>
        <time>2010-09-05T08:17:23Z</time>
      </trkpt>
      <trkpt lat="44.04154" lon="7.33629">
        <ele>1920.3699951172</ele>
        <time>2010-09-05T08:17:40Z</time>
      </trkpt>
      <trkpt lat="44.04163" lon="7.33637">
        <ele>1923.7399902344</ele>
        <time>2010-09-05T08:17:49Z</time>
      </trkpt>
      <trkpt lat="44.04168" lon="7.33639">
        <ele>1923.7399902344</ele>
        <time>2010-09-05T08:17:53Z</time>
      </trkpt>
      <trkpt lat="44.04182" lon="7.33663">
        <ele>1927.5799560547</ele>
        <time>2010-09-05T08:18:10Z</time>
      </trkpt>
      <trkpt lat="44.04187" lon="7.33672">
        <ele>1929.9799804688</ele>
        <time>2010-09-05T08:18:17Z</time>
      </trkpt>
      <trkpt lat="44.04192" lon="7.33675">
        <ele>1934.3100585938</ele>
        <time>2010-09-05T08:18:22Z</time>
      </trkpt>
      <trkpt lat="44.04197" lon="7.33681">
        <ele>1932.3900146484</ele>
        <time>2010-09-05T08:18:29Z</time>
      </trkpt>
      <trkpt lat="44.04202" lon="7.33684">
        <ele>1933.8299560547</ele>
        <time>2010-09-05T08:18:33Z</time>
      </trkpt>
      <trkpt lat="44.0421" lon="7.33698">
        <ele>1937.6700439453</ele>
        <time>2010-09-05T08:18:43Z</time>
      </trkpt>
      <trkpt lat="44.04214" lon="7.33701">
        <ele>1938.1600341797</ele>
        <time>2010-09-05T08:18:47Z</time>
      </trkpt>
      <trkpt lat="44.04222" lon="7.33713">
        <ele>1941.0400390625</ele>
        <time>2010-09-05T08:18:58Z</time>
      </trkpt>
      <trkpt lat="44.04232" lon="7.33721">
        <ele>1944.4000244141</ele>
        <time>2010-09-05T08:19:07Z</time>
      </trkpt>
      <trkpt lat="44.04233" lon="7.33721">
        <ele>1944.4000244141</ele>
        <time>2010-09-05T08:19:08Z</time>
      </trkpt>
      <trkpt lat="44.04247" lon="7.33734">
        <ele>1948.25</ele>
        <time>2010-09-05T08:19:23Z</time>
      </trkpt>
      <trkpt lat="44.04249" lon="7.33736">
        <ele>1949.2099609375</ele>
        <time>2010-09-05T08:19:26Z</time>
      </trkpt>
      <trkpt lat="44.0425" lon="7.33738">
        <ele>1949.6899414062</ele>
        <time>2010-09-05T08:19:28Z</time>
      </trkpt>
      <trkpt lat="44.04258" lon="7.33741">
        <ele>1953.0600585938</ele>
        <time>2010-09-05T08:19:38Z</time>
      </trkpt>
      <trkpt lat="44.04268" lon="7.3375">
        <ele>1956.4200439453</ele>
        <time>2010-09-05T08:19:51Z</time>
      </trkpt>
      <trkpt lat="44.04276" lon="7.33758">
        <ele>1959.7800292969</ele>
        <time>2010-09-05T08:20:03Z</time>
      </trkpt>
      <trkpt lat="44.04277" lon="7.33758">
        <ele>1960.2700195312</ele>
        <time>2010-09-05T08:20:04Z</time>
      </trkpt>
      <trkpt lat="44.04286" lon="7.33768">
        <ele>1963.6300048828</ele>
        <time>2010-09-05T08:20:17Z</time>
      </trkpt>
      <trkpt lat="44.04294" lon="7.33774">
        <ele>1966.9899902344</ele>
        <time>2010-09-05T08:20:28Z</time>
      </trkpt>
      <trkpt lat="44.04296" lon="7.33776">
        <ele>1967.4799804688</ele>
        <time>2010-09-05T08:20:31Z</time>
      </trkpt>
      <trkpt lat="44.04311" lon="7.33775">
        <ele>1969.4000244141</ele>
        <time>2010-09-05T08:20:44Z</time>
      </trkpt>
      <trkpt lat="44.04317" lon="7.33776">
        <ele>1971.3199462891</ele>
        <time>2010-09-05T08:20:52Z</time>
      </trkpt>
      <trkpt lat="44.04327" lon="7.33785">
        <ele>1975.1700439453</ele>
        <time>2010-09-05T08:21:04Z</time>
      </trkpt>
      <trkpt lat="44.04327" lon="7.33786">
        <ele>1975.1700439453</ele>
        <time>2010-09-05T08:21:05Z</time>
      </trkpt>
      <trkpt lat="44.04332" lon="7.3379">
        <ele>1977.0899658203</ele>
        <time>2010-09-05T08:21:11Z</time>
      </trkpt>
      <trkpt lat="44.04333" lon="7.3379">
        <ele>1977.0899658203</ele>
        <time>2010-09-05T08:21:13Z</time>
      </trkpt>
      <trkpt lat="44.04341" lon="7.33794">
        <ele>1979.4899902344</ele>
        <time>2010-09-05T08:21:22Z</time>
      </trkpt>
      <trkpt lat="44.04346" lon="7.338">
        <ele>1982.3800048828</ele>
        <time>2010-09-05T08:21:32Z</time>
      </trkpt>
      <trkpt lat="44.04353" lon="7.33804">
        <ele>1986.2199707031</ele>
        <time>2010-09-05T08:21:43Z</time>
      </trkpt>
      <trkpt lat="44.04359" lon="7.3381">
        <ele>1988.1400146484</ele>
        <time>2010-09-05T08:21:54Z</time>
      </trkpt>
      <trkpt lat="44.04361" lon="7.33811">
        <ele>1989.5899658203</ele>
        <time>2010-09-05T08:21:56Z</time>
      </trkpt>
      <trkpt lat="44.04364" lon="7.33812">
        <ele>1990.0699462891</ele>
        <time>2010-09-05T08:22:01Z</time>
      </trkpt>
      <trkpt lat="44.04368" lon="7.33811">
        <ele>1991.5100097656</ele>
        <time>2010-09-05T08:22:05Z</time>
      </trkpt>
      <trkpt lat="44.04374" lon="7.33819">
        <ele>1994.8699951172</ele>
        <time>2010-09-05T08:22:16Z</time>
      </trkpt>
      <trkpt lat="44.04385" lon="7.33822">
        <ele>1998.7199707031</ele>
        <time>2010-09-05T08:22:32Z</time>
      </trkpt>
      <trkpt lat="44.0439" lon="7.33833">
        <ele>2002.0799560547</ele>
        <time>2010-09-05T08:22:42Z</time>
      </trkpt>
      <trkpt lat="44.04396" lon="7.33838">
        <ele>2004.4899902344</ele>
        <time>2010-09-05T08:22:55Z</time>
      </trkpt>
      <trkpt lat="44.04402" lon="7.33843">
        <ele>2007.3699951172</ele>
        <time>2010-09-05T08:23:04Z</time>
      </trkpt>
      <trkpt lat="44.04404" lon="7.33843">
        <ele>2006.8900146484</ele>
        <time>2010-09-05T08:23:06Z</time>
      </trkpt>
      <trkpt lat="44.04408" lon="7.33844">
        <ele>2009.2900390625</ele>
        <time>2010-09-05T08:23:11Z</time>
      </trkpt>
      <trkpt lat="44.04409" lon="7.33849">
        <ele>2009.7700195312</ele>
        <time>2010-09-05T08:23:15Z</time>
      </trkpt>
      <trkpt lat="44.04408" lon="7.33852">
        <ele>2011.2199707031</ele>
        <time>2010-09-05T08:23:18Z</time>
      </trkpt>
      <trkpt lat="44.04409" lon="7.33864">
        <ele>2014.5799560547</ele>
        <time>2010-09-05T08:23:29Z</time>
      </trkpt>
      <trkpt lat="44.04417" lon="7.33871">
        <ele>2017.9399414062</ele>
        <time>2010-09-05T08:23:41Z</time>
      </trkpt>
      <trkpt lat="44.04425" lon="7.3388">
        <ele>2020.8299560547</ele>
        <time>2010-09-05T08:23:54Z</time>
      </trkpt>
      <trkpt lat="44.0443" lon="7.33882">
        <ele>2023.2299804688</ele>
        <time>2010-09-05T08:24:02Z</time>
      </trkpt>
      <trkpt lat="44.04434" lon="7.33884">
        <ele>2025.1500244141</ele>
        <time>2010-09-05T08:24:08Z</time>
      </trkpt>
      <trkpt lat="44.04436" lon="7.3389">
        <ele>2026.1199951172</ele>
        <time>2010-09-05T08:24:14Z</time>
      </trkpt>
      <trkpt lat="44.04436" lon="7.33896">
        <ele>2027.0799560547</ele>
        <time>2010-09-05T08:24:18Z</time>
      </trkpt>
      <trkpt lat="44.0444" lon="7.33909">
        <ele>2030.4399414062</ele>
        <time>2010-09-05T08:24:29Z</time>
      </trkpt>
      <trkpt lat="44.04441" lon="7.33911">
        <ele>2030.4399414062</ele>
        <time>2010-09-05T08:24:31Z</time>
      </trkpt>
      <trkpt lat="44.04448" lon="7.33928">
        <ele>2032.3599853516</ele>
        <time>2010-09-05T08:24:43Z</time>
      </trkpt>
      <trkpt lat="44.04452" lon="7.33937">
        <ele>2033.3299560547</ele>
        <time>2010-09-05T08:24:49Z</time>
      </trkpt>
      <trkpt lat="44.0447" lon="7.33961">
        <ele>2037.6500244141</ele>
        <time>2010-09-05T08:25:04Z</time>
      </trkpt>
      <trkpt lat="44.04477" lon="7.33965">
        <ele>2038.6099853516</ele>
        <time>2010-09-05T08:25:08Z</time>
      </trkpt>
      <trkpt lat="44.04485" lon="7.33971">
        <ele>2039.5699462891</ele>
        <time>2010-09-05T08:25:15Z</time>
      </trkpt>
      <trkpt lat="44.04504" lon="7.33975">
        <ele>2042.4599609375</ele>
        <time>2010-09-05T08:25:31Z</time>
      </trkpt>
      <trkpt lat="44.04526" lon="7.33992">
        <ele>2044.8599853516</ele>
        <time>2010-09-05T08:25:50Z</time>
      </trkpt>
      <trkpt lat="44.04557" lon="7.34019">
        <ele>2044.8599853516</ele>
        <time>2010-09-05T08:26:04Z</time>
      </trkpt>
      <trkpt lat="44.04575" lon="7.34036">
        <ele>2047.75</ele>
        <time>2010-09-05T08:26:13Z</time>
      </trkpt>
      <trkpt lat="44.04599" lon="7.34055">
        <ele>2051.1101074219</ele>
        <time>2010-09-05T08:26:25Z</time>
      </trkpt>
      <trkpt lat="44.04625" lon="7.34076">
        <ele>2052.5500488281</ele>
        <time>2010-09-05T08:26:38Z</time>
      </trkpt>
      <trkpt lat="44.04641" lon="7.34093">
        <ele>2054.9599609375</ele>
        <time>2010-09-05T08:26:47Z</time>
      </trkpt>
      <trkpt lat="44.04653" lon="7.34108">
        <ele>2057.3601074219</ele>
        <time>2010-09-05T08:26:54Z</time>
      </trkpt>
      <trkpt lat="44.04666" lon="7.34118">
        <ele>2060.2399902344</ele>
        <time>2010-09-05T08:27:05Z</time>
      </trkpt>
      <trkpt lat="44.0468" lon="7.34131">
        <ele>2063.1298828125</ele>
        <time>2010-09-05T08:27:18Z</time>
      </trkpt>
      <trkpt lat="44.04704" lon="7.3415">
        <ele>2065.5300292969</ele>
        <time>2010-09-05T08:27:32Z</time>
      </trkpt>
      <trkpt lat="44.04723" lon="7.34163">
        <ele>2068.4099121094</ele>
        <time>2010-09-05T08:27:46Z</time>
      </trkpt>
      <trkpt lat="44.04742" lon="7.34175">
        <ele>2072.2600097656</ele>
        <time>2010-09-05T08:28:04Z</time>
      </trkpt>
      <trkpt lat="44.04762" lon="7.34184">
        <ele>2076.1000976562</ele>
        <time>2010-09-05T08:28:21Z</time>
      </trkpt>
      <trkpt lat="44.04781" lon="7.34193">
        <ele>2078.5100097656</ele>
        <time>2010-09-05T08:28:37Z</time>
      </trkpt>
      <trkpt lat="44.048" lon="7.34197">
        <ele>2081.8701171875</ele>
        <time>2010-09-05T08:28:52Z</time>
      </trkpt>
      <trkpt lat="44.04815" lon="7.34201">
        <ele>2084.7600097656</ele>
        <time>2010-09-05T08:29:02Z</time>
      </trkpt>
      <trkpt lat="44.0485" lon="7.34212">
        <ele>2084.7600097656</ele>
        <time>2010-09-05T08:29:16Z</time>
      </trkpt>
      <trkpt lat="44.04887" lon="7.34221">
        <ele>2084.2800292969</ele>
        <time>2010-09-05T08:29:29Z</time>
      </trkpt>
      <trkpt lat="44.04922" lon="7.34235">
        <ele>2083.7900390625</ele>
        <time>2010-09-05T08:29:42Z</time>
      </trkpt>
      <trkpt lat="44.04953" lon="7.34248">
        <ele>2085.2399902344</ele>
        <time>2010-09-05T08:29:55Z</time>
      </trkpt>
      <trkpt lat="44.04973" lon="7.34259">
        <ele>2087.6398925781</ele>
        <time>2010-09-05T08:30:08Z</time>
      </trkpt>
      <trkpt lat="44.05004" lon="7.34271">
        <ele>2089.5600585938</ele>
        <time>2010-09-05T08:30:23Z</time>
      </trkpt>
      <trkpt lat="44.0503" lon="7.34286">
        <ele>2091</ele>
        <time>2010-09-05T08:30:42Z</time>
      </trkpt>
      <trkpt lat="44.05056" lon="7.34299">
        <ele>2093.8898925781</ele>
        <time>2010-09-05T08:31:02Z</time>
      </trkpt>
      <trkpt lat="44.05068" lon="7.34309">
        <ele>2096.7700195312</ele>
        <time>2010-09-05T08:31:13Z</time>
      </trkpt>
      <trkpt lat="44.05079" lon="7.34317">
        <ele>2100.1398925781</ele>
        <time>2010-09-05T08:31:22Z</time>
      </trkpt>
      <trkpt lat="44.0508" lon="7.34318">
        <ele>2099.6599121094</ele>
        <time>2010-09-05T08:31:23Z</time>
      </trkpt>
      <trkpt lat="44.05092" lon="7.34326">
        <ele>2103.0200195312</ele>
        <time>2010-09-05T08:31:35Z</time>
      </trkpt>
      <trkpt lat="44.05093" lon="7.34327">
        <ele>2103.5</ele>
        <time>2010-09-05T08:31:37Z</time>
      </trkpt>
      <trkpt lat="44.05102" lon="7.34334">
        <ele>2106.3898925781</ele>
        <time>2010-09-05T08:31:48Z</time>
      </trkpt>
      <trkpt lat="44.0511" lon="7.34339">
        <ele>2109.75</ele>
        <time>2010-09-05T08:31:58Z</time>
      </trkpt>
      <trkpt lat="44.05121" lon="7.34344">
        <ele>2113.1201171875</ele>
        <time>2010-09-05T08:32:11Z</time>
      </trkpt>
      <trkpt lat="44.0513" lon="7.34347">
        <ele>2116</ele>
        <time>2010-09-05T08:32:21Z</time>
      </trkpt>
      <trkpt lat="44.05136" lon="7.34351">
        <ele>2117.4399414062</ele>
        <time>2010-09-05T08:32:28Z</time>
      </trkpt>
      <trkpt lat="44.05145" lon="7.34359">
        <ele>2120.3200683594</ele>
        <time>2010-09-05T08:32:40Z</time>
      </trkpt>
      <trkpt lat="44.05155" lon="7.34367">
        <ele>2123.6899414062</ele>
        <time>2010-09-05T08:32:52Z</time>
      </trkpt>
      <trkpt lat="44.05165" lon="7.34375">
        <ele>2126.5700683594</ele>
        <time>2010-09-05T08:33:05Z</time>
      </trkpt>
      <trkpt lat="44.05175" lon="7.3438">
        <ele>2129.9399414062</ele>
        <time>2010-09-05T08:33:16Z</time>
      </trkpt>
      <trkpt lat="44.05183" lon="7.34387">
        <ele>2133.7800292969</ele>
        <time>2010-09-05T08:33:28Z</time>
      </trkpt>
      <trkpt lat="44.05193" lon="7.34399">
        <ele>2136.669921875</ele>
        <time>2010-09-05T08:33:44Z</time>
      </trkpt>
      <trkpt lat="44.05198" lon="7.34404">
        <ele>2140.5100097656</ele>
        <time>2010-09-05T08:33:54Z</time>
      </trkpt>
      <trkpt lat="44.05203" lon="7.3441">
        <ele>2143.3999023438</ele>
        <time>2010-09-05T08:34:04Z</time>
      </trkpt>
      <trkpt lat="44.0521" lon="7.34418">
        <ele>2146.7600097656</ele>
        <time>2010-09-05T08:34:18Z</time>
      </trkpt>
      <trkpt lat="44.05216" lon="7.34426">
        <ele>2150.1298828125</ele>
        <time>2010-09-05T08:34:31Z</time>
      </trkpt>
      <trkpt lat="44.0522" lon="7.34431">
        <ele>2152.0500488281</ele>
        <time>2010-09-05T08:34:39Z</time>
      </trkpt>
      <trkpt lat="44.05227" lon="7.34441">
        <ele>2155.4099121094</ele>
        <time>2010-09-05T08:34:52Z</time>
      </trkpt>
      <trkpt lat="44.05233" lon="7.3445">
        <ele>2158.7800292969</ele>
        <time>2010-09-05T08:35:04Z</time>
      </trkpt>
      <trkpt lat="44.05239" lon="7.34457">
        <ele>2161.6599121094</ele>
        <time>2010-09-05T08:35:16Z</time>
      </trkpt>
      <trkpt lat="44.05246" lon="7.34467">
        <ele>2165.5100097656</ele>
        <time>2010-09-05T08:35:31Z</time>
      </trkpt>
      <trkpt lat="44.05254" lon="7.34471">
        <ele>2168.3898925781</ele>
        <time>2010-09-05T08:35:44Z</time>
      </trkpt>
      <trkpt lat="44.05255" lon="7.34473">
        <ele>2169.3500976562</ele>
        <time>2010-09-05T08:35:46Z</time>
      </trkpt>
      <trkpt lat="44.05262" lon="7.34481">
        <ele>2171.2700195312</ele>
        <time>2010-09-05T08:35:57Z</time>
      </trkpt>
      <trkpt lat="44.05272" lon="7.34491">
        <ele>2175.6000976562</ele>
        <time>2010-09-05T08:36:11Z</time>
      </trkpt>
      <trkpt lat="44.0528" lon="7.34501">
        <ele>2178.9699707031</ele>
        <time>2010-09-05T08:36:23Z</time>
      </trkpt>
      <trkpt lat="44.0528" lon="7.34501">
        <ele>2178.9699707031</ele>
        <time>2010-09-05T08:36:24Z</time>
      </trkpt>
      <trkpt lat="44.05287" lon="7.34509">
        <ele>2182.330078125</ele>
        <time>2010-09-05T08:36:37Z</time>
      </trkpt>
      <trkpt lat="44.05297" lon="7.34516">
        <ele>2185.6899414062</ele>
        <time>2010-09-05T08:36:50Z</time>
      </trkpt>
      <trkpt lat="44.05305" lon="7.34525">
        <ele>2188.580078125</ele>
        <time>2010-09-05T08:37:03Z</time>
      </trkpt>
      <trkpt lat="44.05315" lon="7.34538">
        <ele>2191.9399414062</ele>
        <time>2010-09-05T08:37:16Z</time>
      </trkpt>
      <trkpt lat="44.05323" lon="7.34547">
        <ele>2195.7900390625</ele>
        <time>2010-09-05T08:37:30Z</time>
      </trkpt>
      <trkpt lat="44.05329" lon="7.34555">
        <ele>2198.669921875</ele>
        <time>2010-09-05T08:37:42Z</time>
      </trkpt>
      <trkpt lat="44.05338" lon="7.34562">
        <ele>2201.5600585938</ele>
        <time>2010-09-05T08:37:54Z</time>
      </trkpt>
      <trkpt lat="44.05345" lon="7.34568">
        <ele>2204.4399414062</ele>
        <time>2010-09-05T08:38:07Z</time>
      </trkpt>
      <trkpt lat="44.05352" lon="7.34576">
        <ele>2207.8100585938</ele>
        <time>2010-09-05T08:38:20Z</time>
      </trkpt>
      <trkpt lat="44.05357" lon="7.34583">
        <ele>2211.6499023438</ele>
        <time>2010-09-05T08:38:31Z</time>
      </trkpt>
      <trkpt lat="44.05364" lon="7.34594">
        <ele>2214.5300292969</ele>
        <time>2010-09-05T08:38:45Z</time>
      </trkpt>
      <trkpt lat="44.05367" lon="7.34604">
        <ele>2217.419921875</ele>
        <time>2010-09-05T08:38:56Z</time>
      </trkpt>
      <trkpt lat="44.05373" lon="7.34612">
        <ele>2219.8200683594</ele>
        <time>2010-09-05T08:39:08Z</time>
      </trkpt>
      <trkpt lat="44.05373" lon="7.34613">
        <ele>2219.8200683594</ele>
        <time>2010-09-05T08:39:10Z</time>
      </trkpt>
      <trkpt lat="44.05375" lon="7.34614">
        <ele>2221.7399902344</ele>
        <time>2010-09-05T08:39:12Z</time>
      </trkpt>
      <trkpt lat="44.05376" lon="7.34618">
        <ele>2222.2199707031</ele>
        <time>2010-09-05T08:39:16Z</time>
      </trkpt>
      <trkpt lat="44.05383" lon="7.34629">
        <ele>2224.6298828125</ele>
        <time>2010-09-05T08:39:28Z</time>
      </trkpt>
      <trkpt lat="44.05387" lon="7.34635">
        <ele>2227.5100097656</ele>
        <time>2010-09-05T08:39:38Z</time>
      </trkpt>
      <trkpt lat="44.05387" lon="7.34636">
        <ele>2227.9899902344</ele>
        <time>2010-09-05T08:39:39Z</time>
      </trkpt>
      <trkpt lat="44.05392" lon="7.3464">
        <ele>2231.3601074219</ele>
        <time>2010-09-05T08:39:51Z</time>
      </trkpt>
      <trkpt lat="44.05397" lon="7.34647">
        <ele>2231.8400878906</ele>
        <time>2010-09-05T08:39:59Z</time>
      </trkpt>
      <trkpt lat="44.05405" lon="7.34656">
        <ele>2236.1599121094</ele>
        <time>2010-09-05T08:40:13Z</time>
      </trkpt>
      <trkpt lat="44.05412" lon="7.34666">
        <ele>2239.0500488281</ele>
        <time>2010-09-05T08:40:28Z</time>
      </trkpt>
      <trkpt lat="44.05413" lon="7.34668">
        <ele>2239.5300292969</ele>
        <time>2010-09-05T08:40:30Z</time>
      </trkpt>
      <trkpt lat="44.05421" lon="7.3468">
        <ele>2241.9299316406</ele>
        <time>2010-09-05T08:40:43Z</time>
      </trkpt>
      <trkpt lat="44.05427" lon="7.3469">
        <ele>2244.330078125</ele>
        <time>2010-09-05T08:40:55Z</time>
      </trkpt>
      <trkpt lat="44.05428" lon="7.34691">
        <ele>2244.8200683594</ele>
        <time>2010-09-05T08:40:56Z</time>
      </trkpt>
      <trkpt lat="44.05431" lon="7.34696">
        <ele>2246.7399902344</ele>
        <time>2010-09-05T08:41:07Z</time>
      </trkpt>
      <trkpt lat="44.05437" lon="7.34697">
        <ele>2248.6599121094</ele>
        <time>2010-09-05T08:41:16Z</time>
      </trkpt>
      <trkpt lat="44.05447" lon="7.34711">
        <ele>2252.0300292969</ele>
        <time>2010-09-05T08:41:31Z</time>
      </trkpt>
      <trkpt lat="44.05448" lon="7.34714">
        <ele>2252.0300292969</ele>
        <time>2010-09-05T08:41:34Z</time>
      </trkpt>
      <trkpt lat="44.05452" lon="7.3472">
        <ele>2253.9499511719</ele>
        <time>2010-09-05T08:41:42Z</time>
      </trkpt>
      <trkpt lat="44.05455" lon="7.34723">
        <ele>2255.3898925781</ele>
        <time>2010-09-05T08:41:48Z</time>
      </trkpt>
      <trkpt lat="44.0546" lon="7.34735">
        <ele>2257.7900390625</ele>
        <time>2010-09-05T08:42:00Z</time>
      </trkpt>
      <trkpt lat="44.05461" lon="7.34736">
        <ele>2258.75</ele>
        <time>2010-09-05T08:42:01Z</time>
      </trkpt>
      <trkpt lat="44.05465" lon="7.34739">
        <ele>2260.1999511719</ele>
        <time>2010-09-05T08:42:07Z</time>
      </trkpt>
      <trkpt lat="44.05472" lon="7.34736">
        <ele>2261.6398925781</ele>
        <time>2010-09-05T08:42:20Z</time>
      </trkpt>
      <trkpt lat="44.0548" lon="7.34737">
        <ele>2262.1201171875</ele>
        <time>2010-09-05T08:42:31Z</time>
      </trkpt>
      <trkpt lat="44.05505" lon="7.34748">
        <ele>2264.0400390625</ele>
        <time>2010-09-05T08:42:42Z</time>
      </trkpt>
      <trkpt lat="44.05531" lon="7.34764">
        <ele>2265.4799804688</ele>
        <time>2010-09-05T08:42:55Z</time>
      </trkpt>
      <trkpt lat="44.05545" lon="7.34777">
        <ele>2269.330078125</ele>
        <time>2010-09-05T08:43:09Z</time>
      </trkpt>
      <trkpt lat="44.0555" lon="7.34784">
        <ele>2270.7700195312</ele>
        <time>2010-09-05T08:43:16Z</time>
      </trkpt>
      <trkpt lat="44.05552" lon="7.34786">
        <ele>2270.7700195312</ele>
        <time>2010-09-05T08:43:19Z</time>
      </trkpt>
      <trkpt lat="44.05553" lon="7.34788">
        <ele>2272.2099609375</ele>
        <time>2010-09-05T08:43:21Z</time>
      </trkpt>
      <trkpt lat="44.05557" lon="7.34792">
        <ele>2272.2099609375</ele>
        <time>2010-09-05T08:43:26Z</time>
      </trkpt>
      <trkpt lat="44.0556" lon="7.34795">
        <ele>2273.6599121094</ele>
        <time>2010-09-05T08:43:29Z</time>
      </trkpt>
      <trkpt lat="44.05568" lon="7.34803">
        <ele>2277.0200195312</ele>
        <time>2010-09-05T08:43:39Z</time>
      </trkpt>
      <trkpt lat="44.05574" lon="7.3481">
        <ele>2280.3798828125</ele>
        <time>2010-09-05T08:43:52Z</time>
      </trkpt>
      <trkpt lat="44.05576" lon="7.34813">
        <ele>2279.8999023438</ele>
        <time>2010-09-05T08:43:55Z</time>
      </trkpt>
      <trkpt lat="44.05586" lon="7.34825">
        <ele>2284.2299804688</ele>
        <time>2010-09-05T08:44:09Z</time>
      </trkpt>
      <trkpt lat="44.05592" lon="7.34832">
        <ele>2287.1101074219</ele>
        <time>2010-09-05T08:44:20Z</time>
      </trkpt>
      <trkpt lat="44.05598" lon="7.34839">
        <ele>2290.9599609375</ele>
        <time>2010-09-05T08:44:32Z</time>
      </trkpt>
      <trkpt lat="44.056" lon="7.34842">
        <ele>2291.4399414062</ele>
        <time>2010-09-05T08:44:36Z</time>
      </trkpt>
      <trkpt lat="44.05603" lon="7.3485">
        <ele>2294.3200683594</ele>
        <time>2010-09-05T08:44:46Z</time>
      </trkpt>
      <trkpt lat="44.05603" lon="7.34852">
        <ele>2294.8000488281</ele>
        <time>2010-09-05T08:44:48Z</time>
      </trkpt>
      <trkpt lat="44.05607" lon="7.34864">
        <ele>2297.6899414062</ele>
        <time>2010-09-05T08:44:59Z</time>
      </trkpt>
      <trkpt lat="44.05608" lon="7.34865">
        <ele>2297.2099609375</ele>
        <time>2010-09-05T08:45:00Z</time>
      </trkpt>
      <trkpt lat="44.05611" lon="7.34873">
        <ele>2300.5700683594</ele>
        <time>2010-09-05T08:45:12Z</time>
      </trkpt>
      <trkpt lat="44.05615" lon="7.34885">
        <ele>2302.9799804688</ele>
        <time>2010-09-05T08:45:23Z</time>
      </trkpt>
      <trkpt lat="44.0562" lon="7.34895">
        <ele>2306.8200683594</ele>
        <time>2010-09-05T08:45:36Z</time>
      </trkpt>
      <trkpt lat="44.05624" lon="7.34903">
        <ele>2309.2199707031</ele>
        <time>2010-09-05T08:45:46Z</time>
      </trkpt>
      <trkpt lat="44.05629" lon="7.34903">
        <ele>2313.0700683594</ele>
        <time>2010-09-05T08:45:55Z</time>
      </trkpt>
      <trkpt lat="44.0563" lon="7.34903">
        <ele>2312.5900878906</ele>
        <time>2010-09-05T08:45:56Z</time>
      </trkpt>
      <trkpt lat="44.05632" lon="7.34913">
        <ele>2314.5100097656</ele>
        <time>2010-09-05T08:46:10Z</time>
      </trkpt>
      <trkpt lat="44.05629" lon="7.34927">
        <ele>2318.3601074219</ele>
        <time>2010-09-05T08:46:24Z</time>
      </trkpt>
      <trkpt lat="44.0563" lon="7.34935">
        <ele>2319.8000488281</ele>
        <time>2010-09-05T08:46:31Z</time>
      </trkpt>
      <trkpt lat="44.05631" lon="7.34939">
        <ele>2320.2800292969</ele>
        <time>2010-09-05T08:46:34Z</time>
      </trkpt>
      <trkpt lat="44.05637" lon="7.34957">
        <ele>2321.2399902344</ele>
        <time>2010-09-05T08:46:47Z</time>
      </trkpt>
      <trkpt lat="44.05638" lon="7.34961">
        <ele>2322.6799316406</ele>
        <time>2010-09-05T08:46:50Z</time>
      </trkpt>
      <trkpt lat="44.05635" lon="7.34971">
        <ele>2326.0500488281</ele>
        <time>2010-09-05T08:46:58Z</time>
      </trkpt>
      <trkpt lat="44.05634" lon="7.34972">
        <ele>2323.6398925781</ele>
        <time>2010-09-05T08:46:59Z</time>
      </trkpt>
      <trkpt lat="44.05634" lon="7.34974">
        <ele>2323.1599121094</ele>
        <time>2010-09-05T08:47:01Z</time>
      </trkpt>
      <trkpt lat="44.05636" lon="7.34985">
        <ele>2322.6799316406</ele>
        <time>2010-09-05T08:47:08Z</time>
      </trkpt>
      <trkpt lat="44.0564" lon="7.35009">
        <ele>2326.5300292969</ele>
        <time>2010-09-05T08:47:25Z</time>
      </trkpt>
      <trkpt lat="44.0564" lon="7.35024">
        <ele>2325.0900878906</ele>
        <time>2010-09-05T08:47:36Z</time>
      </trkpt>
      <trkpt lat="44.05637" lon="7.35033">
        <ele>2325.0900878906</ele>
        <time>2010-09-05T08:47:42Z</time>
      </trkpt>
      <trkpt lat="44.05635" lon="7.35053">
        <ele>2325.5700683594</ele>
        <time>2010-09-05T08:47:55Z</time>
      </trkpt>
      <trkpt lat="44.05635" lon="7.35056">
        <ele>2326.5300292969</ele>
        <time>2010-09-05T08:47:57Z</time>
      </trkpt>
      <trkpt lat="44.05635" lon="7.35067">
        <ele>2327.4899902344</ele>
        <time>2010-09-05T08:48:05Z</time>
      </trkpt>
      <trkpt lat="44.05637" lon="7.3509">
        <ele>2328.4499511719</ele>
        <time>2010-09-05T08:48:19Z</time>
      </trkpt>
      <trkpt lat="44.05637" lon="7.35091">
        <ele>2328.9299316406</ele>
        <time>2010-09-05T08:48:20Z</time>
      </trkpt>
      <trkpt lat="44.05638" lon="7.35095">
        <ele>2329.8898925781</ele>
        <time>2010-09-05T08:48:22Z</time>
      </trkpt>
      <trkpt lat="44.05635" lon="7.35105">
        <ele>2329.4099121094</ele>
        <time>2010-09-05T08:48:32Z</time>
      </trkpt>
      <trkpt lat="44.05637" lon="7.35115">
        <ele>2330.8500976562</ele>
        <time>2010-09-05T08:48:40Z</time>
      </trkpt>
      <trkpt lat="44.0564" lon="7.35137">
        <ele>2332.7800292969</ele>
        <time>2010-09-05T08:48:56Z</time>
      </trkpt>
      <trkpt lat="44.05637" lon="7.35147">
        <ele>2335.6599121094</ele>
        <time>2010-09-05T08:49:03Z</time>
      </trkpt>
      <trkpt lat="44.05637" lon="7.35162">
        <ele>2338.5400390625</ele>
        <time>2010-09-05T08:49:14Z</time>
      </trkpt>
      <trkpt lat="44.05643" lon="7.35184">
        <ele>2341.4299316406</ele>
        <time>2010-09-05T08:49:29Z</time>
      </trkpt>
      <trkpt lat="44.05646" lon="7.35204">
        <ele>2343.3500976562</ele>
        <time>2010-09-05T08:49:43Z</time>
      </trkpt>
      <trkpt lat="44.05646" lon="7.35209">
        <ele>2343.3500976562</ele>
        <time>2010-09-05T08:49:46Z</time>
      </trkpt>
      <trkpt lat="44.05646" lon="7.35216">
        <ele>2344.7900390625</ele>
        <time>2010-09-05T08:49:51Z</time>
      </trkpt>
      <trkpt lat="44.05646" lon="7.35218">
        <ele>2345.2700195312</ele>
        <time>2010-09-05T08:49:53Z</time>
      </trkpt>
      <trkpt lat="44.05649" lon="7.35235">
        <ele>2347.6799316406</ele>
        <time>2010-09-05T08:50:08Z</time>
      </trkpt>
      <trkpt lat="44.05649" lon="7.35252">
        <ele>2350.5600585938</ele>
        <time>2010-09-05T08:50:21Z</time>
      </trkpt>
      <trkpt lat="44.05652" lon="7.3526">
        <ele>2353.9299316406</ele>
        <time>2010-09-05T08:50:31Z</time>
      </trkpt>
      <trkpt lat="44.05653" lon="7.35261">
        <ele>2353.9299316406</ele>
        <time>2010-09-05T08:50:32Z</time>
      </trkpt>
      <trkpt lat="44.05654" lon="7.35269">
        <ele>2356.330078125</ele>
        <time>2010-09-05T08:50:40Z</time>
      </trkpt>
      <trkpt lat="44.05654" lon="7.35279">
        <ele>2356.8100585938</ele>
        <time>2010-09-05T08:50:53Z</time>
      </trkpt>
      <trkpt lat="44.05654" lon="7.3528">
        <ele>2356.8100585938</ele>
        <time>2010-09-05T08:51:09Z</time>
      </trkpt>
      <trkpt lat="44.05654" lon="7.3528">
        <ele>2356.330078125</ele>
        <time>2010-09-05T08:51:11Z</time>
      </trkpt>
      <trkpt lat="44.05653" lon="7.35284">
        <ele>2357.7700195312</ele>
        <time>2010-09-05T08:51:16Z</time>
      </trkpt>
      <trkpt lat="44.05655" lon="7.35292">
        <ele>2360.169921875</ele>
        <time>2010-09-05T08:51:21Z</time>
      </trkpt>
      <trkpt lat="44.05655" lon="7.35293">
        <ele>2355.8500976562</ele>
        <time>2010-09-05T08:51:22Z</time>
      </trkpt>
      <trkpt lat="44.05653" lon="7.353">
        <ele>2353.9299316406</ele>
        <time>2010-09-05T08:51:26Z</time>
      </trkpt>
      <trkpt lat="44.05645" lon="7.35318">
        <ele>2350.5600585938</ele>
        <time>2010-09-05T08:51:36Z</time>
      </trkpt>
      <trkpt lat="44.05644" lon="7.35321">
        <ele>2350.5600585938</ele>
        <time>2010-09-05T08:51:37Z</time>
      </trkpt>
      <trkpt lat="44.05642" lon="7.35336">
        <ele>2350.080078125</ele>
        <time>2010-09-05T08:51:41Z</time>
      </trkpt>
      <trkpt lat="44.0564" lon="7.3535">
        <ele>2349.6000976562</ele>
        <time>2010-09-05T08:51:46Z</time>
      </trkpt>
      <trkpt lat="44.05635" lon="7.35385">
        <ele>2348.6398925781</ele>
        <time>2010-09-05T08:51:59Z</time>
      </trkpt>
      <trkpt lat="44.05633" lon="7.35394">
        <ele>2349.1201171875</ele>
        <time>2010-09-05T08:52:02Z</time>
      </trkpt>
      <trkpt lat="44.0563" lon="7.35432">
        <ele>2347.1999511719</ele>
        <time>2010-09-05T08:52:14Z</time>
      </trkpt>
      <trkpt lat="44.05626" lon="7.35443">
        <ele>2345.75</ele>
        <time>2010-09-05T08:52:17Z</time>
      </trkpt>
      <trkpt lat="44.05618" lon="7.35464">
        <ele>2344.7900390625</ele>
        <time>2010-09-05T08:52:24Z</time>
      </trkpt>
      <trkpt lat="44.05614" lon="7.3548">
        <ele>2340.9499511719</ele>
        <time>2010-09-05T08:52:30Z</time>
      </trkpt>
      <trkpt lat="44.05611" lon="7.35506">
        <ele>2338.0600585938</ele>
        <time>2010-09-05T08:52:39Z</time>
      </trkpt>
      <trkpt lat="44.05608" lon="7.35529">
        <ele>2336.6201171875</ele>
        <time>2010-09-05T08:52:48Z</time>
      </trkpt>
      <trkpt lat="44.05607" lon="7.35533">
        <ele>2335.6599121094</ele>
        <time>2010-09-05T08:52:50Z</time>
      </trkpt>
      <trkpt lat="44.05606" lon="7.35537">
        <ele>2334.2199707031</ele>
        <time>2010-09-05T08:52:54Z</time>
      </trkpt>
      <trkpt lat="44.05607" lon="7.35542">
        <ele>2331.8100585938</ele>
        <time>2010-09-05T08:52:59Z</time>
      </trkpt>
      <trkpt lat="44.05608" lon="7.35543">
        <ele>2330.8500976562</ele>
        <time>2010-09-05T08:53:01Z</time>
      </trkpt>
      <trkpt lat="44.05609" lon="7.35546">
        <ele>2329.8898925781</ele>
        <time>2010-09-05T08:53:03Z</time>
      </trkpt>
      <trkpt lat="44.0561" lon="7.35551">
        <ele>2328.4499511719</ele>
        <time>2010-09-05T08:53:05Z</time>
      </trkpt>
      <trkpt lat="44.05611" lon="7.35558">
        <ele>2327.4899902344</ele>
        <time>2010-09-05T08:53:07Z</time>
      </trkpt>
      <trkpt lat="44.05612" lon="7.35565">
        <ele>2326.5300292969</ele>
        <time>2010-09-05T08:53:09Z</time>
      </trkpt>
      <trkpt lat="44.05616" lon="7.35576">
        <ele>2324.6101074219</ele>
        <time>2010-09-05T08:53:12Z</time>
      </trkpt>
      <trkpt lat="44.05622" lon="7.35589">
        <ele>2322.6799316406</ele>
        <time>2010-09-05T08:53:15Z</time>
      </trkpt>
      <trkpt lat="44.05627" lon="7.35602">
        <ele>2320.7600097656</ele>
        <time>2010-09-05T08:53:18Z</time>
      </trkpt>
      <trkpt lat="44.05643" lon="7.35639">
        <ele>2316.9099121094</ele>
        <time>2010-09-05T08:53:27Z</time>
      </trkpt>
      <trkpt lat="44.05669" lon="7.35658">
        <ele>2315.4699707031</ele>
        <time>2010-09-05T08:53:37Z</time>
      </trkpt>
      <trkpt lat="44.05689" lon="7.35667">
        <ele>2313.0700683594</ele>
        <time>2010-09-05T08:53:45Z</time>
      </trkpt>
      <trkpt lat="44.05709" lon="7.35674">
        <ele>2313.5500488281</ele>
        <time>2010-09-05T08:53:58Z</time>
      </trkpt>
      <trkpt lat="44.05728" lon="7.35694">
        <ele>2311.1499023438</ele>
        <time>2010-09-05T08:54:09Z</time>
      </trkpt>
      <trkpt lat="44.0574" lon="7.35704">
        <ele>2308.7399902344</ele>
        <time>2010-09-05T08:54:15Z</time>
      </trkpt>
      <trkpt lat="44.05746" lon="7.35709">
        <ele>2307.3000488281</ele>
        <time>2010-09-05T08:54:19Z</time>
      </trkpt>
      <trkpt lat="44.05754" lon="7.35711">
        <ele>2307.7800292969</ele>
        <time>2010-09-05T08:54:23Z</time>
      </trkpt>
      <trkpt lat="44.05786" lon="7.35713">
        <ele>2308.2600097656</ele>
        <time>2010-09-05T08:54:35Z</time>
      </trkpt>
      <trkpt lat="44.05802" lon="7.35716">
        <ele>2310.1899414062</ele>
        <time>2010-09-05T08:54:48Z</time>
      </trkpt>
      <trkpt lat="44.05815" lon="7.35712">
        <ele>2314.0300292969</ele>
        <time>2010-09-05T08:55:00Z</time>
      </trkpt>
      <trkpt lat="44.05822" lon="7.35716">
        <ele>2315.9499511719</ele>
        <time>2010-09-05T08:55:08Z</time>
      </trkpt>
      <trkpt lat="44.05832" lon="7.35718">
        <ele>2319.3200683594</ele>
        <time>2010-09-05T08:55:19Z</time>
      </trkpt>
      <trkpt lat="44.05849" lon="7.35729">
        <ele>2322.6799316406</ele>
        <time>2010-09-05T08:55:35Z</time>
      </trkpt>
      <trkpt lat="44.05856" lon="7.35735">
        <ele>2324.6101074219</ele>
        <time>2010-09-05T08:55:43Z</time>
      </trkpt>
      <trkpt lat="44.05862" lon="7.35739">
        <ele>2326.0500488281</ele>
        <time>2010-09-05T08:55:49Z</time>
      </trkpt>
      <trkpt lat="44.0588" lon="7.35749">
        <ele>2329.8898925781</ele>
        <time>2010-09-05T08:56:05Z</time>
      </trkpt>
      <trkpt lat="44.05898" lon="7.35764">
        <ele>2332.3000488281</ele>
        <time>2010-09-05T08:56:21Z</time>
      </trkpt>
      <trkpt lat="44.05911" lon="7.35777">
        <ele>2335.6599121094</ele>
        <time>2010-09-05T08:56:36Z</time>
      </trkpt>
      <trkpt lat="44.05923" lon="7.35789">
        <ele>2338.5400390625</ele>
        <time>2010-09-05T08:56:48Z</time>
      </trkpt>
      <trkpt lat="44.05936" lon="7.35802">
        <ele>2341.9099121094</ele>
        <time>2010-09-05T08:57:01Z</time>
      </trkpt>
      <trkpt lat="44.05952" lon="7.3581">
        <ele>2345.2700195312</ele>
        <time>2010-09-05T08:57:16Z</time>
      </trkpt>
      <trkpt lat="44.05972" lon="7.35825">
        <ele>2347.1999511719</ele>
        <time>2010-09-05T08:57:34Z</time>
      </trkpt>
      <trkpt lat="44.05994" lon="7.35834">
        <ele>2350.5600585938</ele>
        <time>2010-09-05T08:57:49Z</time>
      </trkpt>
      <trkpt lat="44.06002" lon="7.35837">
        <ele>2351.5200195312</ele>
        <time>2010-09-05T08:57:53Z</time>
      </trkpt>
      <trkpt lat="44.06019" lon="7.35843">
        <ele>2354.8898925781</ele>
        <time>2010-09-05T08:58:03Z</time>
      </trkpt>
      <trkpt lat="44.06039" lon="7.35852">
        <ele>2357.2900390625</ele>
        <time>2010-09-05T08:58:20Z</time>
      </trkpt>
      <trkpt lat="44.06063" lon="7.35865">
        <ele>2358.7299804688</ele>
        <time>2010-09-05T08:58:38Z</time>
      </trkpt>
      <trkpt lat="44.0608" lon="7.35887">
        <ele>2361.1398925781</ele>
        <time>2010-09-05T08:58:57Z</time>
      </trkpt>
      <trkpt lat="44.06087" lon="7.35898">
        <ele>2364.0200195312</ele>
        <time>2010-09-05T08:59:06Z</time>
      </trkpt>
      <trkpt lat="44.06094" lon="7.35905">
        <ele>2364.0200195312</ele>
        <time>2010-09-05T08:59:12Z</time>
      </trkpt>
      <trkpt lat="44.06097" lon="7.3591">
        <ele>2365.4599609375</ele>
        <time>2010-09-05T08:59:16Z</time>
      </trkpt>
      <trkpt lat="44.06116" lon="7.35931">
        <ele>2365.9399414062</ele>
        <time>2010-09-05T08:59:34Z</time>
      </trkpt>
      <trkpt lat="44.0612" lon="7.35943">
        <ele>2368.830078125</ele>
        <time>2010-09-05T08:59:42Z</time>
      </trkpt>
      <trkpt lat="44.0612" lon="7.35945">
        <ele>2368.830078125</ele>
        <time>2010-09-05T08:59:43Z</time>
      </trkpt>
      <trkpt lat="44.06128" lon="7.35964">
        <ele>2372.1899414062</ele>
        <time>2010-09-05T08:59:56Z</time>
      </trkpt>
      <trkpt lat="44.06134" lon="7.35979">
        <ele>2376.0400390625</ele>
        <time>2010-09-05T09:00:11Z</time>
      </trkpt>
      <trkpt lat="44.06139" lon="7.35985">
        <ele>2377.4799804688</ele>
        <time>2010-09-05T09:00:18Z</time>
      </trkpt>
      <trkpt lat="44.06145" lon="7.35992">
        <ele>2380.3601074219</ele>
        <time>2010-09-05T09:00:26Z</time>
      </trkpt>
      <trkpt lat="44.06157" lon="7.36004">
        <ele>2382.7600097656</ele>
        <time>2010-09-05T09:00:38Z</time>
      </trkpt>
      <trkpt lat="44.06168" lon="7.3601">
        <ele>2385.6499023438</ele>
        <time>2010-09-05T09:00:51Z</time>
      </trkpt>
      <trkpt lat="44.06176" lon="7.36018">
        <ele>2389.0100097656</ele>
        <time>2010-09-05T09:01:02Z</time>
      </trkpt>
      <trkpt lat="44.06178" lon="7.36018">
        <ele>2389.4899902344</ele>
        <time>2010-09-05T09:01:03Z</time>
      </trkpt>
      <trkpt lat="44.06178" lon="7.36019">
        <ele>2388.0500488281</ele>
        <time>2010-09-05T09:01:04Z</time>
      </trkpt>
      <trkpt lat="44.06181" lon="7.3602">
        <ele>2389.4899902344</ele>
        <time>2010-09-05T09:01:07Z</time>
      </trkpt>
      <trkpt lat="44.06191" lon="7.36027">
        <ele>2392.8601074219</ele>
        <time>2010-09-05T09:01:20Z</time>
      </trkpt>
      <trkpt lat="44.06193" lon="7.36028">
        <ele>2393.3400878906</ele>
        <time>2010-09-05T09:01:22Z</time>
      </trkpt>
      <trkpt lat="44.06202" lon="7.36033">
        <ele>2396.2199707031</ele>
        <time>2010-09-05T09:01:32Z</time>
      </trkpt>
      <trkpt lat="44.06214" lon="7.36041">
        <ele>2399.1101074219</ele>
        <time>2010-09-05T09:01:45Z</time>
      </trkpt>
      <trkpt lat="44.06228" lon="7.36051">
        <ele>2401.5100097656</ele>
        <time>2010-09-05T09:02:03Z</time>
      </trkpt>
      <trkpt lat="44.06235" lon="7.36054">
        <ele>2404.3898925781</ele>
        <time>2010-09-05T09:02:11Z</time>
      </trkpt>
      <trkpt lat="44.06244" lon="7.36059">
        <ele>2407.2800292969</ele>
        <time>2010-09-05T09:02:22Z</time>
      </trkpt>
      <trkpt lat="44.0625" lon="7.36065">
        <ele>2409.6799316406</ele>
        <time>2010-09-05T09:02:31Z</time>
      </trkpt>
      <trkpt lat="44.0625" lon="7.36067">
        <ele>2410.6398925781</ele>
        <time>2010-09-05T09:02:33Z</time>
      </trkpt>
      <trkpt lat="44.0626" lon="7.36072">
        <ele>2413.0500488281</ele>
        <time>2010-09-05T09:02:44Z</time>
      </trkpt>
      <trkpt lat="44.06267" lon="7.36081">
        <ele>2416.4099121094</ele>
        <time>2010-09-05T09:02:56Z</time>
      </trkpt>
      <trkpt lat="44.06269" lon="7.36084">
        <ele>2416.4099121094</ele>
        <time>2010-09-05T09:02:59Z</time>
      </trkpt>
      <trkpt lat="44.0627" lon="7.36087">
        <ele>2417.8500976562</ele>
        <time>2010-09-05T09:03:03Z</time>
      </trkpt>
      <trkpt lat="44.06275" lon="7.36099">
        <ele>2420.7399902344</ele>
        <time>2010-09-05T09:03:14Z</time>
      </trkpt>
      <trkpt lat="44.06276" lon="7.36102">
        <ele>2421.2199707031</ele>
        <time>2010-09-05T09:03:17Z</time>
      </trkpt>
      <trkpt lat="44.06277" lon="7.36103">
        <ele>2421.6999511719</ele>
        <time>2010-09-05T09:03:19Z</time>
      </trkpt>
      <trkpt lat="44.06282" lon="7.36112">
        <ele>2425.5400390625</ele>
        <time>2010-09-05T09:03:29Z</time>
      </trkpt>
      <trkpt lat="44.06287" lon="7.3612">
        <ele>2427.4699707031</ele>
        <time>2010-09-05T09:03:40Z</time>
      </trkpt>
      <trkpt lat="44.06297" lon="7.36127">
        <ele>2430.830078125</ele>
        <time>2010-09-05T09:03:53Z</time>
      </trkpt>
      <trkpt lat="44.06297" lon="7.36138">
        <ele>2434.6799316406</ele>
        <time>2010-09-05T09:04:05Z</time>
      </trkpt>
      <trkpt lat="44.06298" lon="7.36139">
        <ele>2435.1599121094</ele>
        <time>2010-09-05T09:04:07Z</time>
      </trkpt>
      <trkpt lat="44.06301" lon="7.36142">
        <ele>2436.1201171875</ele>
        <time>2010-09-05T09:04:13Z</time>
      </trkpt>
      <trkpt lat="44.06311" lon="7.36147">
        <ele>2439.4799804688</ele>
        <time>2010-09-05T09:04:25Z</time>
      </trkpt>
      <trkpt lat="44.06313" lon="7.36148">
        <ele>2439.9599609375</ele>
        <time>2010-09-05T09:04:29Z</time>
      </trkpt>
      <trkpt lat="44.06324" lon="7.36155">
        <ele>2443.330078125</ele>
        <time>2010-09-05T09:04:44Z</time>
      </trkpt>
      <trkpt lat="44.06327" lon="7.36164">
        <ele>2446.6899414062</ele>
        <time>2010-09-05T09:04:54Z</time>
      </trkpt>
      <trkpt lat="44.0633" lon="7.36172">
        <ele>2450.0600585938</ele>
        <time>2010-09-05T09:05:07Z</time>
      </trkpt>
      <trkpt lat="44.06331" lon="7.36173">
        <ele>2450.5400390625</ele>
        <time>2010-09-05T09:05:08Z</time>
      </trkpt>
      <trkpt lat="44.06334" lon="7.36175">
        <ele>2451.5</ele>
        <time>2010-09-05T09:05:12Z</time>
      </trkpt>
      <trkpt lat="44.06339" lon="7.36176">
        <ele>2453.419921875</ele>
        <time>2010-09-05T09:05:19Z</time>
      </trkpt>
      <trkpt lat="44.06343" lon="7.36179">
        <ele>2454.8601074219</ele>
        <time>2010-09-05T09:05:28Z</time>
      </trkpt>
      <trkpt lat="44.06343" lon="7.36185">
        <ele>2456.3100585938</ele>
        <time>2010-09-05T09:05:36Z</time>
      </trkpt>
      <trkpt lat="44.06339" lon="7.36195">
        <ele>2457.2700195312</ele>
        <time>2010-09-05T09:05:42Z</time>
      </trkpt>
      <trkpt lat="44.06351" lon="7.36188">
        <ele>2457.75</ele>
        <time>2010-09-05T09:05:52Z</time>
      </trkpt>
      <trkpt lat="44.06355" lon="7.36191">
        <ele>2460.6298828125</ele>
        <time>2010-09-05T09:05:59Z</time>
      </trkpt>
      <trkpt lat="44.06352" lon="7.36205">
        <ele>2463.0400390625</ele>
        <time>2010-09-05T09:06:09Z</time>
      </trkpt>
      <trkpt lat="44.06361" lon="7.362">
        <ele>2464</ele>
        <time>2010-09-05T09:06:18Z</time>
      </trkpt>
      <trkpt lat="44.06364" lon="7.362">
        <ele>2465.4399414062</ele>
        <time>2010-09-05T09:06:21Z</time>
      </trkpt>
      <trkpt lat="44.06362" lon="7.36208">
        <ele>2466.8798828125</ele>
        <time>2010-09-05T09:06:28Z</time>
      </trkpt>
      <trkpt lat="44.06366" lon="7.36216">
        <ele>2469.2800292969</ele>
        <time>2010-09-05T09:06:36Z</time>
      </trkpt>
      <trkpt lat="44.06374" lon="7.36222">
        <ele>2472.6499023438</ele>
        <time>2010-09-05T09:06:48Z</time>
      </trkpt>
      <trkpt lat="44.06377" lon="7.36226">
        <ele>2474.5700683594</ele>
        <time>2010-09-05T09:06:53Z</time>
      </trkpt>
      <trkpt lat="44.06381" lon="7.36229">
        <ele>2476.0100097656</ele>
        <time>2010-09-05T09:07:00Z</time>
      </trkpt>
      <trkpt lat="44.06387" lon="7.36234">
        <ele>2478.8999023438</ele>
        <time>2010-09-05T09:07:12Z</time>
      </trkpt>
      <trkpt lat="44.06392" lon="7.36243">
        <ele>2482.2600097656</ele>
        <time>2010-09-05T09:07:25Z</time>
      </trkpt>
      <trkpt lat="44.064" lon="7.36258">
        <ele>2485.6298828125</ele>
        <time>2010-09-05T09:07:41Z</time>
      </trkpt>
      <trkpt lat="44.06409" lon="7.36275">
        <ele>2486.1101074219</ele>
        <time>2010-09-05T09:07:56Z</time>
      </trkpt>
      <trkpt lat="44.06409" lon="7.36276">
        <ele>2487.0700683594</ele>
        <time>2010-09-05T09:07:57Z</time>
      </trkpt>
      <trkpt lat="44.06408" lon="7.36288">
        <ele>2488.0300292969</ele>
        <time>2010-09-05T09:08:03Z</time>
      </trkpt>
      <trkpt lat="44.06414" lon="7.36296">
        <ele>2488.5100097656</ele>
        <time>2010-09-05T09:08:11Z</time>
      </trkpt>
      <trkpt lat="44.06421" lon="7.36302">
        <ele>2489.4699707031</ele>
        <time>2010-09-05T09:08:17Z</time>
      </trkpt>
      <trkpt lat="44.06425" lon="7.36324">
        <ele>2490.9099121094</ele>
        <time>2010-09-05T09:08:30Z</time>
      </trkpt>
      <trkpt lat="44.06426" lon="7.36334">
        <ele>2490.9099121094</ele>
        <time>2010-09-05T09:08:34Z</time>
      </trkpt>
      <trkpt lat="44.06424" lon="7.36366">
        <ele>2489.4699707031</ele>
        <time>2010-09-05T09:08:44Z</time>
      </trkpt>
      <trkpt lat="44.06425" lon="7.36368">
        <ele>2489.4699707031</ele>
        <time>2010-09-05T09:08:45Z</time>
      </trkpt>
      <trkpt lat="44.06429" lon="7.36378">
        <ele>2488.9899902344</ele>
        <time>2010-09-05T09:08:50Z</time>
      </trkpt>
      <trkpt lat="44.06432" lon="7.36383">
        <ele>2486.5900878906</ele>
        <time>2010-09-05T09:08:54Z</time>
      </trkpt>
      <trkpt lat="44.06433" lon="7.36385">
        <ele>2486.1101074219</ele>
        <time>2010-09-05T09:08:55Z</time>
      </trkpt>
      <trkpt lat="44.06433" lon="7.36389">
        <ele>2485.1499023438</ele>
        <time>2010-09-05T09:08:57Z</time>
      </trkpt>
      <trkpt lat="44.06439" lon="7.36421">
        <ele>2482.7399902344</ele>
        <time>2010-09-05T09:09:07Z</time>
      </trkpt>
      <trkpt lat="44.06449" lon="7.36433">
        <ele>2479.8601074219</ele>
        <time>2010-09-05T09:09:14Z</time>
      </trkpt>
      <trkpt lat="44.06453" lon="7.3644">
        <ele>2477.9399414062</ele>
        <time>2010-09-05T09:09:18Z</time>
      </trkpt>
      <trkpt lat="44.06459" lon="7.36445">
        <ele>2475.0500488281</ele>
        <time>2010-09-05T09:09:24Z</time>
      </trkpt>
      <trkpt lat="44.06461" lon="7.36446">
        <ele>2473.6101074219</ele>
        <time>2010-09-05T09:09:26Z</time>
      </trkpt>
      <trkpt lat="44.06465" lon="7.36448">
        <ele>2471.6899414062</ele>
        <time>2010-09-05T09:09:31Z</time>
      </trkpt>
      <trkpt lat="44.06466" lon="7.36449">
        <ele>2471.2099609375</ele>
        <time>2010-09-05T09:09:32Z</time>
      </trkpt>
      <trkpt lat="44.06472" lon="7.36453">
        <ele>2467.8400878906</ele>
        <time>2010-09-05T09:09:37Z</time>
      </trkpt>
      <trkpt lat="44.06474" lon="7.36455">
        <ele>2468.3200683594</ele>
        <time>2010-09-05T09:09:38Z</time>
      </trkpt>
      <trkpt lat="44.06477" lon="7.36457">
        <ele>2466.8798828125</ele>
        <time>2010-09-05T09:09:40Z</time>
      </trkpt>
      <trkpt lat="44.06483" lon="7.36462">
        <ele>2464.9599609375</ele>
        <time>2010-09-05T09:09:45Z</time>
      </trkpt>
      <trkpt lat="44.06485" lon="7.36468">
        <ele>2463.5200195312</ele>
        <time>2010-09-05T09:09:48Z</time>
      </trkpt>
      <trkpt lat="44.06487" lon="7.36472">
        <ele>2463.0400390625</ele>
        <time>2010-09-05T09:09:50Z</time>
      </trkpt>
      <trkpt lat="44.06491" lon="7.36479">
        <ele>2461.5900878906</ele>
        <time>2010-09-05T09:09:53Z</time>
      </trkpt>
      <trkpt lat="44.065" lon="7.36483">
        <ele>2458.2299804688</ele>
        <time>2010-09-05T09:09:57Z</time>
      </trkpt>
      <trkpt lat="44.06503" lon="7.36486">
        <ele>2457.75</ele>
        <time>2010-09-05T09:09:59Z</time>
      </trkpt>
      <trkpt lat="44.06506" lon="7.36488">
        <ele>2456.3100585938</ele>
        <time>2010-09-05T09:10:01Z</time>
      </trkpt>
      <trkpt lat="44.06511" lon="7.36489">
        <ele>2454.8601074219</ele>
        <time>2010-09-05T09:10:03Z</time>
      </trkpt>
      <trkpt lat="44.06514" lon="7.36489">
        <ele>2453.8999023438</ele>
        <time>2010-09-05T09:10:05Z</time>
      </trkpt>
      <trkpt lat="44.06517" lon="7.36494">
        <ele>2452.9399414062</ele>
        <time>2010-09-05T09:10:09Z</time>
      </trkpt>
      <trkpt lat="44.06519" lon="7.36499">
        <ele>2451.0200195312</ele>
        <time>2010-09-05T09:10:12Z</time>
      </trkpt>
      <trkpt lat="44.06529" lon="7.36506">
        <ele>2447.6499023438</ele>
        <time>2010-09-05T09:10:18Z</time>
      </trkpt>
      <trkpt lat="44.06535" lon="7.36512">
        <ele>2445.7299804688</ele>
        <time>2010-09-05T09:10:22Z</time>
      </trkpt>
      <trkpt lat="44.06539" lon="7.36517">
        <ele>2443.8100585938</ele>
        <time>2010-09-05T09:10:25Z</time>
      </trkpt>
      <trkpt lat="44.06541" lon="7.36518">
        <ele>2443.330078125</ele>
        <time>2010-09-05T09:10:26Z</time>
      </trkpt>
      <trkpt lat="44.06545" lon="7.3652">
        <ele>2441.4099121094</ele>
        <time>2010-09-05T09:10:29Z</time>
      </trkpt>
      <trkpt lat="44.06547" lon="7.36522">
        <ele>2440.919921875</ele>
        <time>2010-09-05T09:10:32Z</time>
      </trkpt>
      <trkpt lat="44.06549" lon="7.36523">
        <ele>2439.9599609375</ele>
        <time>2010-09-05T09:10:34Z</time>
      </trkpt>
      <trkpt lat="44.06552" lon="7.36531">
        <ele>2437.5600585938</ele>
        <time>2010-09-05T09:10:39Z</time>
      </trkpt>
      <trkpt lat="44.06554" lon="7.36543">
        <ele>2434.1999511719</ele>
        <time>2010-09-05T09:10:46Z</time>
      </trkpt>
      <trkpt lat="44.06557" lon="7.36548">
        <ele>2432.75</ele>
        <time>2010-09-05T09:10:51Z</time>
      </trkpt>
      <trkpt lat="44.06559" lon="7.3655">
        <ele>2431.7900390625</ele>
        <time>2010-09-05T09:10:54Z</time>
      </trkpt>
      <trkpt lat="44.06561" lon="7.36553">
        <ele>2430.3500976562</ele>
        <time>2010-09-05T09:10:57Z</time>
      </trkpt>
      <trkpt lat="44.06561" lon="7.36556">
        <ele>2429.3898925781</ele>
        <time>2010-09-05T09:10:59Z</time>
      </trkpt>
      <trkpt lat="44.06564" lon="7.3656">
        <ele>2427.4699707031</ele>
        <time>2010-09-05T09:11:04Z</time>
      </trkpt>
      <trkpt lat="44.06569" lon="7.36564">
        <ele>2425.0600585938</ele>
        <time>2010-09-05T09:11:11Z</time>
      </trkpt>
      <trkpt lat="44.0657" lon="7.36574">
        <ele>2423.1398925781</ele>
        <time>2010-09-05T09:11:18Z</time>
      </trkpt>
      <trkpt lat="44.06572" lon="7.36576">
        <ele>2421.2199707031</ele>
        <time>2010-09-05T09:11:21Z</time>
      </trkpt>
      <trkpt lat="44.06577" lon="7.36583">
        <ele>2417.8500976562</ele>
        <time>2010-09-05T09:11:27Z</time>
      </trkpt>
      <trkpt lat="44.06576" lon="7.36585">
        <ele>2417.3701171875</ele>
        <time>2010-09-05T09:11:28Z</time>
      </trkpt>
      <trkpt lat="44.06577" lon="7.3659">
        <ele>2415.4499511719</ele>
        <time>2010-09-05T09:11:32Z</time>
      </trkpt>
      <trkpt lat="44.06584" lon="7.366">
        <ele>2412.5700683594</ele>
        <time>2010-09-05T09:11:36Z</time>
      </trkpt>
      <trkpt lat="44.066" lon="7.36632">
        <ele>2408.2399902344</ele>
        <time>2010-09-05T09:11:45Z</time>
      </trkpt>
      <trkpt lat="44.0661" lon="7.36657">
        <ele>2404.8798828125</ele>
        <time>2010-09-05T09:11:53Z</time>
      </trkpt>
      <trkpt lat="44.06615" lon="7.36667">
        <ele>2402.4699707031</ele>
        <time>2010-09-05T09:11:56Z</time>
      </trkpt>
      <trkpt lat="44.0662" lon="7.36675">
        <ele>2401.0300292969</ele>
        <time>2010-09-05T09:11:59Z</time>
      </trkpt>
      <trkpt lat="44.06623" lon="7.36679">
        <ele>2400.0700683594</ele>
        <time>2010-09-05T09:12:01Z</time>
      </trkpt>
      <trkpt lat="44.06626" lon="7.36683">
        <ele>2399.1101074219</ele>
        <time>2010-09-05T09:12:03Z</time>
      </trkpt>
      <trkpt lat="44.0663" lon="7.36686">
        <ele>2397.669921875</ele>
        <time>2010-09-05T09:12:05Z</time>
      </trkpt>
      <trkpt lat="44.06641" lon="7.36693">
        <ele>2393.8200683594</ele>
        <time>2010-09-05T09:12:10Z</time>
      </trkpt>
      <trkpt lat="44.06651" lon="7.36709">
        <ele>2389.4899902344</ele>
        <time>2010-09-05T09:12:17Z</time>
      </trkpt>
      <trkpt lat="44.06655" lon="7.36714">
        <ele>2389.0100097656</ele>
        <time>2010-09-05T09:12:19Z</time>
      </trkpt>
      <trkpt lat="44.06662" lon="7.3673">
        <ele>2385.6499023438</ele>
        <time>2010-09-05T09:12:25Z</time>
      </trkpt>
      <trkpt lat="44.06662" lon="7.36742">
        <ele>2382.2800292969</ele>
        <time>2010-09-05T09:12:30Z</time>
      </trkpt>
      <trkpt lat="44.06666" lon="7.36746">
        <ele>2380.3601074219</ele>
        <time>2010-09-05T09:12:34Z</time>
      </trkpt>
      <trkpt lat="44.06673" lon="7.36754">
        <ele>2378.4399414062</ele>
        <time>2010-09-05T09:12:41Z</time>
      </trkpt>
      <trkpt lat="44.06676" lon="7.36763">
        <ele>2374.5900878906</ele>
        <time>2010-09-05T09:12:47Z</time>
      </trkpt>
      <trkpt lat="44.0668" lon="7.36767">
        <ele>2372.669921875</ele>
        <time>2010-09-05T09:12:50Z</time>
      </trkpt>
      <trkpt lat="44.06685" lon="7.36769">
        <ele>2370.75</ele>
        <time>2010-09-05T09:12:54Z</time>
      </trkpt>
      <trkpt lat="44.06687" lon="7.3677">
        <ele>2368.830078125</ele>
        <time>2010-09-05T09:12:56Z</time>
      </trkpt>
      <trkpt lat="44.06689" lon="7.36776">
        <ele>2367.8601074219</ele>
        <time>2010-09-05T09:13:00Z</time>
      </trkpt>
      <trkpt lat="44.06691" lon="7.3678">
        <ele>2366.419921875</ele>
        <time>2010-09-05T09:13:02Z</time>
      </trkpt>
      <trkpt lat="44.06693" lon="7.36785">
        <ele>2364.0200195312</ele>
        <time>2010-09-05T09:13:05Z</time>
      </trkpt>
      <trkpt lat="44.06696" lon="7.3679">
        <ele>2362.1000976562</ele>
        <time>2010-09-05T09:13:09Z</time>
      </trkpt>
      <trkpt lat="44.06701" lon="7.36794">
        <ele>2360.169921875</ele>
        <time>2010-09-05T09:13:13Z</time>
      </trkpt>
      <trkpt lat="44.0671" lon="7.36802">
        <ele>2356.8100585938</ele>
        <time>2010-09-05T09:13:20Z</time>
      </trkpt>
      <trkpt lat="44.06714" lon="7.36808">
        <ele>2355.3701171875</ele>
        <time>2010-09-05T09:13:23Z</time>
      </trkpt>
      <trkpt lat="44.06722" lon="7.36815">
        <ele>2352.9599609375</ele>
        <time>2010-09-05T09:13:27Z</time>
      </trkpt>
      <trkpt lat="44.06735" lon="7.36832">
        <ele>2349.1201171875</ele>
        <time>2010-09-05T09:13:33Z</time>
      </trkpt>
      <trkpt lat="44.06753" lon="7.36865">
        <ele>2345.75</ele>
        <time>2010-09-05T09:13:44Z</time>
      </trkpt>
      <trkpt lat="44.06763" lon="7.36878">
        <ele>2342.3898925781</ele>
        <time>2010-09-05T09:13:49Z</time>
      </trkpt>
      <trkpt lat="44.06765" lon="7.3688">
        <ele>2343.3500976562</ele>
        <time>2010-09-05T09:13:50Z</time>
      </trkpt>
      <trkpt lat="44.06784" lon="7.36908">
        <ele>2340.4699707031</ele>
        <time>2010-09-05T09:13:59Z</time>
      </trkpt>
      <trkpt lat="44.06795" lon="7.36925">
        <ele>2338.0600585938</ele>
        <time>2010-09-05T09:14:04Z</time>
      </trkpt>
      <trkpt lat="44.06821" lon="7.36966">
        <ele>2336.1398925781</ele>
        <time>2010-09-05T09:14:16Z</time>
      </trkpt>
      <trkpt lat="44.06839" lon="7.37005">
        <ele>2334.6999511719</ele>
        <time>2010-09-05T09:14:27Z</time>
      </trkpt>
      <trkpt lat="44.06854" lon="7.37041">
        <ele>2337.1000976562</ele>
        <time>2010-09-05T09:14:39Z</time>
      </trkpt>
      <trkpt lat="44.0687" lon="7.3707">
        <ele>2340.9499511719</ele>
        <time>2010-09-05T09:14:52Z</time>
      </trkpt>
      <trkpt lat="44.06895" lon="7.37092">
        <ele>2340.4699707031</ele>
        <time>2010-09-05T09:15:06Z</time>
      </trkpt>
      <trkpt lat="44.06906" lon="7.37133">
        <ele>2340.4699707031</ele>
        <time>2010-09-05T09:15:19Z</time>
      </trkpt>
      <trkpt lat="44.06921" lon="7.37172">
        <ele>2340.4699707031</ele>
        <time>2010-09-05T09:15:32Z</time>
      </trkpt>
      <trkpt lat="44.06926" lon="7.3718">
        <ele>2339.9899902344</ele>
        <time>2010-09-05T09:15:37Z</time>
      </trkpt>
      <trkpt lat="44.06927" lon="7.37182">
        <ele>2339.9899902344</ele>
        <time>2010-09-05T09:15:39Z</time>
      </trkpt>
      <trkpt lat="44.06938" lon="7.3719">
        <ele>2339.5100097656</ele>
        <time>2010-09-05T09:15:47Z</time>
      </trkpt>
      <trkpt lat="44.06963" lon="7.37226">
        <ele>2338.0600585938</ele>
        <time>2010-09-05T09:16:02Z</time>
      </trkpt>
      <trkpt lat="44.06969" lon="7.37236">
        <ele>2339.0200195312</ele>
        <time>2010-09-05T09:16:06Z</time>
      </trkpt>
      <trkpt lat="44.06984" lon="7.3726">
        <ele>2339.5100097656</ele>
        <time>2010-09-05T09:16:18Z</time>
      </trkpt>
      <trkpt lat="44.07001" lon="7.37274">
        <ele>2340.4699707031</ele>
        <time>2010-09-05T09:16:29Z</time>
      </trkpt>
      <trkpt lat="44.0702" lon="7.37282">
        <ele>2340.4699707031</ele>
        <time>2010-09-05T09:16:38Z</time>
      </trkpt>
      <trkpt lat="44.07026" lon="7.3729">
        <ele>2341.9099121094</ele>
        <time>2010-09-05T09:16:45Z</time>
      </trkpt>
      <trkpt lat="44.07035" lon="7.37294">
        <ele>2341.9099121094</ele>
        <time>2010-09-05T09:16:53Z</time>
      </trkpt>
      <trkpt lat="44.07039" lon="7.37298">
        <ele>2341.9099121094</ele>
        <time>2010-09-05T09:16:57Z</time>
      </trkpt>
      <trkpt lat="44.07044" lon="7.373">
        <ele>2340.9499511719</ele>
        <time>2010-09-05T09:17:01Z</time>
      </trkpt>
      <trkpt lat="44.07059" lon="7.37315">
        <ele>2344.7900390625</ele>
        <time>2010-09-05T09:17:13Z</time>
      </trkpt>
      <trkpt lat="44.07073" lon="7.37348">
        <ele>2343.3500976562</ele>
        <time>2010-09-05T09:17:27Z</time>
      </trkpt>
      <trkpt lat="44.07074" lon="7.37351">
        <ele>2343.3500976562</ele>
        <time>2010-09-05T09:17:28Z</time>
      </trkpt>
      <trkpt lat="44.0708" lon="7.37365">
        <ele>2341.4299316406</ele>
        <time>2010-09-05T09:17:32Z</time>
      </trkpt>
      <trkpt lat="44.07093" lon="7.37379">
        <ele>2339.0200195312</ele>
        <time>2010-09-05T09:17:37Z</time>
      </trkpt>
      <trkpt lat="44.07116" lon="7.37417">
        <ele>2340.4699707031</ele>
        <time>2010-09-05T09:17:50Z</time>
      </trkpt>
      <trkpt lat="44.07132" lon="7.37458">
        <ele>2338.0600585938</ele>
        <time>2010-09-05T09:18:03Z</time>
      </trkpt>
      <trkpt lat="44.0714" lon="7.37483">
        <ele>2334.6999511719</ele>
        <time>2010-09-05T09:18:10Z</time>
      </trkpt>
      <trkpt lat="44.07144" lon="7.37489">
        <ele>2333.7399902344</ele>
        <time>2010-09-05T09:18:12Z</time>
      </trkpt>
      <trkpt lat="44.07152" lon="7.37503">
        <ele>2330.8500976562</ele>
        <time>2010-09-05T09:18:16Z</time>
      </trkpt>
      <trkpt lat="44.07154" lon="7.37507">
        <ele>2330.8500976562</ele>
        <time>2010-09-05T09:18:17Z</time>
      </trkpt>
      <trkpt lat="44.07162" lon="7.37539">
        <ele>2327.9699707031</ele>
        <time>2010-09-05T09:18:24Z</time>
      </trkpt>
      <trkpt lat="44.07171" lon="7.37579">
        <ele>2324.6101074219</ele>
        <time>2010-09-05T09:18:33Z</time>
      </trkpt>
      <trkpt lat="44.07169" lon="7.37598">
        <ele>2322.6799316406</ele>
        <time>2010-09-05T09:18:38Z</time>
      </trkpt>
      <trkpt lat="44.07159" lon="7.37621">
        <ele>2319.3200683594</ele>
        <time>2010-09-05T09:18:44Z</time>
      </trkpt>
      <trkpt lat="44.07154" lon="7.37637">
        <ele>2315.9499511719</ele>
        <time>2010-09-05T09:18:48Z</time>
      </trkpt>
      <trkpt lat="44.07142" lon="7.37642">
        <ele>2312.5900878906</ele>
        <time>2010-09-05T09:18:54Z</time>
      </trkpt>
      <trkpt lat="44.07138" lon="7.37635">
        <ele>2311.6298828125</ele>
        <time>2010-09-05T09:18:56Z</time>
      </trkpt>
      <trkpt lat="44.07127" lon="7.37621">
        <ele>2308.2600097656</ele>
        <time>2010-09-05T09:19:00Z</time>
      </trkpt>
      <trkpt lat="44.07124" lon="7.37618">
        <ele>2308.2600097656</ele>
        <time>2010-09-05T09:19:01Z</time>
      </trkpt>
      <trkpt lat="44.07119" lon="7.37611">
        <ele>2306.8200683594</ele>
        <time>2010-09-05T09:19:03Z</time>
      </trkpt>
      <trkpt lat="44.07111" lon="7.37602">
        <ele>2306.3400878906</ele>
        <time>2010-09-05T09:19:06Z</time>
      </trkpt>
      <trkpt lat="44.071" lon="7.37611">
        <ele>2303.9399414062</ele>
        <time>2010-09-05T09:19:12Z</time>
      </trkpt>
      <trkpt lat="44.07095" lon="7.37624">
        <ele>2300.5700683594</ele>
        <time>2010-09-05T09:19:16Z</time>
      </trkpt>
      <trkpt lat="44.07091" lon="7.37637">
        <ele>2297.2099609375</ele>
        <time>2010-09-05T09:19:20Z</time>
      </trkpt>
      <trkpt lat="44.07087" lon="7.37651">
        <ele>2295.2800292969</ele>
        <time>2010-09-05T09:19:24Z</time>
      </trkpt>
      <trkpt lat="44.07086" lon="7.37663">
        <ele>2292.8798828125</ele>
        <time>2010-09-05T09:19:27Z</time>
      </trkpt>
      <trkpt lat="44.07087" lon="7.37675">
        <ele>2290.9599609375</ele>
        <time>2010-09-05T09:19:30Z</time>
      </trkpt>
      <trkpt lat="44.07087" lon="7.37683">
        <ele>2288.5600585938</ele>
        <time>2010-09-05T09:19:32Z</time>
      </trkpt>
      <trkpt lat="44.07077" lon="7.377">
        <ele>2285.669921875</ele>
        <time>2010-09-05T09:19:38Z</time>
      </trkpt>
      <trkpt lat="44.07069" lon="7.37709">
        <ele>2283.2700195312</ele>
        <time>2010-09-05T09:19:42Z</time>
      </trkpt>
      <trkpt lat="44.07067" lon="7.37711">
        <ele>2282.3100585938</ele>
        <time>2010-09-05T09:19:43Z</time>
      </trkpt>
      <trkpt lat="44.07062" lon="7.37716">
        <ele>2281.830078125</ele>
        <time>2010-09-05T09:19:45Z</time>
      </trkpt>
      <trkpt lat="44.07053" lon="7.3772">
        <ele>2279.8999023438</ele>
        <time>2010-09-05T09:19:48Z</time>
      </trkpt>
      <trkpt lat="44.07036" lon="7.37723">
        <ele>2276.0600585938</ele>
        <time>2010-09-05T09:19:53Z</time>
      </trkpt>
      <trkpt lat="44.07027" lon="7.3772">
        <ele>2274.6201171875</ele>
        <time>2010-09-05T09:19:56Z</time>
      </trkpt>
      <trkpt lat="44.07019" lon="7.37708">
        <ele>2271.7299804688</ele>
        <time>2010-09-05T09:20:01Z</time>
      </trkpt>
      <trkpt lat="44.07011" lon="7.37675">
        <ele>2267.4099121094</ele>
        <time>2010-09-05T09:20:10Z</time>
      </trkpt>
      <trkpt lat="44.07008" lon="7.37668">
        <ele>2266.9299316406</ele>
        <time>2010-09-05T09:20:12Z</time>
      </trkpt>
      <trkpt lat="44.07003" lon="7.37649">
        <ele>2263.5600585938</ele>
        <time>2010-09-05T09:20:19Z</time>
      </trkpt>
      <trkpt lat="44.07002" lon="7.37647">
        <ele>2262.6000976562</ele>
        <time>2010-09-05T09:20:20Z</time>
      </trkpt>
      <trkpt lat="44.07001" lon="7.37639">
        <ele>2261.6398925781</ele>
        <time>2010-09-05T09:20:23Z</time>
      </trkpt>
      <trkpt lat="44.07002" lon="7.37637">
        <ele>2261.1599121094</ele>
        <time>2010-09-05T09:20:24Z</time>
      </trkpt>
      <trkpt lat="44.07005" lon="7.37628">
        <ele>2260.1999511719</ele>
        <time>2010-09-05T09:20:27Z</time>
      </trkpt>
      <trkpt lat="44.07006" lon="7.37621">
        <ele>2259.2399902344</ele>
        <time>2010-09-05T09:20:31Z</time>
      </trkpt>
      <trkpt lat="44.06994" lon="7.37621">
        <ele>2255.3898925781</ele>
        <time>2010-09-05T09:20:38Z</time>
      </trkpt>
      <trkpt lat="44.06989" lon="7.37618">
        <ele>2253.4699707031</ele>
        <time>2010-09-05T09:20:41Z</time>
      </trkpt>
      <trkpt lat="44.06982" lon="7.37619">
        <ele>2251.5400390625</ele>
        <time>2010-09-05T09:20:45Z</time>
      </trkpt>
      <trkpt lat="44.06977" lon="7.37622">
        <ele>2249.6201171875</ele>
        <time>2010-09-05T09:20:48Z</time>
      </trkpt>
      <trkpt lat="44.06974" lon="7.37622">
        <ele>2249.1398925781</ele>
        <time>2010-09-05T09:20:50Z</time>
      </trkpt>
      <trkpt lat="44.06966" lon="7.37625">
        <ele>2246.7399902344</ele>
        <time>2010-09-05T09:20:55Z</time>
      </trkpt>
      <trkpt lat="44.06961" lon="7.37625">
        <ele>2245.3000488281</ele>
        <time>2010-09-05T09:20:57Z</time>
      </trkpt>
      <trkpt lat="44.06937" lon="7.37625">
        <ele>2241.4499511719</ele>
        <time>2010-09-05T09:21:07Z</time>
      </trkpt>
      <trkpt lat="44.06924" lon="7.37625">
        <ele>2239.5300292969</ele>
        <time>2010-09-05T09:21:14Z</time>
      </trkpt>
      <trkpt lat="44.0692" lon="7.37624">
        <ele>2238.0900878906</ele>
        <time>2010-09-05T09:21:16Z</time>
      </trkpt>
      <trkpt lat="44.06917" lon="7.37623">
        <ele>2237.1298828125</ele>
        <time>2010-09-05T09:21:18Z</time>
      </trkpt>
      <trkpt lat="44.06916" lon="7.37622">
        <ele>2237.6101074219</ele>
        <time>2010-09-05T09:21:19Z</time>
      </trkpt>
      <trkpt lat="44.0691" lon="7.3762">
        <ele>2234.7199707031</ele>
        <time>2010-09-05T09:21:24Z</time>
      </trkpt>
      <trkpt lat="44.06903" lon="7.37613">
        <ele>2230.8798828125</ele>
        <time>2010-09-05T09:21:29Z</time>
      </trkpt>
      <trkpt lat="44.06901" lon="7.37611">
        <ele>2230.8798828125</ele>
        <time>2010-09-05T09:21:30Z</time>
      </trkpt>
      <trkpt lat="44.069" lon="7.3761">
        <ele>2230.3999023438</ele>
        <time>2010-09-05T09:21:31Z</time>
      </trkpt>
      <trkpt lat="44.06895" lon="7.37608">
        <ele>2228.9499511719</ele>
        <time>2010-09-05T09:21:33Z</time>
      </trkpt>
      <trkpt lat="44.06888" lon="7.37605">
        <ele>2226.5500488281</ele>
        <time>2010-09-05T09:21:37Z</time>
      </trkpt>
      <trkpt lat="44.06887" lon="7.37605">
        <ele>2225.1101074219</ele>
        <time>2010-09-05T09:21:38Z</time>
      </trkpt>
      <trkpt lat="44.06888" lon="7.37617">
        <ele>2223.1899414062</ele>
        <time>2010-09-05T09:21:43Z</time>
      </trkpt>
      <trkpt lat="44.06887" lon="7.37631">
        <ele>2220.3000488281</ele>
        <time>2010-09-05T09:21:48Z</time>
      </trkpt>
      <trkpt lat="44.06878" lon="7.37637">
        <ele>2216.4599609375</ele>
        <time>2010-09-05T09:21:52Z</time>
      </trkpt>
      <trkpt lat="44.06875" lon="7.37637">
        <ele>2216.9399414062</ele>
        <time>2010-09-05T09:21:53Z</time>
      </trkpt>
      <trkpt lat="44.06865" lon="7.37637">
        <ele>2214.5300292969</ele>
        <time>2010-09-05T09:21:57Z</time>
      </trkpt>
      <trkpt lat="44.06855" lon="7.37638">
        <ele>2212.6101074219</ele>
        <time>2010-09-05T09:22:02Z</time>
      </trkpt>
      <trkpt lat="44.0684" lon="7.37643">
        <ele>2209.25</ele>
        <time>2010-09-05T09:22:07Z</time>
      </trkpt>
      <trkpt lat="44.06821" lon="7.37647">
        <ele>2205.8798828125</ele>
        <time>2010-09-05T09:22:13Z</time>
      </trkpt>
      <trkpt lat="44.06811" lon="7.37648">
        <ele>2204.4399414062</ele>
        <time>2010-09-05T09:22:17Z</time>
      </trkpt>
      <trkpt lat="44.06807" lon="7.37649">
        <ele>2203.4799804688</ele>
        <time>2010-09-05T09:22:19Z</time>
      </trkpt>
      <trkpt lat="44.06798" lon="7.37645">
        <ele>2201.5600585938</ele>
        <time>2010-09-05T09:22:25Z</time>
      </trkpt>
      <trkpt lat="44.06795" lon="7.37644">
        <ele>2200.1101074219</ele>
        <time>2010-09-05T09:22:28Z</time>
      </trkpt>
      <trkpt lat="44.0679" lon="7.37648">
        <ele>2199.6298828125</ele>
        <time>2010-09-05T09:22:32Z</time>
      </trkpt>
      <trkpt lat="44.06788" lon="7.3765">
        <ele>2198.1899414062</ele>
        <time>2010-09-05T09:22:34Z</time>
      </trkpt>
      <trkpt lat="44.06784" lon="7.37652">
        <ele>2197.7099609375</ele>
        <time>2010-09-05T09:22:37Z</time>
      </trkpt>
      <trkpt lat="44.06776" lon="7.37656">
        <ele>2195.7900390625</ele>
        <time>2010-09-05T09:22:41Z</time>
      </trkpt>
      <trkpt lat="44.06754" lon="7.37655">
        <ele>2191.9399414062</ele>
        <time>2010-09-05T09:22:50Z</time>
      </trkpt>
      <trkpt lat="44.06739" lon="7.37669">
        <ele>2188.1000976562</ele>
        <time>2010-09-05T09:22:57Z</time>
      </trkpt>
      <trkpt lat="44.06731" lon="7.3767">
        <ele>2185.2099609375</ele>
        <time>2010-09-05T09:23:00Z</time>
      </trkpt>
      <trkpt lat="44.06716" lon="7.37667">
        <ele>2182.330078125</ele>
        <time>2010-09-05T09:23:07Z</time>
      </trkpt>
      <trkpt lat="44.06711" lon="7.37662">
        <ele>2180.8898925781</ele>
        <time>2010-09-05T09:23:10Z</time>
      </trkpt>
      <trkpt lat="44.06706" lon="7.37666">
        <ele>2176.5600585938</ele>
        <time>2010-09-05T09:23:14Z</time>
      </trkpt>
      <trkpt lat="44.06705" lon="7.37667">
        <ele>2178.4799804688</ele>
        <time>2010-09-05T09:23:15Z</time>
      </trkpt>
      <trkpt lat="44.06702" lon="7.37667">
        <ele>2177.0400390625</ele>
        <time>2010-09-05T09:23:17Z</time>
      </trkpt>
      <trkpt lat="44.06699" lon="7.37663">
        <ele>2175.6000976562</ele>
        <time>2010-09-05T09:23:20Z</time>
      </trkpt>
      <trkpt lat="44.06697" lon="7.37674">
        <ele>2171.2700195312</ele>
        <time>2010-09-05T09:23:27Z</time>
      </trkpt>
      <trkpt lat="44.06696" lon="7.37675">
        <ele>2170.7900390625</ele>
        <time>2010-09-05T09:23:28Z</time>
      </trkpt>
      <trkpt lat="44.06693" lon="7.37676">
        <ele>2169.830078125</ele>
        <time>2010-09-05T09:23:30Z</time>
      </trkpt>
      <trkpt lat="44.06681" lon="7.37669">
        <ele>2167.4299316406</ele>
        <time>2010-09-05T09:23:37Z</time>
      </trkpt>
      <trkpt lat="44.06678" lon="7.37674">
        <ele>2164.5500488281</ele>
        <time>2010-09-05T09:23:41Z</time>
      </trkpt>
      <trkpt lat="44.06678" lon="7.37676">
        <ele>2164.0600585938</ele>
        <time>2010-09-05T09:23:42Z</time>
      </trkpt>
      <trkpt lat="44.06676" lon="7.37677">
        <ele>2163.1000976562</ele>
        <time>2010-09-05T09:23:44Z</time>
      </trkpt>
      <trkpt lat="44.06673" lon="7.37678">
        <ele>2161.6599121094</ele>
        <time>2010-09-05T09:23:47Z</time>
      </trkpt>
      <trkpt lat="44.06668" lon="7.37677">
        <ele>2158.7800292969</ele>
        <time>2010-09-05T09:23:50Z</time>
      </trkpt>
      <trkpt lat="44.06657" lon="7.37669">
        <ele>2154.4499511719</ele>
        <time>2010-09-05T09:23:59Z</time>
      </trkpt>
      <trkpt lat="44.06656" lon="7.37668">
        <ele>2154.9299316406</ele>
        <time>2010-09-05T09:24:00Z</time>
      </trkpt>
      <trkpt lat="44.06655" lon="7.37666">
        <ele>2154.4499511719</ele>
        <time>2010-09-05T09:24:02Z</time>
      </trkpt>
      <trkpt lat="44.06652" lon="7.37664">
        <ele>2153.4899902344</ele>
        <time>2010-09-05T09:24:04Z</time>
      </trkpt>
      <trkpt lat="44.06645" lon="7.37657">
        <ele>2149.6499023438</ele>
        <time>2010-09-05T09:24:09Z</time>
      </trkpt>
      <trkpt lat="44.06635" lon="7.37645">
        <ele>2146.2800292969</ele>
        <time>2010-09-05T09:24:14Z</time>
      </trkpt>
      <trkpt lat="44.06632" lon="7.37642">
        <ele>2146.2800292969</ele>
        <time>2010-09-05T09:24:15Z</time>
      </trkpt>
      <trkpt lat="44.06625" lon="7.37634">
        <ele>2144.3601074219</ele>
        <time>2010-09-05T09:24:18Z</time>
      </trkpt>
      <trkpt lat="44.06618" lon="7.37625">
        <ele>2143.3999023438</ele>
        <time>2010-09-05T09:24:22Z</time>
      </trkpt>
      <trkpt lat="44.06612" lon="7.37615">
        <ele>2141.9499511719</ele>
        <time>2010-09-05T09:24:26Z</time>
      </trkpt>
      <trkpt lat="44.06609" lon="7.37605">
        <ele>2140.9899902344</ele>
        <time>2010-09-05T09:24:30Z</time>
      </trkpt>
      <trkpt lat="44.066" lon="7.37603">
        <ele>2138.5900878906</ele>
        <time>2010-09-05T09:24:36Z</time>
      </trkpt>
      <trkpt lat="44.06598" lon="7.37603">
        <ele>2138.1101074219</ele>
        <time>2010-09-05T09:24:37Z</time>
      </trkpt>
      <trkpt lat="44.06595" lon="7.37603">
        <ele>2137.1499023438</ele>
        <time>2010-09-05T09:24:39Z</time>
      </trkpt>
      <trkpt lat="44.06586" lon="7.376">
        <ele>2133.7800292969</ele>
        <time>2010-09-05T09:24:45Z</time>
      </trkpt>
      <trkpt lat="44.06581" lon="7.37599">
        <ele>2132.3400878906</ele>
        <time>2010-09-05T09:24:48Z</time>
      </trkpt>
      <trkpt lat="44.06574" lon="7.376">
        <ele>2128.0200195312</ele>
        <time>2010-09-05T09:24:55Z</time>
      </trkpt>
      <trkpt lat="44.06569" lon="7.37595">
        <ele>2126.5700683594</ele>
        <time>2010-09-05T09:24:58Z</time>
      </trkpt>
      <trkpt lat="44.06561" lon="7.37582">
        <ele>2124.6499023438</ele>
        <time>2010-09-05T09:25:05Z</time>
      </trkpt>
      <trkpt lat="44.06557" lon="7.37579">
        <ele>2122.25</ele>
        <time>2010-09-05T09:25:07Z</time>
      </trkpt>
      <trkpt lat="44.06548" lon="7.37572">
        <ele>2118.8798828125</ele>
        <time>2010-09-05T09:25:11Z</time>
      </trkpt>
      <trkpt lat="44.06535" lon="7.3756">
        <ele>2116</ele>
        <time>2010-09-05T09:25:17Z</time>
      </trkpt>
      <trkpt lat="44.0653" lon="7.37555">
        <ele>2112.6298828125</ele>
        <time>2010-09-05T09:25:20Z</time>
      </trkpt>
      <trkpt lat="44.06527" lon="7.37553">
        <ele>2112.6298828125</ele>
        <time>2010-09-05T09:25:21Z</time>
      </trkpt>
      <trkpt lat="44.06518" lon="7.37548">
        <ele>2108.3100585938</ele>
        <time>2010-09-05T09:25:25Z</time>
      </trkpt>
      <trkpt lat="44.06515" lon="7.37546">
        <ele>2108.3100585938</ele>
        <time>2010-09-05T09:25:26Z</time>
      </trkpt>
      <trkpt lat="44.06498" lon="7.37528">
        <ele>2104.9399414062</ele>
        <time>2010-09-05T09:25:33Z</time>
      </trkpt>
      <trkpt lat="44.06496" lon="7.37526">
        <ele>2104.9399414062</ele>
        <time>2010-09-05T09:25:34Z</time>
      </trkpt>
      <trkpt lat="44.06486" lon="7.37531">
        <ele>2101.580078125</ele>
        <time>2010-09-05T09:25:39Z</time>
      </trkpt>
      <trkpt lat="44.06483" lon="7.37539">
        <ele>2100.1398925781</ele>
        <time>2010-09-05T09:25:42Z</time>
      </trkpt>
      <trkpt lat="44.06487" lon="7.37552">
        <ele>2096.7700195312</ele>
        <time>2010-09-05T09:25:47Z</time>
      </trkpt>
      <trkpt lat="44.06485" lon="7.37558">
        <ele>2094.3701171875</ele>
        <time>2010-09-05T09:25:49Z</time>
      </trkpt>
      <trkpt lat="44.06472" lon="7.3758">
        <ele>2091</ele>
        <time>2010-09-05T09:25:56Z</time>
      </trkpt>
      <trkpt lat="44.06464" lon="7.37587">
        <ele>2087.1599121094</ele>
        <time>2010-09-05T09:26:03Z</time>
      </trkpt>
      <trkpt lat="44.06455" lon="7.37588">
        <ele>2083.7900390625</ele>
        <time>2010-09-05T09:26:09Z</time>
      </trkpt>
      <trkpt lat="44.06443" lon="7.3759">
        <ele>2079.9499511719</ele>
        <time>2010-09-05T09:26:15Z</time>
      </trkpt>
      <trkpt lat="44.06441" lon="7.3759">
        <ele>2079.9499511719</ele>
        <time>2010-09-05T09:26:16Z</time>
      </trkpt>
      <trkpt lat="44.06439" lon="7.37591">
        <ele>2079.4699707031</ele>
        <time>2010-09-05T09:26:17Z</time>
      </trkpt>
      <trkpt lat="44.06435" lon="7.37592">
        <ele>2078.9899902344</ele>
        <time>2010-09-05T09:26:19Z</time>
      </trkpt>
      <trkpt lat="44.06448" lon="7.37611">
        <ele>2076.1000976562</ele>
        <time>2010-09-05T09:26:28Z</time>
      </trkpt>
      <trkpt lat="44.06449" lon="7.37614">
        <ele>2075.6201171875</ele>
        <time>2010-09-05T09:26:29Z</time>
      </trkpt>
      <trkpt lat="44.0645" lon="7.37619">
        <ele>2073.6999511719</ele>
        <time>2010-09-05T09:26:31Z</time>
      </trkpt>
      <trkpt lat="44.06448" lon="7.37622">
        <ele>2073.2199707031</ele>
        <time>2010-09-05T09:26:33Z</time>
      </trkpt>
      <trkpt lat="44.06438" lon="7.37613">
        <ele>2070.3400878906</ele>
        <time>2010-09-05T09:26:38Z</time>
      </trkpt>
      <trkpt lat="44.06423" lon="7.37614">
        <ele>2067.9299316406</ele>
        <time>2010-09-05T09:26:44Z</time>
      </trkpt>
      <trkpt lat="44.06419" lon="7.37617">
        <ele>2067.4499511719</ele>
        <time>2010-09-05T09:26:46Z</time>
      </trkpt>
      <trkpt lat="44.06416" lon="7.37621">
        <ele>2066.4899902344</ele>
        <time>2010-09-05T09:26:49Z</time>
      </trkpt>
      <trkpt lat="44.06415" lon="7.37627">
        <ele>2064.0900878906</ele>
        <time>2010-09-05T09:26:52Z</time>
      </trkpt>
      <trkpt lat="44.06413" lon="7.37625">
        <ele>2062.169921875</ele>
        <time>2010-09-05T09:26:56Z</time>
      </trkpt>
      <trkpt lat="44.06411" lon="7.37624">
        <ele>2061.6799316406</ele>
        <time>2010-09-05T09:26:57Z</time>
      </trkpt>
      <trkpt lat="44.06408" lon="7.37617">
        <ele>2060.2399902344</ele>
        <time>2010-09-05T09:27:00Z</time>
      </trkpt>
      <trkpt lat="44.06403" lon="7.3761">
        <ele>2056.8798828125</ele>
        <time>2010-09-05T09:27:04Z</time>
      </trkpt>
      <trkpt lat="44.06401" lon="7.37609">
        <ele>2057.8400878906</ele>
        <time>2010-09-05T09:27:05Z</time>
      </trkpt>
      <trkpt lat="44.06398" lon="7.37604">
        <ele>2055.4399414062</ele>
        <time>2010-09-05T09:27:10Z</time>
      </trkpt>
      <trkpt lat="44.06397" lon="7.37614">
        <ele>2053.5100097656</ele>
        <time>2010-09-05T09:27:15Z</time>
      </trkpt>
      <trkpt lat="44.06398" lon="7.37628">
        <ele>2050.6298828125</ele>
        <time>2010-09-05T09:27:20Z</time>
      </trkpt>
      <trkpt lat="44.06397" lon="7.37641">
        <ele>2047.2600097656</ele>
        <time>2010-09-05T09:27:25Z</time>
      </trkpt>
      <trkpt lat="44.06397" lon="7.37649">
        <ele>2046.7800292969</ele>
        <time>2010-09-05T09:27:28Z</time>
      </trkpt>
      <trkpt lat="44.06397" lon="7.37656">
        <ele>2045.3399658203</ele>
        <time>2010-09-05T09:27:30Z</time>
      </trkpt>
      <trkpt lat="44.06398" lon="7.37673">
        <ele>2042.4599609375</ele>
        <time>2010-09-05T09:27:36Z</time>
      </trkpt>
      <trkpt lat="44.06397" lon="7.37676">
        <ele>2042.4599609375</ele>
        <time>2010-09-05T09:27:37Z</time>
      </trkpt>
      <trkpt lat="44.06397" lon="7.37679">
        <ele>2042.4599609375</ele>
        <time>2010-09-05T09:27:38Z</time>
      </trkpt>
      <trkpt lat="44.06395" lon="7.37689">
        <ele>2040.0500488281</ele>
        <time>2010-09-05T09:27:42Z</time>
      </trkpt>
      <trkpt lat="44.06398" lon="7.37695">
        <ele>2038.1300048828</ele>
        <time>2010-09-05T09:27:46Z</time>
      </trkpt>
      <trkpt lat="44.06398" lon="7.37697">
        <ele>2037.6500244141</ele>
        <time>2010-09-05T09:27:48Z</time>
      </trkpt>
      <trkpt lat="44.0639" lon="7.37705">
        <ele>2034.2900390625</ele>
        <time>2010-09-05T09:27:54Z</time>
      </trkpt>
      <trkpt lat="44.06387" lon="7.37704">
        <ele>2033.8100585938</ele>
        <time>2010-09-05T09:27:56Z</time>
      </trkpt>
      <trkpt lat="44.06383" lon="7.37698">
        <ele>2031.8800048828</ele>
        <time>2010-09-05T09:27:59Z</time>
      </trkpt>
      <trkpt lat="44.06378" lon="7.37686">
        <ele>2028.5200195312</ele>
        <time>2010-09-05T09:28:06Z</time>
      </trkpt>
      <trkpt lat="44.06376" lon="7.3768">
        <ele>2026.5999755859</ele>
        <time>2010-09-05T09:28:11Z</time>
      </trkpt>
      <trkpt lat="44.0637" lon="7.37675">
        <ele>2022.75</ele>
        <time>2010-09-05T09:28:18Z</time>
      </trkpt>
      <trkpt lat="44.06369" lon="7.37673">
        <ele>2023.7099609375</ele>
        <time>2010-09-05T09:28:19Z</time>
      </trkpt>
      <trkpt lat="44.06366" lon="7.37668">
        <ele>2021.3100585938</ele>
        <time>2010-09-05T09:28:23Z</time>
      </trkpt>
      <trkpt lat="44.06359" lon="7.3766">
        <ele>2017.9399414062</ele>
        <time>2010-09-05T09:28:29Z</time>
      </trkpt>
      <trkpt lat="44.06358" lon="7.37659">
        <ele>2017.9399414062</ele>
        <time>2010-09-05T09:28:30Z</time>
      </trkpt>
      <trkpt lat="44.06353" lon="7.3765">
        <ele>2014.5799560547</ele>
        <time>2010-09-05T09:28:34Z</time>
      </trkpt>
      <trkpt lat="44.06343" lon="7.37641">
        <ele>2012.1800537109</ele>
        <time>2010-09-05T09:28:39Z</time>
      </trkpt>
      <trkpt lat="44.06327" lon="7.3765">
        <ele>2011.2199707031</ele>
        <time>2010-09-05T09:28:47Z</time>
      </trkpt>
      <trkpt lat="44.06314" lon="7.37657">
        <ele>2010.25</ele>
        <time>2010-09-05T09:28:53Z</time>
      </trkpt>
      <trkpt lat="44.06303" lon="7.37659">
        <ele>2009.7700195312</ele>
        <time>2010-09-05T09:28:59Z</time>
      </trkpt>
      <trkpt lat="44.06298" lon="7.37663">
        <ele>2009.7700195312</ele>
        <time>2010-09-05T09:29:03Z</time>
      </trkpt>
      <trkpt lat="44.06287" lon="7.37664">
        <ele>2007.3699951172</ele>
        <time>2010-09-05T09:29:09Z</time>
      </trkpt>
      <trkpt lat="44.06281" lon="7.37663">
        <ele>2004.9699707031</ele>
        <time>2010-09-05T09:29:12Z</time>
      </trkpt>
      <trkpt lat="44.06275" lon="7.37669">
        <ele>2004.4899902344</ele>
        <time>2010-09-05T09:29:16Z</time>
      </trkpt>
      <trkpt lat="44.06271" lon="7.37681">
        <ele>2000.1600341797</ele>
        <time>2010-09-05T09:29:21Z</time>
      </trkpt>
      <trkpt lat="44.06269" lon="7.37683">
        <ele>2000.1600341797</ele>
        <time>2010-09-05T09:29:22Z</time>
      </trkpt>
      <trkpt lat="44.06263" lon="7.37687">
        <ele>1999.1999511719</ele>
        <time>2010-09-05T09:29:25Z</time>
      </trkpt>
      <trkpt lat="44.06256" lon="7.37688">
        <ele>1996.3199462891</ele>
        <time>2010-09-05T09:29:32Z</time>
      </trkpt>
      <trkpt lat="44.06254" lon="7.37689">
        <ele>1995.8299560547</ele>
        <time>2010-09-05T09:29:36Z</time>
      </trkpt>
      <trkpt lat="44.06247" lon="7.37684">
        <ele>1992.9499511719</ele>
        <time>2010-09-05T09:29:41Z</time>
      </trkpt>
      <trkpt lat="44.06245" lon="7.37683">
        <ele>1991.5100097656</ele>
        <time>2010-09-05T09:29:42Z</time>
      </trkpt>
      <trkpt lat="44.06235" lon="7.3767">
        <ele>1991.0300292969</ele>
        <time>2010-09-05T09:29:48Z</time>
      </trkpt>
      <trkpt lat="44.06225" lon="7.37667">
        <ele>1987.6600341797</ele>
        <time>2010-09-05T09:29:55Z</time>
      </trkpt>
      <trkpt lat="44.06219" lon="7.37678">
        <ele>1984.3000488281</ele>
        <time>2010-09-05T09:30:04Z</time>
      </trkpt>
      <trkpt lat="44.06223" lon="7.37695">
        <ele>1980.9300537109</ele>
        <time>2010-09-05T09:30:10Z</time>
      </trkpt>
      <trkpt lat="44.06224" lon="7.37698">
        <ele>1981.4100341797</ele>
        <time>2010-09-05T09:30:11Z</time>
      </trkpt>
      <trkpt lat="44.06219" lon="7.37705">
        <ele>1977.0899658203</ele>
        <time>2010-09-05T09:30:18Z</time>
      </trkpt>
      <trkpt lat="44.06206" lon="7.37693">
        <ele>1974.1999511719</ele>
        <time>2010-09-05T09:30:25Z</time>
      </trkpt>
      <trkpt lat="44.06198" lon="7.37682">
        <ele>1970.8399658203</ele>
        <time>2010-09-05T09:30:31Z</time>
      </trkpt>
      <trkpt lat="44.06196" lon="7.37681">
        <ele>1970.8399658203</ele>
        <time>2010-09-05T09:30:32Z</time>
      </trkpt>
      <trkpt lat="44.06186" lon="7.37683">
        <ele>1967.4799804688</ele>
        <time>2010-09-05T09:30:38Z</time>
      </trkpt>
      <trkpt lat="44.06173" lon="7.37683">
        <ele>1966.9899902344</ele>
        <time>2010-09-05T09:30:44Z</time>
      </trkpt>
      <trkpt lat="44.06172" lon="7.37687">
        <ele>1964.5899658203</ele>
        <time>2010-09-05T09:30:49Z</time>
      </trkpt>
      <trkpt lat="44.06168" lon="7.37688">
        <ele>1962.1899414062</ele>
        <time>2010-09-05T09:30:54Z</time>
      </trkpt>
      <trkpt lat="44.06164" lon="7.37688">
        <ele>1961.2299804688</ele>
        <time>2010-09-05T09:30:56Z</time>
      </trkpt>
      <trkpt lat="44.0616" lon="7.37689">
        <ele>1960.75</ele>
        <time>2010-09-05T09:30:58Z</time>
      </trkpt>
      <trkpt lat="44.06155" lon="7.377">
        <ele>1957.3800048828</ele>
        <time>2010-09-05T09:31:04Z</time>
      </trkpt>
      <trkpt lat="44.06153" lon="7.37707">
        <ele>1955.4599609375</ele>
        <time>2010-09-05T09:31:08Z</time>
      </trkpt>
      <trkpt lat="44.06153" lon="7.3771">
        <ele>1954.9799804688</ele>
        <time>2010-09-05T09:31:10Z</time>
      </trkpt>
      <trkpt lat="44.06152" lon="7.37717">
        <ele>1953.5400390625</ele>
        <time>2010-09-05T09:31:13Z</time>
      </trkpt>
      <trkpt lat="44.06149" lon="7.37722">
        <ele>1951.1300048828</ele>
        <time>2010-09-05T09:31:16Z</time>
      </trkpt>
      <trkpt lat="44.06144" lon="7.37732">
        <ele>1949.2099609375</ele>
        <time>2010-09-05T09:31:22Z</time>
      </trkpt>
      <trkpt lat="44.06143" lon="7.3774">
        <ele>1946.8100585938</ele>
        <time>2010-09-05T09:31:26Z</time>
      </trkpt>
      <trkpt lat="44.06143" lon="7.37742">
        <ele>1945.8499755859</ele>
        <time>2010-09-05T09:31:27Z</time>
      </trkpt>
      <trkpt lat="44.06141" lon="7.37752">
        <ele>1942.4799804688</ele>
        <time>2010-09-05T09:31:32Z</time>
      </trkpt>
      <trkpt lat="44.06145" lon="7.37754">
        <ele>1941.5200195312</ele>
        <time>2010-09-05T09:31:35Z</time>
      </trkpt>
      <trkpt lat="44.06152" lon="7.37754">
        <ele>1940.5600585938</ele>
        <time>2010-09-05T09:31:39Z</time>
      </trkpt>
      <trkpt lat="44.06152" lon="7.37763">
        <ele>1937.1899414062</ele>
        <time>2010-09-05T09:31:44Z</time>
      </trkpt>
      <trkpt lat="44.06157" lon="7.37768">
        <ele>1935.2700195312</ele>
        <time>2010-09-05T09:31:49Z</time>
      </trkpt>
      <trkpt lat="44.06155" lon="7.37773">
        <ele>1933.8299560547</ele>
        <time>2010-09-05T09:31:52Z</time>
      </trkpt>
      <trkpt lat="44.06156" lon="7.37777">
        <ele>1932.3900146484</ele>
        <time>2010-09-05T09:31:54Z</time>
      </trkpt>
      <trkpt lat="44.06157" lon="7.37782">
        <ele>1931.4300537109</ele>
        <time>2010-09-05T09:31:56Z</time>
      </trkpt>
      <trkpt lat="44.06158" lon="7.37787">
        <ele>1929.5</ele>
        <time>2010-09-05T09:31:59Z</time>
      </trkpt>
      <trkpt lat="44.06158" lon="7.37791">
        <ele>1928.5400390625</ele>
        <time>2010-09-05T09:32:02Z</time>
      </trkpt>
      <trkpt lat="44.06157" lon="7.37796">
        <ele>1927.0999755859</ele>
        <time>2010-09-05T09:32:06Z</time>
      </trkpt>
      <trkpt lat="44.06156" lon="7.37797">
        <ele>1927.0999755859</ele>
        <time>2010-09-05T09:32:07Z</time>
      </trkpt>
      <trkpt lat="44.06153" lon="7.37809">
        <ele>1923.7399902344</ele>
        <time>2010-09-05T09:32:14Z</time>
      </trkpt>
      <trkpt lat="44.06144" lon="7.37812">
        <ele>1921.3299560547</ele>
        <time>2010-09-05T09:32:19Z</time>
      </trkpt>
      <trkpt lat="44.06138" lon="7.37813">
        <ele>1920.3699951172</ele>
        <time>2010-09-05T09:32:23Z</time>
      </trkpt>
      <trkpt lat="44.06132" lon="7.37816">
        <ele>1917.4899902344</ele>
        <time>2010-09-05T09:32:28Z</time>
      </trkpt>
      <trkpt lat="44.0613" lon="7.37817">
        <ele>1917.0100097656</ele>
        <time>2010-09-05T09:32:29Z</time>
      </trkpt>
      <trkpt lat="44.06115" lon="7.37819">
        <ele>1914.1199951172</ele>
        <time>2010-09-05T09:32:36Z</time>
      </trkpt>
      <trkpt lat="44.06111" lon="7.3782">
        <ele>1912.1999511719</ele>
        <time>2010-09-05T09:32:38Z</time>
      </trkpt>
      <trkpt lat="44.06099" lon="7.37824">
        <ele>1908.8299560547</ele>
        <time>2010-09-05T09:32:45Z</time>
      </trkpt>
      <trkpt lat="44.06098" lon="7.37826">
        <ele>1907.8699951172</ele>
        <time>2010-09-05T09:32:46Z</time>
      </trkpt>
      <trkpt lat="44.06095" lon="7.3783">
        <ele>1906.4300537109</ele>
        <time>2010-09-05T09:32:48Z</time>
      </trkpt>
      <trkpt lat="44.06091" lon="7.37833">
        <ele>1905.4699707031</ele>
        <time>2010-09-05T09:32:51Z</time>
      </trkpt>
      <trkpt lat="44.06089" lon="7.37842">
        <ele>1904.0300292969</ele>
        <time>2010-09-05T09:32:56Z</time>
      </trkpt>
      <trkpt lat="44.06089" lon="7.37846">
        <ele>1903.0699462891</ele>
        <time>2010-09-05T09:32:58Z</time>
      </trkpt>
      <trkpt lat="44.06089" lon="7.3785">
        <ele>1901.1400146484</ele>
        <time>2010-09-05T09:33:00Z</time>
      </trkpt>
      <trkpt lat="44.06088" lon="7.37856">
        <ele>1900.6600341797</ele>
        <time>2010-09-05T09:33:03Z</time>
      </trkpt>
      <trkpt lat="44.06084" lon="7.37865">
        <ele>1898.2600097656</ele>
        <time>2010-09-05T09:33:09Z</time>
      </trkpt>
      <trkpt lat="44.06088" lon="7.37871">
        <ele>1896.3399658203</ele>
        <time>2010-09-05T09:33:12Z</time>
      </trkpt>
      <trkpt lat="44.06099" lon="7.37879">
        <ele>1892.9699707031</ele>
        <time>2010-09-05T09:33:19Z</time>
      </trkpt>
      <trkpt lat="44.06108" lon="7.37884">
        <ele>1891.0500488281</ele>
        <time>2010-09-05T09:33:24Z</time>
      </trkpt>
      <trkpt lat="44.0611" lon="7.37896">
        <ele>1886.7199707031</ele>
        <time>2010-09-05T09:33:30Z</time>
      </trkpt>
      <trkpt lat="44.06114" lon="7.37902">
        <ele>1885.7600097656</ele>
        <time>2010-09-05T09:33:34Z</time>
      </trkpt>
      <trkpt lat="44.06119" lon="7.37907">
        <ele>1884.3199462891</ele>
        <time>2010-09-05T09:33:37Z</time>
      </trkpt>
      <trkpt lat="44.06123" lon="7.37909">
        <ele>1883.3599853516</ele>
        <time>2010-09-05T09:33:39Z</time>
      </trkpt>
      <trkpt lat="44.06141" lon="7.37933">
        <ele>1880.4799804688</ele>
        <time>2010-09-05T09:33:49Z</time>
      </trkpt>
      <trkpt lat="44.06144" lon="7.37938">
        <ele>1878.0699462891</ele>
        <time>2010-09-05T09:33:51Z</time>
      </trkpt>
      <trkpt lat="44.06134" lon="7.3794">
        <ele>1874.7099609375</ele>
        <time>2010-09-05T09:33:59Z</time>
      </trkpt>
      <trkpt lat="44.06125" lon="7.37937">
        <ele>1873.75</ele>
        <time>2010-09-05T09:34:03Z</time>
      </trkpt>
      <trkpt lat="44.06121" lon="7.37938">
        <ele>1873.2700195312</ele>
        <time>2010-09-05T09:34:05Z</time>
      </trkpt>
      <trkpt lat="44.06119" lon="7.3794">
        <ele>1872.3000488281</ele>
        <time>2010-09-05T09:34:07Z</time>
      </trkpt>
      <trkpt lat="44.06121" lon="7.37946">
        <ele>1870.3800048828</ele>
        <time>2010-09-05T09:34:10Z</time>
      </trkpt>
      <trkpt lat="44.06123" lon="7.37949">
        <ele>1869.9000244141</ele>
        <time>2010-09-05T09:34:11Z</time>
      </trkpt>
      <trkpt lat="44.06124" lon="7.37957">
        <ele>1868.4599609375</ele>
        <time>2010-09-05T09:34:15Z</time>
      </trkpt>
      <trkpt lat="44.06125" lon="7.3797">
        <ele>1866.5400390625</ele>
        <time>2010-09-05T09:34:20Z</time>
      </trkpt>
      <trkpt lat="44.06126" lon="7.37971">
        <ele>1865.0899658203</ele>
        <time>2010-09-05T09:34:22Z</time>
      </trkpt>
      <trkpt lat="44.06131" lon="7.37971">
        <ele>1863.6500244141</ele>
        <time>2010-09-05T09:34:25Z</time>
      </trkpt>
      <trkpt lat="44.06136" lon="7.37977">
        <ele>1861.25</ele>
        <time>2010-09-05T09:34:28Z</time>
      </trkpt>
      <trkpt lat="44.06137" lon="7.37983">
        <ele>1860.7700195312</ele>
        <time>2010-09-05T09:34:30Z</time>
      </trkpt>
      <trkpt lat="44.0614" lon="7.37996">
        <ele>1856.4399414062</ele>
        <time>2010-09-05T09:34:35Z</time>
      </trkpt>
      <trkpt lat="44.06142" lon="7.38">
        <ele>1854.5200195312</ele>
        <time>2010-09-05T09:34:39Z</time>
      </trkpt>
      <trkpt lat="44.06142" lon="7.38006">
        <ele>1853.5600585938</ele>
        <time>2010-09-05T09:34:43Z</time>
      </trkpt>
      <trkpt lat="44.06143" lon="7.38015">
        <ele>1851.1600341797</ele>
        <time>2010-09-05T09:34:49Z</time>
      </trkpt>
      <trkpt lat="44.06142" lon="7.38018">
        <ele>1849.2299804688</ele>
        <time>2010-09-05T09:34:51Z</time>
      </trkpt>
      <trkpt lat="44.06141" lon="7.38023">
        <ele>1848.75</ele>
        <time>2010-09-05T09:34:54Z</time>
      </trkpt>
      <trkpt lat="44.06141" lon="7.38035">
        <ele>1845.3900146484</ele>
        <time>2010-09-05T09:34:59Z</time>
      </trkpt>
      <trkpt lat="44.06142" lon="7.3804">
        <ele>1844.9100341797</ele>
        <time>2010-09-05T09:35:01Z</time>
      </trkpt>
      <trkpt lat="44.06146" lon="7.38047">
        <ele>1842.5</ele>
        <time>2010-09-05T09:35:05Z</time>
      </trkpt>
      <trkpt lat="44.06147" lon="7.38049">
        <ele>1842.5</ele>
        <time>2010-09-05T09:35:07Z</time>
      </trkpt>
      <trkpt lat="44.06148" lon="7.38054">
        <ele>1840.5799560547</ele>
        <time>2010-09-05T09:35:10Z</time>
      </trkpt>
      <trkpt lat="44.06147" lon="7.38062">
        <ele>1837.6999511719</ele>
        <time>2010-09-05T09:35:16Z</time>
      </trkpt>
      <trkpt lat="44.06151" lon="7.38075">
        <ele>1834.8100585938</ele>
        <time>2010-09-05T09:35:24Z</time>
      </trkpt>
      <trkpt lat="44.06156" lon="7.38082">
        <ele>1833.8499755859</ele>
        <time>2010-09-05T09:35:27Z</time>
      </trkpt>
      <trkpt lat="44.06156" lon="7.38085">
        <ele>1832.4100341797</ele>
        <time>2010-09-05T09:35:29Z</time>
      </trkpt>
      <trkpt lat="44.06149" lon="7.38084">
        <ele>1830.9699707031</ele>
        <time>2010-09-05T09:35:33Z</time>
      </trkpt>
      <trkpt lat="44.06142" lon="7.38084">
        <ele>1830.0100097656</ele>
        <time>2010-09-05T09:35:36Z</time>
      </trkpt>
      <trkpt lat="44.06135" lon="7.38092">
        <ele>1826.1600341797</ele>
        <time>2010-09-05T09:35:42Z</time>
      </trkpt>
      <trkpt lat="44.06132" lon="7.38097">
        <ele>1825.1999511719</ele>
        <time>2010-09-05T09:35:46Z</time>
      </trkpt>
      <trkpt lat="44.06134" lon="7.38103">
        <ele>1822.3199462891</ele>
        <time>2010-09-05T09:35:51Z</time>
      </trkpt>
      <trkpt lat="44.06141" lon="7.38114">
        <ele>1817.9899902344</ele>
        <time>2010-09-05T09:35:58Z</time>
      </trkpt>
      <trkpt lat="44.06149" lon="7.38124">
        <ele>1816.0699462891</ele>
        <time>2010-09-05T09:36:03Z</time>
      </trkpt>
      <trkpt lat="44.0615" lon="7.38141">
        <ele>1814.1500244141</ele>
        <time>2010-09-05T09:36:09Z</time>
      </trkpt>
      <trkpt lat="44.0615" lon="7.38147">
        <ele>1812.2199707031</ele>
        <time>2010-09-05T09:36:11Z</time>
      </trkpt>
      <trkpt lat="44.06151" lon="7.38156">
        <ele>1808.8599853516</ele>
        <time>2010-09-05T09:36:16Z</time>
      </trkpt>
      <trkpt lat="44.06146" lon="7.38163">
        <ele>1806.4499511719</ele>
        <time>2010-09-05T09:36:21Z</time>
      </trkpt>
      <trkpt lat="44.06147" lon="7.38165">
        <ele>1806.4499511719</ele>
        <time>2010-09-05T09:36:22Z</time>
      </trkpt>
      <trkpt lat="44.06148" lon="7.38167">
        <ele>1807.4200439453</ele>
        <time>2010-09-05T09:36:23Z</time>
      </trkpt>
      <trkpt lat="44.06151" lon="7.38177">
        <ele>1805.9699707031</ele>
        <time>2010-09-05T09:36:26Z</time>
      </trkpt>
      <trkpt lat="44.06151" lon="7.38182">
        <ele>1804.5300292969</ele>
        <time>2010-09-05T09:36:28Z</time>
      </trkpt>
      <trkpt lat="44.06142" lon="7.38185">
        <ele>1801.1700439453</ele>
        <time>2010-09-05T09:36:33Z</time>
      </trkpt>
      <trkpt lat="44.06139" lon="7.38192">
        <ele>1800.2099609375</ele>
        <time>2010-09-05T09:36:37Z</time>
      </trkpt>
      <trkpt lat="44.06136" lon="7.38198">
        <ele>1798.2800292969</ele>
        <time>2010-09-05T09:36:40Z</time>
      </trkpt>
      <trkpt lat="44.06132" lon="7.38201">
        <ele>1796.8399658203</ele>
        <time>2010-09-05T09:36:42Z</time>
      </trkpt>
      <trkpt lat="44.06127" lon="7.38209">
        <ele>1794.9200439453</ele>
        <time>2010-09-05T09:36:46Z</time>
      </trkpt>
      <trkpt lat="44.06121" lon="7.38222">
        <ele>1793</ele>
        <time>2010-09-05T09:36:51Z</time>
      </trkpt>
      <trkpt lat="44.0612" lon="7.38224">
        <ele>1792.5200195312</ele>
        <time>2010-09-05T09:36:52Z</time>
      </trkpt>
      <trkpt lat="44.06116" lon="7.38233">
        <ele>1789.6300048828</ele>
        <time>2010-09-05T09:36:57Z</time>
      </trkpt>
      <trkpt lat="44.06114" lon="7.38238">
        <ele>1788.1899414062</ele>
        <time>2010-09-05T09:37:00Z</time>
      </trkpt>
      <trkpt lat="44.06113" lon="7.38241">
        <ele>1787.2299804688</ele>
        <time>2010-09-05T09:37:01Z</time>
      </trkpt>
      <trkpt lat="44.06109" lon="7.38245">
        <ele>1786.2700195312</ele>
        <time>2010-09-05T09:37:03Z</time>
      </trkpt>
      <trkpt lat="44.06104" lon="7.38251">
        <ele>1783.8599853516</ele>
        <time>2010-09-05T09:37:07Z</time>
      </trkpt>
      <trkpt lat="44.06094" lon="7.38263">
        <ele>1780.5</ele>
        <time>2010-09-05T09:37:14Z</time>
      </trkpt>
      <trkpt lat="44.06091" lon="7.38264">
        <ele>1779.5400390625</ele>
        <time>2010-09-05T09:37:16Z</time>
      </trkpt>
      <trkpt lat="44.0609" lon="7.38265">
        <ele>1780.0200195312</ele>
        <time>2010-09-05T09:37:17Z</time>
      </trkpt>
      <trkpt lat="44.06088" lon="7.38272">
        <ele>1778.5799560547</ele>
        <time>2010-09-05T09:37:20Z</time>
      </trkpt>
      <trkpt lat="44.06088" lon="7.38275">
        <ele>1778.0999755859</ele>
        <time>2010-09-05T09:37:21Z</time>
      </trkpt>
      <trkpt lat="44.06087" lon="7.38293">
        <ele>1775.2099609375</ele>
        <time>2010-09-05T09:37:26Z</time>
      </trkpt>
      <trkpt lat="44.06079" lon="7.38293">
        <ele>1773.2900390625</ele>
        <time>2010-09-05T09:37:31Z</time>
      </trkpt>
      <trkpt lat="44.06077" lon="7.38292">
        <ele>1771.8499755859</ele>
        <time>2010-09-05T09:37:33Z</time>
      </trkpt>
      <trkpt lat="44.0607" lon="7.38292">
        <ele>1769.4399414062</ele>
        <time>2010-09-05T09:37:37Z</time>
      </trkpt>
      <trkpt lat="44.06065" lon="7.38293">
        <ele>1768</ele>
        <time>2010-09-05T09:37:39Z</time>
      </trkpt>
      <trkpt lat="44.06052" lon="7.3829">
        <ele>1764.6400146484</ele>
        <time>2010-09-05T09:37:45Z</time>
      </trkpt>
      <trkpt lat="44.0605" lon="7.38289">
        <ele>1764.6400146484</ele>
        <time>2010-09-05T09:37:46Z</time>
      </trkpt>
      <trkpt lat="44.06041" lon="7.38287">
        <ele>1762.7099609375</ele>
        <time>2010-09-05T09:37:50Z</time>
      </trkpt>
      <trkpt lat="44.06036" lon="7.38286">
        <ele>1760.7900390625</ele>
        <time>2010-09-05T09:37:52Z</time>
      </trkpt>
      <trkpt lat="44.06028" lon="7.38279">
        <ele>1759.3499755859</ele>
        <time>2010-09-05T09:37:56Z</time>
      </trkpt>
      <trkpt lat="44.06025" lon="7.38276">
        <ele>1758.3900146484</ele>
        <time>2010-09-05T09:37:59Z</time>
      </trkpt>
      <trkpt lat="44.06018" lon="7.38277">
        <ele>1755.9899902344</ele>
        <time>2010-09-05T09:38:03Z</time>
      </trkpt>
      <trkpt lat="44.0601" lon="7.38278">
        <ele>1754.0600585938</ele>
        <time>2010-09-05T09:38:09Z</time>
      </trkpt>
      <trkpt lat="44.06002" lon="7.38277">
        <ele>1750.2199707031</ele>
        <time>2010-09-05T09:38:16Z</time>
      </trkpt>
      <trkpt lat="44.0599" lon="7.38264">
        <ele>1747.8100585938</ele>
        <time>2010-09-05T09:38:23Z</time>
      </trkpt>
      <trkpt lat="44.05986" lon="7.38258">
        <ele>1746.8499755859</ele>
        <time>2010-09-05T09:38:26Z</time>
      </trkpt>
      <trkpt lat="44.05983" lon="7.38258">
        <ele>1745.4100341797</ele>
        <time>2010-09-05T09:38:29Z</time>
      </trkpt>
      <trkpt lat="44.0598" lon="7.38263">
        <ele>1742.0500488281</ele>
        <time>2010-09-05T09:38:35Z</time>
      </trkpt>
      <trkpt lat="44.05979" lon="7.38265">
        <ele>1741.5699462891</ele>
        <time>2010-09-05T09:38:39Z</time>
      </trkpt>
      <trkpt lat="44.05977" lon="7.38264">
        <ele>1739.6400146484</ele>
        <time>2010-09-05T09:38:42Z</time>
      </trkpt>
      <trkpt lat="44.05967" lon="7.38253">
        <ele>1736.7600097656</ele>
        <time>2010-09-05T09:38:49Z</time>
      </trkpt>
      <trkpt lat="44.05965" lon="7.38252">
        <ele>1735.8000488281</ele>
        <time>2010-09-05T09:38:51Z</time>
      </trkpt>
      <trkpt lat="44.05965" lon="7.38262">
        <ele>1734.3599853516</ele>
        <time>2010-09-05T09:38:56Z</time>
      </trkpt>
      <trkpt lat="44.05963" lon="7.38266">
        <ele>1730.9899902344</ele>
        <time>2010-09-05T09:38:59Z</time>
      </trkpt>
      <trkpt lat="44.0596" lon="7.38264">
        <ele>1731.4699707031</ele>
        <time>2010-09-05T09:39:01Z</time>
      </trkpt>
      <trkpt lat="44.05955" lon="7.38261">
        <ele>1730.0300292969</ele>
        <time>2010-09-05T09:39:04Z</time>
      </trkpt>
      <trkpt lat="44.05949" lon="7.38262">
        <ele>1728.1099853516</ele>
        <time>2010-09-05T09:39:08Z</time>
      </trkpt>
      <trkpt lat="44.05937" lon="7.38256">
        <ele>1723.7800292969</ele>
        <time>2010-09-05T09:39:14Z</time>
      </trkpt>
      <trkpt lat="44.05936" lon="7.38254">
        <ele>1723.7800292969</ele>
        <time>2010-09-05T09:39:15Z</time>
      </trkpt>
      <trkpt lat="44.05934" lon="7.38253">
        <ele>1723.3000488281</ele>
        <time>2010-09-05T09:39:16Z</time>
      </trkpt>
      <trkpt lat="44.05929" lon="7.38249">
        <ele>1721.8599853516</ele>
        <time>2010-09-05T09:39:20Z</time>
      </trkpt>
      <trkpt lat="44.05916" lon="7.38245">
        <ele>1718.0100097656</ele>
        <time>2010-09-05T09:39:27Z</time>
      </trkpt>
      <trkpt lat="44.05909" lon="7.38245">
        <ele>1715.6099853516</ele>
        <time>2010-09-05T09:39:32Z</time>
      </trkpt>
      <trkpt lat="44.05898" lon="7.38245">
        <ele>1711.2800292969</ele>
        <time>2010-09-05T09:39:40Z</time>
      </trkpt>
      <trkpt lat="44.0589" lon="7.38242">
        <ele>1708.4000244141</ele>
        <time>2010-09-05T09:39:45Z</time>
      </trkpt>
      <trkpt lat="44.05888" lon="7.3824">
        <ele>1706.9599609375</ele>
        <time>2010-09-05T09:39:46Z</time>
      </trkpt>
      <trkpt lat="44.05882" lon="7.38232">
        <ele>1705.5200195312</ele>
        <time>2010-09-05T09:39:50Z</time>
      </trkpt>
      <trkpt lat="44.0588" lon="7.38228">
        <ele>1704.5500488281</ele>
        <time>2010-09-05T09:39:52Z</time>
      </trkpt>
      <trkpt lat="44.0588" lon="7.38231">
        <ele>1702.6300048828</ele>
        <time>2010-09-05T09:39:56Z</time>
      </trkpt>
      <trkpt lat="44.05879" lon="7.38233">
        <ele>1700.7099609375</ele>
        <time>2010-09-05T09:39:59Z</time>
      </trkpt>
      <trkpt lat="44.05876" lon="7.38229">
        <ele>1698.7900390625</ele>
        <time>2010-09-05T09:40:02Z</time>
      </trkpt>
      <trkpt lat="44.05867" lon="7.38218">
        <ele>1696.3800048828</ele>
        <time>2010-09-05T09:40:08Z</time>
      </trkpt>
      <trkpt lat="44.05865" lon="7.38216">
        <ele>1694.9399414062</ele>
        <time>2010-09-05T09:40:10Z</time>
      </trkpt>
      <trkpt lat="44.0586" lon="7.38209">
        <ele>1693.0200195312</ele>
        <time>2010-09-05T09:40:14Z</time>
      </trkpt>
      <trkpt lat="44.05857" lon="7.38205">
        <ele>1691.5799560547</ele>
        <time>2010-09-05T09:40:16Z</time>
      </trkpt>
      <trkpt lat="44.05855" lon="7.38202">
        <ele>1691.0999755859</ele>
        <time>2010-09-05T09:40:18Z</time>
      </trkpt>
      <trkpt lat="44.05854" lon="7.38204">
        <ele>1689.1700439453</ele>
        <time>2010-09-05T09:40:21Z</time>
      </trkpt>
      <trkpt lat="44.05847" lon="7.38206">
        <ele>1687.25</ele>
        <time>2010-09-05T09:40:26Z</time>
      </trkpt>
      <trkpt lat="44.05836" lon="7.38194">
        <ele>1683.4100341797</ele>
        <time>2010-09-05T09:40:33Z</time>
      </trkpt>
      <trkpt lat="44.05828" lon="7.38182">
        <ele>1680.5200195312</ele>
        <time>2010-09-05T09:40:39Z</time>
      </trkpt>
      <trkpt lat="44.05822" lon="7.38178">
        <ele>1677.6400146484</ele>
        <time>2010-09-05T09:40:43Z</time>
      </trkpt>
      <trkpt lat="44.05819" lon="7.38175">
        <ele>1675.7199707031</ele>
        <time>2010-09-05T09:40:45Z</time>
      </trkpt>
      <trkpt lat="44.05812" lon="7.38168">
        <ele>1673.7900390625</ele>
        <time>2010-09-05T09:40:49Z</time>
      </trkpt>
      <trkpt lat="44.05806" lon="7.38174">
        <ele>1671.3900146484</ele>
        <time>2010-09-05T09:40:55Z</time>
      </trkpt>
      <trkpt lat="44.05806" lon="7.38186">
        <ele>1667.0600585938</ele>
        <time>2010-09-05T09:41:01Z</time>
      </trkpt>
      <trkpt lat="44.05803" lon="7.38186">
        <ele>1666.5799560547</ele>
        <time>2010-09-05T09:41:03Z</time>
      </trkpt>
      <trkpt lat="44.05801" lon="7.38193">
        <ele>1665.1400146484</ele>
        <time>2010-09-05T09:41:08Z</time>
      </trkpt>
      <trkpt lat="44.05798" lon="7.38204">
        <ele>1660.3299560547</ele>
        <time>2010-09-05T09:41:15Z</time>
      </trkpt>
      <trkpt lat="44.05799" lon="7.3821">
        <ele>1659.3699951172</ele>
        <time>2010-09-05T09:41:18Z</time>
      </trkpt>
      <trkpt lat="44.05801" lon="7.38214">
        <ele>1657.9300537109</ele>
        <time>2010-09-05T09:41:21Z</time>
      </trkpt>
      <trkpt lat="44.05801" lon="7.38224">
        <ele>1656.0100097656</ele>
        <time>2010-09-05T09:41:25Z</time>
      </trkpt>
      <trkpt lat="44.05801" lon="7.3824">
        <ele>1652.6400146484</ele>
        <time>2010-09-05T09:41:30Z</time>
      </trkpt>
      <trkpt lat="44.058" lon="7.38249">
        <ele>1649.2800292969</ele>
        <time>2010-09-05T09:41:35Z</time>
      </trkpt>
      <trkpt lat="44.05799" lon="7.3825">
        <ele>1648.8000488281</ele>
        <time>2010-09-05T09:41:36Z</time>
      </trkpt>
      <trkpt lat="44.05792" lon="7.38251">
        <ele>1646.8800048828</ele>
        <time>2010-09-05T09:41:41Z</time>
      </trkpt>
      <trkpt lat="44.05797" lon="7.38276">
        <ele>1642.0699462891</ele>
        <time>2010-09-05T09:41:49Z</time>
      </trkpt>
      <trkpt lat="44.05801" lon="7.3829">
        <ele>1639.6700439453</ele>
        <time>2010-09-05T09:41:53Z</time>
      </trkpt>
      <trkpt lat="44.05799" lon="7.38298">
        <ele>1636.7800292969</ele>
        <time>2010-09-05T09:41:57Z</time>
      </trkpt>
      <trkpt lat="44.05796" lon="7.38298">
        <ele>1635.3399658203</ele>
        <time>2010-09-05T09:41:58Z</time>
      </trkpt>
      <trkpt lat="44.05772" lon="7.38302">
        <ele>1631.0100097656</ele>
        <time>2010-09-05T09:42:05Z</time>
      </trkpt>
      <trkpt lat="44.0576" lon="7.3831">
        <ele>1627.6500244141</ele>
        <time>2010-09-05T09:42:10Z</time>
      </trkpt>
      <trkpt lat="44.05758" lon="7.38312">
        <ele>1627.1700439453</ele>
        <time>2010-09-05T09:42:11Z</time>
      </trkpt>
      <trkpt lat="44.05749" lon="7.38321">
        <ele>1623.8000488281</ele>
        <time>2010-09-05T09:42:15Z</time>
      </trkpt>
      <trkpt lat="44.05742" lon="7.38329">
        <ele>1620.9200439453</ele>
        <time>2010-09-05T09:42:19Z</time>
      </trkpt>
      <trkpt lat="44.05737" lon="7.3833">
        <ele>1619.9599609375</ele>
        <time>2010-09-05T09:42:21Z</time>
      </trkpt>
      <trkpt lat="44.0573" lon="7.3833">
        <ele>1616.5899658203</ele>
        <time>2010-09-05T09:42:24Z</time>
      </trkpt>
      <trkpt lat="44.0572" lon="7.3833">
        <ele>1614.6700439453</ele>
        <time>2010-09-05T09:42:28Z</time>
      </trkpt>
      <trkpt lat="44.05713" lon="7.38349">
        <ele>1609.8599853516</ele>
        <time>2010-09-05T09:42:35Z</time>
      </trkpt>
      <trkpt lat="44.05714" lon="7.38352">
        <ele>1610.3499755859</ele>
        <time>2010-09-05T09:42:36Z</time>
      </trkpt>
      <trkpt lat="44.05716" lon="7.38376">
        <ele>1606.0200195312</ele>
        <time>2010-09-05T09:42:43Z</time>
      </trkpt>
      <trkpt lat="44.05714" lon="7.38387">
        <ele>1605.0600585938</ele>
        <time>2010-09-05T09:42:56Z</time>
      </trkpt>
      <trkpt lat="44.05713" lon="7.38387">
        <ele>1604.0999755859</ele>
        <time>2010-09-05T09:43:07Z</time>
      </trkpt>
      <trkpt lat="44.05695" lon="7.38383">
        <ele>1602.1700439453</ele>
        <time>2010-09-05T09:43:13Z</time>
      </trkpt>
      <trkpt lat="44.05684" lon="7.38386">
        <ele>1599.7700195312</ele>
        <time>2010-09-05T09:43:18Z</time>
      </trkpt>
      <trkpt lat="44.05679" lon="7.3839">
        <ele>1597.8499755859</ele>
        <time>2010-09-05T09:43:21Z</time>
      </trkpt>
      <trkpt lat="44.05674" lon="7.38402">
        <ele>1594.9599609375</ele>
        <time>2010-09-05T09:43:26Z</time>
      </trkpt>
      <trkpt lat="44.05666" lon="7.38413">
        <ele>1592.0799560547</ele>
        <time>2010-09-05T09:43:33Z</time>
      </trkpt>
      <trkpt lat="44.05659" lon="7.3842">
        <ele>1588.7199707031</ele>
        <time>2010-09-05T09:43:37Z</time>
      </trkpt>
      <trkpt lat="44.05655" lon="7.38428">
        <ele>1587.2700195312</ele>
        <time>2010-09-05T09:43:40Z</time>
      </trkpt>
      <trkpt lat="44.05653" lon="7.38434">
        <ele>1585.3499755859</ele>
        <time>2010-09-05T09:43:42Z</time>
      </trkpt>
      <trkpt lat="44.05651" lon="7.38438">
        <ele>1583.9100341797</ele>
        <time>2010-09-05T09:43:44Z</time>
      </trkpt>
      <trkpt lat="44.05649" lon="7.38445">
        <ele>1581.9899902344</ele>
        <time>2010-09-05T09:43:47Z</time>
      </trkpt>
      <trkpt lat="44.05647" lon="7.38466">
        <ele>1579.0999755859</ele>
        <time>2010-09-05T09:43:54Z</time>
      </trkpt>
      <trkpt lat="44.05643" lon="7.38467">
        <ele>1579.0999755859</ele>
        <time>2010-09-05T09:43:55Z</time>
      </trkpt>
      <trkpt lat="44.0563" lon="7.38468">
        <ele>1578.1400146484</ele>
        <time>2010-09-05T09:43:59Z</time>
      </trkpt>
      <trkpt lat="44.05626" lon="7.38469">
        <ele>1577.1800537109</ele>
        <time>2010-09-05T09:44:01Z</time>
      </trkpt>
      <trkpt lat="44.05615" lon="7.38469">
        <ele>1573.3299560547</ele>
        <time>2010-09-05T09:44:07Z</time>
      </trkpt>
      <trkpt lat="44.05608" lon="7.38467">
        <ele>1571.8900146484</ele>
        <time>2010-09-05T09:44:10Z</time>
      </trkpt>
      <trkpt lat="44.05603" lon="7.38464">
        <ele>1571.8900146484</ele>
        <time>2010-09-05T09:44:13Z</time>
      </trkpt>
      <trkpt lat="44.05599" lon="7.38458">
        <ele>1568.0500488281</ele>
        <time>2010-09-05T09:44:17Z</time>
      </trkpt>
      <trkpt lat="44.05593" lon="7.38457">
        <ele>1567.5699462891</ele>
        <time>2010-09-05T09:44:21Z</time>
      </trkpt>
      <trkpt lat="44.0558" lon="7.38464">
        <ele>1564.1999511719</ele>
        <time>2010-09-05T09:44:27Z</time>
      </trkpt>
      <trkpt lat="44.0557" lon="7.38454">
        <ele>1563.2399902344</ele>
        <time>2010-09-05T09:44:31Z</time>
      </trkpt>
      <trkpt lat="44.05567" lon="7.3845">
        <ele>1562.2800292969</ele>
        <time>2010-09-05T09:44:33Z</time>
      </trkpt>
      <trkpt lat="44.05562" lon="7.38459">
        <ele>1558.9200439453</ele>
        <time>2010-09-05T09:44:40Z</time>
      </trkpt>
      <trkpt lat="44.0556" lon="7.38463">
        <ele>1557.4699707031</ele>
        <time>2010-09-05T09:44:42Z</time>
      </trkpt>
      <trkpt lat="44.0555" lon="7.38464">
        <ele>1553.1500244141</ele>
        <time>2010-09-05T09:44:46Z</time>
      </trkpt>
      <trkpt lat="44.05537" lon="7.38465">
        <ele>1549.7800292969</ele>
        <time>2010-09-05T09:44:50Z</time>
      </trkpt>
      <trkpt lat="44.05523" lon="7.38467">
        <ele>1546.4200439453</ele>
        <time>2010-09-05T09:44:55Z</time>
      </trkpt>
      <trkpt lat="44.05515" lon="7.38469">
        <ele>1543.0500488281</ele>
        <time>2010-09-05T09:44:58Z</time>
      </trkpt>
      <trkpt lat="44.05512" lon="7.38469">
        <ele>1543.5300292969</ele>
        <time>2010-09-05T09:44:59Z</time>
      </trkpt>
      <trkpt lat="44.05499" lon="7.3847">
        <ele>1540.1700439453</ele>
        <time>2010-09-05T09:45:03Z</time>
      </trkpt>
      <trkpt lat="44.05495" lon="7.3847">
        <ele>1540.1700439453</ele>
        <time>2010-09-05T09:45:04Z</time>
      </trkpt>
      <trkpt lat="44.05486" lon="7.38471">
        <ele>1538.25</ele>
        <time>2010-09-05T09:45:07Z</time>
      </trkpt>
      <trkpt lat="44.05478" lon="7.38476">
        <ele>1536.3199462891</ele>
        <time>2010-09-05T09:45:10Z</time>
      </trkpt>
      <trkpt lat="44.05463" lon="7.38482">
        <ele>1532.9599609375</ele>
        <time>2010-09-05T09:45:15Z</time>
      </trkpt>
      <trkpt lat="44.05451" lon="7.38482">
        <ele>1529.5899658203</ele>
        <time>2010-09-05T09:45:19Z</time>
      </trkpt>
      <trkpt lat="44.05445" lon="7.38481">
        <ele>1528.1500244141</ele>
        <time>2010-09-05T09:45:21Z</time>
      </trkpt>
      <trkpt lat="44.05441" lon="7.3849">
        <ele>1527.1899414062</ele>
        <time>2010-09-05T09:45:28Z</time>
      </trkpt>
      <trkpt lat="44.0545" lon="7.38513">
        <ele>1528.6300048828</ele>
        <time>2010-09-05T09:45:35Z</time>
      </trkpt>
      <trkpt lat="44.05457" lon="7.38535">
        <ele>1531.0400390625</ele>
        <time>2010-09-05T09:45:42Z</time>
      </trkpt>
      <trkpt lat="44.05442" lon="7.38571">
        <ele>1530.5600585938</ele>
        <time>2010-09-05T09:45:53Z</time>
      </trkpt>
      <trkpt lat="44.05434" lon="7.38572">
        <ele>1528.6300048828</ele>
        <time>2010-09-05T09:45:57Z</time>
      </trkpt>
      <trkpt lat="44.05421" lon="7.38533">
        <ele>1527.6700439453</ele>
        <time>2010-09-05T09:46:08Z</time>
      </trkpt>
      <trkpt lat="44.05409" lon="7.385">
        <ele>1525.75</ele>
        <time>2010-09-05T09:46:18Z</time>
      </trkpt>
      <trkpt lat="44.05388" lon="7.3846">
        <ele>1524.7900390625</ele>
        <time>2010-09-05T09:46:31Z</time>
      </trkpt>
      <trkpt lat="44.05372" lon="7.38425">
        <ele>1521.9000244141</ele>
        <time>2010-09-05T09:46:42Z</time>
      </trkpt>
      <trkpt lat="44.05344" lon="7.38412">
        <ele>1520.4599609375</ele>
        <time>2010-09-05T09:46:53Z</time>
      </trkpt>
      <trkpt lat="44.05308" lon="7.3841">
        <ele>1518.5400390625</ele>
        <time>2010-09-05T09:47:06Z</time>
      </trkpt>
      <trkpt lat="44.05292" lon="7.38409">
        <ele>1517.5799560547</ele>
        <time>2010-09-05T09:47:12Z</time>
      </trkpt>
      <trkpt lat="44.05263" lon="7.38417">
        <ele>1518.5400390625</ele>
        <time>2010-09-05T09:47:24Z</time>
      </trkpt>
      <trkpt lat="44.05235" lon="7.38415">
        <ele>1517.0999755859</ele>
        <time>2010-09-05T09:47:35Z</time>
      </trkpt>
      <trkpt lat="44.05219" lon="7.38419">
        <ele>1515.6600341797</ele>
        <time>2010-09-05T09:47:41Z</time>
      </trkpt>
      <trkpt lat="44.05187" lon="7.38425">
        <ele>1511.8100585938</ele>
        <time>2010-09-05T09:47:52Z</time>
      </trkpt>
      <trkpt lat="44.05178" lon="7.38426">
        <ele>1513.25</ele>
        <time>2010-09-05T09:47:55Z</time>
      </trkpt>
      <trkpt lat="44.05153" lon="7.38417">
        <ele>1512.2900390625</ele>
        <time>2010-09-05T09:48:04Z</time>
      </trkpt>
      <trkpt lat="44.05118" lon="7.38411">
        <ele>1509.4100341797</ele>
        <time>2010-09-05T09:48:16Z</time>
      </trkpt>
      <trkpt lat="44.05092" lon="7.38411">
        <ele>1508.4499511719</ele>
        <time>2010-09-05T09:48:26Z</time>
      </trkpt>
      <trkpt lat="44.0509" lon="7.38411">
        <ele>1507.9699707031</ele>
        <time>2010-09-05T09:48:27Z</time>
      </trkpt>
      <trkpt lat="44.05054" lon="7.38396">
        <ele>1507</ele>
        <time>2010-09-05T09:48:40Z</time>
      </trkpt>
      <trkpt lat="44.0505" lon="7.38391">
        <ele>1507.4799804688</ele>
        <time>2010-09-05T09:48:42Z</time>
      </trkpt>
      <trkpt lat="44.05026" lon="7.38384">
        <ele>1504.1199951172</ele>
        <time>2010-09-05T09:48:51Z</time>
      </trkpt>
      <trkpt lat="44.05017" lon="7.3838">
        <ele>1505.5600585938</ele>
        <time>2010-09-05T09:48:55Z</time>
      </trkpt>
      <trkpt lat="44.04989" lon="7.38391">
        <ele>1503.6400146484</ele>
        <time>2010-09-05T09:49:07Z</time>
      </trkpt>
      <trkpt lat="44.04967" lon="7.38389">
        <ele>1502.6800537109</ele>
        <time>2010-09-05T09:49:14Z</time>
      </trkpt>
      <trkpt lat="44.04943" lon="7.38385">
        <ele>1503.1600341797</ele>
        <time>2010-09-05T09:49:24Z</time>
      </trkpt>
      <trkpt lat="44.0493" lon="7.38385">
        <ele>1502.6800537109</ele>
        <time>2010-09-05T09:49:40Z</time>
      </trkpt>
      <trkpt lat="44.04932" lon="7.38385">
        <ele>1502.6800537109</ele>
        <time>2010-09-05T09:50:02Z</time>
      </trkpt>
      <trkpt lat="44.04932" lon="7.38385">
        <ele>1502.6800537109</ele>
        <time>2010-09-05T09:50:21Z</time>
      </trkpt>
      <trkpt lat="44.04929" lon="7.38387">
        <ele>1502.1999511719</ele>
        <time>2010-09-05T09:50:57Z</time>
      </trkpt>
      <trkpt lat="44.04934" lon="7.38386">
        <ele>1502.1999511719</ele>
        <time>2010-09-05T09:51:12Z</time>
      </trkpt>
      <trkpt lat="44.04938" lon="7.38383">
        <ele>1502.1999511719</ele>
        <time>2010-09-05T09:51:29Z</time>
      </trkpt>
      <trkpt lat="44.04937" lon="7.38385">
        <ele>1501.2399902344</ele>
        <time>2010-09-05T09:51:43Z</time>
      </trkpt>
      <trkpt lat="44.0493" lon="7.3839">
        <ele>1503.1600341797</ele>
        <time>2010-09-05T09:51:51Z</time>
      </trkpt>
      <trkpt lat="44.04931" lon="7.38398">
        <ele>1504.5999755859</ele>
        <time>2010-09-05T09:51:56Z</time>
      </trkpt>
      <trkpt lat="44.04947" lon="7.3841">
        <ele>1506.0400390625</ele>
        <time>2010-09-05T09:52:09Z</time>
      </trkpt>
      <trkpt lat="44.0495" lon="7.38411">
        <ele>1506.5200195312</ele>
        <time>2010-09-05T09:52:11Z</time>
      </trkpt>
      <trkpt lat="44.04956" lon="7.38419">
        <ele>1507.9699707031</ele>
        <time>2010-09-05T09:52:17Z</time>
      </trkpt>
      <trkpt lat="44.04956" lon="7.38424">
        <ele>1508.4499511719</ele>
        <time>2010-09-05T09:52:20Z</time>
      </trkpt>
      <trkpt lat="44.04952" lon="7.38431">
        <ele>1510.8499755859</ele>
        <time>2010-09-05T09:52:26Z</time>
      </trkpt>
      <trkpt lat="44.04939" lon="7.38433">
        <ele>1511.8100585938</ele>
        <time>2010-09-05T09:52:39Z</time>
      </trkpt>
      <trkpt lat="44.04927" lon="7.38426">
        <ele>1513.7299804688</ele>
        <time>2010-09-05T09:52:49Z</time>
      </trkpt>
      <trkpt lat="44.04918" lon="7.38417">
        <ele>1515.1800537109</ele>
        <time>2010-09-05T09:52:59Z</time>
      </trkpt>
      <trkpt lat="44.04892" lon="7.38406">
        <ele>1518.0600585938</ele>
        <time>2010-09-05T09:53:13Z</time>
      </trkpt>
      <trkpt lat="44.04873" lon="7.38391">
        <ele>1519.5</ele>
        <time>2010-09-05T09:53:27Z</time>
      </trkpt>
      <trkpt lat="44.04866" lon="7.38383">
        <ele>1522.3900146484</ele>
        <time>2010-09-05T09:53:33Z</time>
      </trkpt>
      <trkpt lat="44.04862" lon="7.38378">
        <ele>1521.4200439453</ele>
        <time>2010-09-05T09:53:37Z</time>
      </trkpt>
      <trkpt lat="44.04855" lon="7.3837">
        <ele>1522.3900146484</ele>
        <time>2010-09-05T09:53:45Z</time>
      </trkpt>
      <trkpt lat="44.04849" lon="7.38361">
        <ele>1522.8699951172</ele>
        <time>2010-09-05T09:53:52Z</time>
      </trkpt>
      <trkpt lat="44.0484" lon="7.38351">
        <ele>1524.3100585938</ele>
        <time>2010-09-05T09:53:58Z</time>
      </trkpt>
      <trkpt lat="44.04834" lon="7.38345">
        <ele>1525.75</ele>
        <time>2010-09-05T09:54:02Z</time>
      </trkpt>
      <trkpt lat="44.048" lon="7.38327">
        <ele>1526.7099609375</ele>
        <time>2010-09-05T09:54:17Z</time>
      </trkpt>
      <trkpt lat="44.04779" lon="7.38324">
        <ele>1530.0799560547</ele>
        <time>2010-09-05T09:54:30Z</time>
      </trkpt>
      <trkpt lat="44.04768" lon="7.38324">
        <ele>1529.1099853516</ele>
        <time>2010-09-05T09:54:37Z</time>
      </trkpt>
      <trkpt lat="44.04766" lon="7.38323">
        <ele>1529.1099853516</ele>
        <time>2010-09-05T09:54:38Z</time>
      </trkpt>
      <trkpt lat="44.04758" lon="7.38313">
        <ele>1529.1099853516</ele>
        <time>2010-09-05T09:54:42Z</time>
      </trkpt>
      <trkpt lat="44.04733" lon="7.38298">
        <ele>1528.6300048828</ele>
        <time>2010-09-05T09:54:54Z</time>
      </trkpt>
      <trkpt lat="44.04732" lon="7.38297">
        <ele>1529.1099853516</ele>
        <time>2010-09-05T09:54:55Z</time>
      </trkpt>
      <trkpt lat="44.04728" lon="7.38294">
        <ele>1529.1099853516</ele>
        <time>2010-09-05T09:54:58Z</time>
      </trkpt>
      <trkpt lat="44.04725" lon="7.38291">
        <ele>1530.0799560547</ele>
        <time>2010-09-05T09:55:02Z</time>
      </trkpt>
      <trkpt lat="44.04719" lon="7.38291">
        <ele>1532.4799804688</ele>
        <time>2010-09-05T09:55:11Z</time>
      </trkpt>
      <trkpt lat="44.04715" lon="7.3829">
        <ele>1533.4399414062</ele>
        <time>2010-09-05T09:55:14Z</time>
      </trkpt>
      <trkpt lat="44.04692" lon="7.38286">
        <ele>1534.8800048828</ele>
        <time>2010-09-05T09:55:30Z</time>
      </trkpt>
      <trkpt lat="44.04677" lon="7.38279">
        <ele>1535.8399658203</ele>
        <time>2010-09-05T09:55:39Z</time>
      </trkpt>
      <trkpt lat="44.0467" lon="7.38274">
        <ele>1536.3199462891</ele>
        <time>2010-09-05T09:55:43Z</time>
      </trkpt>
      <trkpt lat="44.04666" lon="7.38272">
        <ele>1537.7700195312</ele>
        <time>2010-09-05T09:55:48Z</time>
      </trkpt>
      <trkpt lat="44.0466" lon="7.38269">
        <ele>1540.6500244141</ele>
        <time>2010-09-05T09:55:58Z</time>
      </trkpt>
      <trkpt lat="44.04654" lon="7.38269">
        <ele>1543.0500488281</ele>
        <time>2010-09-05T09:56:06Z</time>
      </trkpt>
      <trkpt lat="44.04645" lon="7.38272">
        <ele>1546.4200439453</ele>
        <time>2010-09-05T09:56:18Z</time>
      </trkpt>
      <trkpt lat="44.04627" lon="7.38267">
        <ele>1549.3000488281</ele>
        <time>2010-09-05T09:56:31Z</time>
      </trkpt>
      <trkpt lat="44.04619" lon="7.38266">
        <ele>1550.7399902344</ele>
        <time>2010-09-05T09:56:39Z</time>
      </trkpt>
      <trkpt lat="44.04612" lon="7.38265">
        <ele>1552.1899414062</ele>
        <time>2010-09-05T09:56:45Z</time>
      </trkpt>
      <trkpt lat="44.04595" lon="7.38268">
        <ele>1555.5500488281</ele>
        <time>2010-09-05T09:56:59Z</time>
      </trkpt>
      <trkpt lat="44.04589" lon="7.38267">
        <ele>1555.5500488281</ele>
        <time>2010-09-05T09:57:02Z</time>
      </trkpt>
      <trkpt lat="44.0458" lon="7.38267">
        <ele>1556.5100097656</ele>
        <time>2010-09-05T09:57:07Z</time>
      </trkpt>
      <trkpt lat="44.04568" lon="7.38261">
        <ele>1558.9200439453</ele>
        <time>2010-09-05T09:57:14Z</time>
      </trkpt>
      <trkpt lat="44.04563" lon="7.38263">
        <ele>1560.3599853516</ele>
        <time>2010-09-05T09:57:21Z</time>
      </trkpt>
      <trkpt lat="44.04553" lon="7.38269">
        <ele>1564.1999511719</ele>
        <time>2010-09-05T09:57:31Z</time>
      </trkpt>
      <trkpt lat="44.04541" lon="7.38273">
        <ele>1567.5699462891</ele>
        <time>2010-09-05T09:57:51Z</time>
      </trkpt>
      <trkpt lat="44.04539" lon="7.38273">
        <ele>1568.0500488281</ele>
        <time>2010-09-05T09:57:53Z</time>
      </trkpt>
      <trkpt lat="44.04532" lon="7.38275">
        <ele>1569.9699707031</ele>
        <time>2010-09-05T09:58:00Z</time>
      </trkpt>
      <trkpt lat="44.04528" lon="7.38278">
        <ele>1573.3299560547</ele>
        <time>2010-09-05T09:58:11Z</time>
      </trkpt>
      <trkpt lat="44.04525" lon="7.38279">
        <ele>1573.8199462891</ele>
        <time>2010-09-05T09:58:16Z</time>
      </trkpt>
      <trkpt lat="44.04516" lon="7.38284">
        <ele>1576.2199707031</ele>
        <time>2010-09-05T09:58:28Z</time>
      </trkpt>
      <trkpt lat="44.04509" lon="7.3829">
        <ele>1579.5799560547</ele>
        <time>2010-09-05T09:58:38Z</time>
      </trkpt>
      <trkpt lat="44.04503" lon="7.38293">
        <ele>1580.0600585938</ele>
        <time>2010-09-05T09:58:45Z</time>
      </trkpt>
      <trkpt lat="44.04499" lon="7.38295">
        <ele>1581.0300292969</ele>
        <time>2010-09-05T09:58:49Z</time>
      </trkpt>
      <trkpt lat="44.04498" lon="7.38296">
        <ele>1581.5100097656</ele>
        <time>2010-09-05T09:58:50Z</time>
      </trkpt>
      <trkpt lat="44.04494" lon="7.38298">
        <ele>1581.0300292969</ele>
        <time>2010-09-05T09:58:54Z</time>
      </trkpt>
      <trkpt lat="44.04491" lon="7.383">
        <ele>1581.5100097656</ele>
        <time>2010-09-05T09:58:56Z</time>
      </trkpt>
      <trkpt lat="44.04486" lon="7.38308">
        <ele>1581.0300292969</ele>
        <time>2010-09-05T09:59:00Z</time>
      </trkpt>
      <trkpt lat="44.04464" lon="7.38328">
        <ele>1579.5799560547</ele>
        <time>2010-09-05T09:59:09Z</time>
      </trkpt>
      <trkpt lat="44.04452" lon="7.38332">
        <ele>1579.5799560547</ele>
        <time>2010-09-05T09:59:15Z</time>
      </trkpt>
      <trkpt lat="44.04433" lon="7.38338">
        <ele>1579.5799560547</ele>
        <time>2010-09-05T09:59:23Z</time>
      </trkpt>
      <trkpt lat="44.04419" lon="7.38343">
        <ele>1580.5400390625</ele>
        <time>2010-09-05T09:59:36Z</time>
      </trkpt>
      <trkpt lat="44.04412" lon="7.38347">
        <ele>1581.5100097656</ele>
        <time>2010-09-05T09:59:43Z</time>
      </trkpt>
      <trkpt lat="44.04406" lon="7.38345">
        <ele>1582.9499511719</ele>
        <time>2010-09-05T09:59:47Z</time>
      </trkpt>
      <trkpt lat="44.04402" lon="7.38343">
        <ele>1582.9499511719</ele>
        <time>2010-09-05T09:59:51Z</time>
      </trkpt>
      <trkpt lat="44.04395" lon="7.38342">
        <ele>1585.3499755859</ele>
        <time>2010-09-05T10:00:02Z</time>
      </trkpt>
      <trkpt lat="44.04391" lon="7.38332">
        <ele>1588.2399902344</ele>
        <time>2010-09-05T10:00:13Z</time>
      </trkpt>
      <trkpt lat="44.0439" lon="7.38331">
        <ele>1588.2399902344</ele>
        <time>2010-09-05T10:00:14Z</time>
      </trkpt>
      <trkpt lat="44.04387" lon="7.38328">
        <ele>1589.6800537109</ele>
        <time>2010-09-05T10:00:21Z</time>
      </trkpt>
      <trkpt lat="44.04386" lon="7.38327">
        <ele>1591.5999755859</ele>
        <time>2010-09-05T10:00:25Z</time>
      </trkpt>
      <trkpt lat="44.0437" lon="7.38315">
        <ele>1593.5200195312</ele>
        <time>2010-09-05T10:00:33Z</time>
      </trkpt>
      <trkpt lat="44.04356" lon="7.38301">
        <ele>1594.9599609375</ele>
        <time>2010-09-05T10:00:40Z</time>
      </trkpt>
      <trkpt lat="44.04348" lon="7.38294">
        <ele>1598.3299560547</ele>
        <time>2010-09-05T10:00:49Z</time>
      </trkpt>
      <trkpt lat="44.04343" lon="7.38288">
        <ele>1600.7299804688</ele>
        <time>2010-09-05T10:00:58Z</time>
      </trkpt>
      <trkpt lat="44.04337" lon="7.38287">
        <ele>1603.6199951172</ele>
        <time>2010-09-05T10:01:10Z</time>
      </trkpt>
      <trkpt lat="44.04327" lon="7.38272">
        <ele>1606.9799804688</ele>
        <time>2010-09-05T10:01:24Z</time>
      </trkpt>
      <trkpt lat="44.04318" lon="7.38272">
        <ele>1610.3499755859</ele>
        <time>2010-09-05T10:01:37Z</time>
      </trkpt>
      <trkpt lat="44.04315" lon="7.38268">
        <ele>1613.7099609375</ele>
        <time>2010-09-05T10:01:50Z</time>
      </trkpt>
      <trkpt lat="44.04314" lon="7.3827">
        <ele>1614.6700439453</ele>
        <time>2010-09-05T10:01:56Z</time>
      </trkpt>
      <trkpt lat="44.04311" lon="7.38271">
        <ele>1616.5899658203</ele>
        <time>2010-09-05T10:02:01Z</time>
      </trkpt>
      <trkpt lat="44.04308" lon="7.3827">
        <ele>1618.0400390625</ele>
        <time>2010-09-05T10:02:07Z</time>
      </trkpt>
      <trkpt lat="44.043" lon="7.38271">
        <ele>1621.4000244141</ele>
        <time>2010-09-05T10:02:20Z</time>
      </trkpt>
      <trkpt lat="44.04298" lon="7.38271">
        <ele>1621.8800048828</ele>
        <time>2010-09-05T10:02:22Z</time>
      </trkpt>
      <trkpt lat="44.04293" lon="7.38268">
        <ele>1622.8399658203</ele>
        <time>2010-09-05T10:02:28Z</time>
      </trkpt>
      <trkpt lat="44.04284" lon="7.38269">
        <ele>1625.7299804688</ele>
        <time>2010-09-05T10:02:37Z</time>
      </trkpt>
      <trkpt lat="44.04274" lon="7.38273">
        <ele>1629.0899658203</ele>
        <time>2010-09-05T10:02:53Z</time>
      </trkpt>
      <trkpt lat="44.04267" lon="7.38275">
        <ele>1632.4599609375</ele>
        <time>2010-09-05T10:03:05Z</time>
      </trkpt>
      <trkpt lat="44.04263" lon="7.38272">
        <ele>1635.8199462891</ele>
        <time>2010-09-05T10:03:17Z</time>
      </trkpt>
      <trkpt lat="44.04248" lon="7.38266">
        <ele>1638.6999511719</ele>
        <time>2010-09-05T10:03:31Z</time>
      </trkpt>
      <trkpt lat="44.04234" lon="7.38265">
        <ele>1642.0699462891</ele>
        <time>2010-09-05T10:03:44Z</time>
      </trkpt>
      <trkpt lat="44.04234" lon="7.38266">
        <ele>1642.5500488281</ele>
        <time>2010-09-05T10:03:46Z</time>
      </trkpt>
      <trkpt lat="44.04227" lon="7.38257">
        <ele>1645.9100341797</ele>
        <time>2010-09-05T10:03:59Z</time>
      </trkpt>
      <trkpt lat="44.04216" lon="7.38259">
        <ele>1649.2800292969</ele>
        <time>2010-09-05T10:04:12Z</time>
      </trkpt>
      <trkpt lat="44.04212" lon="7.38255">
        <ele>1652.1600341797</ele>
        <time>2010-09-05T10:04:25Z</time>
      </trkpt>
      <trkpt lat="44.04203" lon="7.38249">
        <ele>1655.5300292969</ele>
        <time>2010-09-05T10:04:37Z</time>
      </trkpt>
      <trkpt lat="44.04199" lon="7.38247">
        <ele>1658.8900146484</ele>
        <time>2010-09-05T10:04:46Z</time>
      </trkpt>
      <trkpt lat="44.04197" lon="7.38247">
        <ele>1660.3299560547</ele>
        <time>2010-09-05T10:04:57Z</time>
      </trkpt>
      <trkpt lat="44.04185" lon="7.38242">
        <ele>1663.6999511719</ele>
        <time>2010-09-05T10:05:11Z</time>
      </trkpt>
      <trkpt lat="44.04173" lon="7.38246">
        <ele>1664.6600341797</ele>
        <time>2010-09-05T10:05:28Z</time>
      </trkpt>
      <trkpt lat="44.04165" lon="7.38246">
        <ele>1667.5400390625</ele>
        <time>2010-09-05T10:05:38Z</time>
      </trkpt>
      <trkpt lat="44.04161" lon="7.38245">
        <ele>1668.9899902344</ele>
        <time>2010-09-05T10:05:43Z</time>
      </trkpt>
      <trkpt lat="44.04153" lon="7.38243">
        <ele>1671.3900146484</ele>
        <time>2010-09-05T10:05:52Z</time>
      </trkpt>
      <trkpt lat="44.04151" lon="7.38243">
        <ele>1672.8299560547</ele>
        <time>2010-09-05T10:06:00Z</time>
      </trkpt>
      <trkpt lat="44.04143" lon="7.38238">
        <ele>1676.1999511719</ele>
        <time>2010-09-05T10:06:11Z</time>
      </trkpt>
      <trkpt lat="44.04132" lon="7.38236">
        <ele>1678.5999755859</ele>
        <time>2010-09-05T10:06:22Z</time>
      </trkpt>
      <trkpt lat="44.04121" lon="7.38236">
        <ele>1681.4799804688</ele>
        <time>2010-09-05T10:06:32Z</time>
      </trkpt>
      <trkpt lat="44.0412" lon="7.38236">
        <ele>1681.4799804688</ele>
        <time>2010-09-05T10:06:33Z</time>
      </trkpt>
      <trkpt lat="44.0411" lon="7.38231">
        <ele>1682.4399414062</ele>
        <time>2010-09-05T10:06:50Z</time>
      </trkpt>
      <trkpt lat="44.041" lon="7.38237">
        <ele>1685.8100585938</ele>
        <time>2010-09-05T10:07:03Z</time>
      </trkpt>
      <trkpt lat="44.04089" lon="7.3824">
        <ele>1689.1700439453</ele>
        <time>2010-09-05T10:07:18Z</time>
      </trkpt>
      <trkpt lat="44.04089" lon="7.38239">
        <ele>1689.6500244141</ele>
        <time>2010-09-05T10:07:19Z</time>
      </trkpt>
      <trkpt lat="44.04077" lon="7.38238">
        <ele>1693.0200195312</ele>
        <time>2010-09-05T10:07:33Z</time>
      </trkpt>
      <trkpt lat="44.04076" lon="7.38237">
        <ele>1693.0200195312</ele>
        <time>2010-09-05T10:07:34Z</time>
      </trkpt>
      <trkpt lat="44.04068" lon="7.38232">
        <ele>1693.5</ele>
        <time>2010-09-05T10:07:41Z</time>
      </trkpt>
      <trkpt lat="44.04064" lon="7.38233">
        <ele>1693.9799804688</ele>
        <time>2010-09-05T10:07:44Z</time>
      </trkpt>
      <trkpt lat="44.04059" lon="7.38227">
        <ele>1694.9399414062</ele>
        <time>2010-09-05T10:07:49Z</time>
      </trkpt>
      <trkpt lat="44.04057" lon="7.38225">
        <ele>1695.4200439453</ele>
        <time>2010-09-05T10:07:51Z</time>
      </trkpt>
      <trkpt lat="44.04048" lon="7.38219">
        <ele>1698.3100585938</ele>
        <time>2010-09-05T10:08:02Z</time>
      </trkpt>
      <trkpt lat="44.04044" lon="7.38208">
        <ele>1702.6300048828</ele>
        <time>2010-09-05T10:08:15Z</time>
      </trkpt>
      <trkpt lat="44.04042" lon="7.38207">
        <ele>1702.1500244141</ele>
        <time>2010-09-05T10:08:16Z</time>
      </trkpt>
      <trkpt lat="44.04037" lon="7.38208">
        <ele>1705.5200195312</ele>
        <time>2010-09-05T10:08:29Z</time>
      </trkpt>
      <trkpt lat="44.04034" lon="7.38208">
        <ele>1708.8800048828</ele>
        <time>2010-09-05T10:08:38Z</time>
      </trkpt>
      <trkpt lat="44.04025" lon="7.38202">
        <ele>1710.8000488281</ele>
        <time>2010-09-05T10:08:52Z</time>
      </trkpt>
      <trkpt lat="44.04018" lon="7.38195">
        <ele>1713.6899414062</ele>
        <time>2010-09-05T10:09:04Z</time>
      </trkpt>
      <trkpt lat="44.04011" lon="7.38191">
        <ele>1714.6500244141</ele>
        <time>2010-09-05T10:09:07Z</time>
      </trkpt>
      <trkpt lat="44.03999" lon="7.38188">
        <ele>1715.1300048828</ele>
        <time>2010-09-05T10:09:13Z</time>
      </trkpt>
      <trkpt lat="44.03995" lon="7.38189">
        <ele>1716.5699462891</ele>
        <time>2010-09-05T10:09:17Z</time>
      </trkpt>
      <trkpt lat="44.0399" lon="7.38189">
        <ele>1718.0100097656</ele>
        <time>2010-09-05T10:09:22Z</time>
      </trkpt>
      <trkpt lat="44.03983" lon="7.38191">
        <ele>1721.8599853516</ele>
        <time>2010-09-05T10:09:36Z</time>
      </trkpt>
      <trkpt lat="44.03981" lon="7.38193">
        <ele>1723.7800292969</ele>
        <time>2010-09-05T10:09:49Z</time>
      </trkpt>
      <trkpt lat="44.03983" lon="7.38194">
        <ele>1724.2600097656</ele>
        <time>2010-09-05T10:09:53Z</time>
      </trkpt>
      <trkpt lat="44.03976" lon="7.38195">
        <ele>1727.6300048828</ele>
        <time>2010-09-05T10:10:06Z</time>
      </trkpt>
      <trkpt lat="44.0397" lon="7.38193">
        <ele>1730.0300292969</ele>
        <time>2010-09-05T10:10:16Z</time>
      </trkpt>
      <trkpt lat="44.03963" lon="7.38189">
        <ele>1732.9100341797</ele>
        <time>2010-09-05T10:10:28Z</time>
      </trkpt>
      <trkpt lat="44.03952" lon="7.38179">
        <ele>1736.2800292969</ele>
        <time>2010-09-05T10:10:42Z</time>
      </trkpt>
      <trkpt lat="44.03945" lon="7.38175">
        <ele>1739.6400146484</ele>
        <time>2010-09-05T10:10:54Z</time>
      </trkpt>
      <trkpt lat="44.03944" lon="7.38163">
        <ele>1743.0100097656</ele>
        <time>2010-09-05T10:11:09Z</time>
      </trkpt>
      <trkpt lat="44.03934" lon="7.38159">
        <ele>1742.0500488281</ele>
        <time>2010-09-05T10:11:17Z</time>
      </trkpt>
      <trkpt lat="44.03929" lon="7.38156">
        <ele>1744.9300537109</ele>
        <time>2010-09-05T10:11:20Z</time>
      </trkpt>
      <trkpt lat="44.03919" lon="7.38151">
        <ele>1746.8499755859</ele>
        <time>2010-09-05T10:11:29Z</time>
      </trkpt>
      <trkpt lat="44.03909" lon="7.38144">
        <ele>1750.2199707031</ele>
        <time>2010-09-05T10:11:44Z</time>
      </trkpt>
      <trkpt lat="44.03901" lon="7.38146">
        <ele>1753.5799560547</ele>
        <time>2010-09-05T10:11:56Z</time>
      </trkpt>
      <trkpt lat="44.03898" lon="7.38143">
        <ele>1754.5400390625</ele>
        <time>2010-09-05T10:12:03Z</time>
      </trkpt>
      <trkpt lat="44.03895" lon="7.3813">
        <ele>1755.0200195312</ele>
        <time>2010-09-05T10:12:09Z</time>
      </trkpt>
      <trkpt lat="44.03891" lon="7.38121">
        <ele>1755.5</ele>
        <time>2010-09-05T10:12:13Z</time>
      </trkpt>
      <trkpt lat="44.0389" lon="7.38118">
        <ele>1755.9899902344</ele>
        <time>2010-09-05T10:12:17Z</time>
      </trkpt>
      <trkpt lat="44.03883" lon="7.3811">
        <ele>1756.4699707031</ele>
        <time>2010-09-05T10:12:24Z</time>
      </trkpt>
      <trkpt lat="44.0388" lon="7.38104">
        <ele>1757.4300537109</ele>
        <time>2010-09-05T10:12:28Z</time>
      </trkpt>
      <trkpt lat="44.03874" lon="7.38091">
        <ele>1758.3900146484</ele>
        <time>2010-09-05T10:12:35Z</time>
      </trkpt>
      <trkpt lat="44.03867" lon="7.38082">
        <ele>1761.2700195312</ele>
        <time>2010-09-05T10:12:46Z</time>
      </trkpt>
      <trkpt lat="44.03862" lon="7.38075">
        <ele>1764.6400146484</ele>
        <time>2010-09-05T10:12:56Z</time>
      </trkpt>
      <trkpt lat="44.03848" lon="7.38056">
        <ele>1767.0400390625</ele>
        <time>2010-09-05T10:13:09Z</time>
      </trkpt>
      <trkpt lat="44.03846" lon="7.38048">
        <ele>1768.4799804688</ele>
        <time>2010-09-05T10:13:14Z</time>
      </trkpt>
      <trkpt lat="44.03841" lon="7.38039">
        <ele>1771.3699951172</ele>
        <time>2010-09-05T10:13:25Z</time>
      </trkpt>
      <trkpt lat="44.03834" lon="7.38031">
        <ele>1774.7299804688</ele>
        <time>2010-09-05T10:13:40Z</time>
      </trkpt>
      <trkpt lat="44.03826" lon="7.3802">
        <ele>1776.6500244141</ele>
        <time>2010-09-05T10:13:55Z</time>
      </trkpt>
      <trkpt lat="44.03806" lon="7.38006">
        <ele>1780.0200195312</ele>
        <time>2010-09-05T10:14:12Z</time>
      </trkpt>
      <trkpt lat="44.038" lon="7.38002">
        <ele>1780.9799804688</ele>
        <time>2010-09-05T10:14:16Z</time>
      </trkpt>
      <trkpt lat="44.03787" lon="7.37987">
        <ele>1782.4200439453</ele>
        <time>2010-09-05T10:14:25Z</time>
      </trkpt>
      <trkpt lat="44.03777" lon="7.3798">
        <ele>1782.9000244141</ele>
        <time>2010-09-05T10:14:31Z</time>
      </trkpt>
      <trkpt lat="44.03771" lon="7.37971">
        <ele>1782.4200439453</ele>
        <time>2010-09-05T10:14:35Z</time>
      </trkpt>
      <trkpt lat="44.03757" lon="7.37946">
        <ele>1780.9799804688</ele>
        <time>2010-09-05T10:14:43Z</time>
      </trkpt>
      <trkpt lat="44.03748" lon="7.37918">
        <ele>1778.5799560547</ele>
        <time>2010-09-05T10:14:51Z</time>
      </trkpt>
      <trkpt lat="44.03746" lon="7.37912">
        <ele>1778.5799560547</ele>
        <time>2010-09-05T10:14:53Z</time>
      </trkpt>
      <trkpt lat="44.03735" lon="7.37889">
        <ele>1776.6500244141</ele>
        <time>2010-09-05T10:14:59Z</time>
      </trkpt>
      <trkpt lat="44.03733" lon="7.37882">
        <ele>1778.0999755859</ele>
        <time>2010-09-05T10:15:01Z</time>
      </trkpt>
      <trkpt lat="44.03727" lon="7.37867">
        <ele>1778.5799560547</ele>
        <time>2010-09-05T10:15:06Z</time>
      </trkpt>
      <trkpt lat="44.03724" lon="7.37863">
        <ele>1777.6099853516</ele>
        <time>2010-09-05T10:15:10Z</time>
      </trkpt>
      <trkpt lat="44.03721" lon="7.37853">
        <ele>1776.1700439453</ele>
        <time>2010-09-05T10:15:15Z</time>
      </trkpt>
      <trkpt lat="44.03712" lon="7.37833">
        <ele>1775.2099609375</ele>
        <time>2010-09-05T10:15:24Z</time>
      </trkpt>
      <trkpt lat="44.03696" lon="7.37816">
        <ele>1774.7299804688</ele>
        <time>2010-09-05T10:15:31Z</time>
      </trkpt>
      <trkpt lat="44.0367" lon="7.37766">
        <ele>1773.2900390625</ele>
        <time>2010-09-05T10:15:43Z</time>
      </trkpt>
      <trkpt lat="44.03661" lon="7.37751">
        <ele>1771.8499755859</ele>
        <time>2010-09-05T10:15:47Z</time>
      </trkpt>
      <trkpt lat="44.03654" lon="7.37722">
        <ele>1772.8100585938</ele>
        <time>2010-09-05T10:15:56Z</time>
      </trkpt>
      <trkpt lat="44.03654" lon="7.37706">
        <ele>1775.2099609375</ele>
        <time>2010-09-05T10:16:08Z</time>
      </trkpt>
      <trkpt lat="44.03654" lon="7.37705">
        <ele>1775.6899414062</ele>
        <time>2010-09-05T10:16:11Z</time>
      </trkpt>
      <trkpt lat="44.03648" lon="7.37703">
        <ele>1776.1700439453</ele>
        <time>2010-09-05T10:16:19Z</time>
      </trkpt>
      <trkpt lat="44.03645" lon="7.37701">
        <ele>1776.1700439453</ele>
        <time>2010-09-05T10:16:22Z</time>
      </trkpt>
      <trkpt lat="44.03642" lon="7.37699">
        <ele>1776.6500244141</ele>
        <time>2010-09-05T10:16:24Z</time>
      </trkpt>
      <trkpt lat="44.03636" lon="7.37694">
        <ele>1778.0999755859</ele>
        <time>2010-09-05T10:16:28Z</time>
      </trkpt>
      <trkpt lat="44.0363" lon="7.3769">
        <ele>1777.1300048828</ele>
        <time>2010-09-05T10:16:32Z</time>
      </trkpt>
      <trkpt lat="44.03618" lon="7.37668">
        <ele>1775.2099609375</ele>
        <time>2010-09-05T10:16:41Z</time>
      </trkpt>
      <trkpt lat="44.03604" lon="7.37643">
        <ele>1775.2099609375</ele>
        <time>2010-09-05T10:16:51Z</time>
      </trkpt>
      <trkpt lat="44.0358" lon="7.3762">
        <ele>1775.6899414062</ele>
        <time>2010-09-05T10:17:01Z</time>
      </trkpt>
      <trkpt lat="44.0354" lon="7.37591">
        <ele>1774.7299804688</ele>
        <time>2010-09-05T10:17:11Z</time>
      </trkpt>
      <trkpt lat="44.0349" lon="7.37568">
        <ele>1772.3299560547</ele>
        <time>2010-09-05T10:17:23Z</time>
      </trkpt>
      <trkpt lat="44.03482" lon="7.37562">
        <ele>1770.8900146484</ele>
        <time>2010-09-05T10:17:25Z</time>
      </trkpt>
      <trkpt lat="44.0346" lon="7.37537">
        <ele>1767.5200195312</ele>
        <time>2010-09-05T10:17:32Z</time>
      </trkpt>
      <trkpt lat="44.03458" lon="7.37535">
        <ele>1768</ele>
        <time>2010-09-05T10:17:33Z</time>
      </trkpt>
      <trkpt lat="44.03449" lon="7.37501">
        <ele>1764.1600341797</ele>
        <time>2010-09-05T10:17:42Z</time>
      </trkpt>
      <trkpt lat="44.03449" lon="7.37497">
        <ele>1764.6400146484</ele>
        <time>2010-09-05T10:17:43Z</time>
      </trkpt>
      <trkpt lat="44.03452" lon="7.37476">
        <ele>1761.2700195312</ele>
        <time>2010-09-05T10:17:48Z</time>
      </trkpt>
      <trkpt lat="44.03455" lon="7.37461">
        <ele>1757.9100341797</ele>
        <time>2010-09-05T10:17:52Z</time>
      </trkpt>
      <trkpt lat="44.03459" lon="7.37455">
        <ele>1756.9499511719</ele>
        <time>2010-09-05T10:17:54Z</time>
      </trkpt>
      <trkpt lat="44.0346" lon="7.37435">
        <ele>1754.5400390625</ele>
        <time>2010-09-05T10:18:00Z</time>
      </trkpt>
      <trkpt lat="44.0345" lon="7.37404">
        <ele>1751.6600341797</ele>
        <time>2010-09-05T10:18:08Z</time>
      </trkpt>
      <trkpt lat="44.03449" lon="7.374">
        <ele>1751.6600341797</ele>
        <time>2010-09-05T10:18:09Z</time>
      </trkpt>
      <trkpt lat="44.03432" lon="7.37354">
        <ele>1750.6999511719</ele>
        <time>2010-09-05T10:18:21Z</time>
      </trkpt>
      <trkpt lat="44.03415" lon="7.37318">
        <ele>1749.7399902344</ele>
        <time>2010-09-05T10:18:31Z</time>
      </trkpt>
      <trkpt lat="44.03411" lon="7.37279">
        <ele>1747.8100585938</ele>
        <time>2010-09-05T10:18:41Z</time>
      </trkpt>
      <trkpt lat="44.03411" lon="7.37271">
        <ele>1747.3299560547</ele>
        <time>2010-09-05T10:18:43Z</time>
      </trkpt>
      <trkpt lat="44.0341" lon="7.37221">
        <ele>1743.4899902344</ele>
        <time>2010-09-05T10:18:55Z</time>
      </trkpt>
      <trkpt lat="44.03415" lon="7.37201">
        <ele>1742.5300292969</ele>
        <time>2010-09-05T10:19:00Z</time>
      </trkpt>
      <trkpt lat="44.03418" lon="7.37186">
        <ele>1742.5300292969</ele>
        <time>2010-09-05T10:19:04Z</time>
      </trkpt>
      <trkpt lat="44.03421" lon="7.37171">
        <ele>1739.6400146484</ele>
        <time>2010-09-05T10:19:09Z</time>
      </trkpt>
      <trkpt lat="44.03403" lon="7.37138">
        <ele>1739.1600341797</ele>
        <time>2010-09-05T10:19:19Z</time>
      </trkpt>
      <trkpt lat="44.03398" lon="7.37134">
        <ele>1737.7199707031</ele>
        <time>2010-09-05T10:19:21Z</time>
      </trkpt>
      <trkpt lat="44.03395" lon="7.37132">
        <ele>1736.7600097656</ele>
        <time>2010-09-05T10:19:23Z</time>
      </trkpt>
      <trkpt lat="44.0339" lon="7.37121">
        <ele>1735.3199462891</ele>
        <time>2010-09-05T10:19:27Z</time>
      </trkpt>
      <trkpt lat="44.03377" lon="7.3708">
        <ele>1732.4300537109</ele>
        <time>2010-09-05T10:19:37Z</time>
      </trkpt>
      <trkpt lat="44.03368" lon="7.3705">
        <ele>1732.9100341797</ele>
        <time>2010-09-05T10:19:44Z</time>
      </trkpt>
      <trkpt lat="44.0337" lon="7.37033">
        <ele>1733.3900146484</ele>
        <time>2010-09-05T10:19:48Z</time>
      </trkpt>
      <trkpt lat="44.03371" lon="7.3702">
        <ele>1732.9100341797</ele>
        <time>2010-09-05T10:19:51Z</time>
      </trkpt>
      <trkpt lat="44.03376" lon="7.36998">
        <ele>1731.9499511719</ele>
        <time>2010-09-05T10:19:56Z</time>
      </trkpt>
      <trkpt lat="44.0338" lon="7.36982">
        <ele>1730.0300292969</ele>
        <time>2010-09-05T10:20:01Z</time>
      </trkpt>
      <trkpt lat="44.03379" lon="7.36969">
        <ele>1726.6700439453</ele>
        <time>2010-09-05T10:20:05Z</time>
      </trkpt>
      <trkpt lat="44.03379" lon="7.36966">
        <ele>1726.6700439453</ele>
        <time>2010-09-05T10:20:06Z</time>
      </trkpt>
      <trkpt lat="44.03374" lon="7.36947">
        <ele>1722.3399658203</ele>
        <time>2010-09-05T10:20:11Z</time>
      </trkpt>
      <trkpt lat="44.03376" lon="7.36931">
        <ele>1719.9399414062</ele>
        <time>2010-09-05T10:20:15Z</time>
      </trkpt>
      <trkpt lat="44.03375" lon="7.36908">
        <ele>1715.1300048828</ele>
        <time>2010-09-05T10:20:19Z</time>
      </trkpt>
      <trkpt lat="44.03374" lon="7.36903">
        <ele>1715.6099853516</ele>
        <time>2010-09-05T10:20:20Z</time>
      </trkpt>
      <trkpt lat="44.03374" lon="7.36891">
        <ele>1714.1700439453</ele>
        <time>2010-09-05T10:20:23Z</time>
      </trkpt>
      <trkpt lat="44.03379" lon="7.36881">
        <ele>1713.6899414062</ele>
        <time>2010-09-05T10:20:28Z</time>
      </trkpt>
      <trkpt lat="44.03373" lon="7.36846">
        <ele>1710.8000488281</ele>
        <time>2010-09-05T10:20:37Z</time>
      </trkpt>
      <trkpt lat="44.03375" lon="7.36826">
        <ele>1709.8399658203</ele>
        <time>2010-09-05T10:20:41Z</time>
      </trkpt>
      <trkpt lat="44.03378" lon="7.36811">
        <ele>1707.9200439453</ele>
        <time>2010-09-05T10:20:45Z</time>
      </trkpt>
      <trkpt lat="44.03379" lon="7.36805">
        <ele>1706.9599609375</ele>
        <time>2010-09-05T10:20:47Z</time>
      </trkpt>
      <trkpt lat="44.03362" lon="7.36774">
        <ele>1702.1500244141</ele>
        <time>2010-09-05T10:20:56Z</time>
      </trkpt>
      <trkpt lat="44.0336" lon="7.3677">
        <ele>1701.6700439453</ele>
        <time>2010-09-05T10:20:57Z</time>
      </trkpt>
      <trkpt lat="44.03351" lon="7.36751">
        <ele>1698.7900390625</ele>
        <time>2010-09-05T10:21:03Z</time>
      </trkpt>
      <trkpt lat="44.03345" lon="7.36736">
        <ele>1697.3399658203</ele>
        <time>2010-09-05T10:21:07Z</time>
      </trkpt>
      <trkpt lat="44.03336" lon="7.36698">
        <ele>1695.4200439453</ele>
        <time>2010-09-05T10:21:17Z</time>
      </trkpt>
      <trkpt lat="44.03329" lon="7.36647">
        <ele>1693.9799804688</ele>
        <time>2010-09-05T10:21:28Z</time>
      </trkpt>
      <trkpt lat="44.03329" lon="7.36643">
        <ele>1693.5</ele>
        <time>2010-09-05T10:21:29Z</time>
      </trkpt>
      <trkpt lat="44.03349" lon="7.36629">
        <ele>1690.1400146484</ele>
        <time>2010-09-05T10:21:36Z</time>
      </trkpt>
      <trkpt lat="44.03356" lon="7.36621">
        <ele>1688.2099609375</ele>
        <time>2010-09-05T10:21:39Z</time>
      </trkpt>
      <trkpt lat="44.03357" lon="7.36619">
        <ele>1687.25</ele>
        <time>2010-09-05T10:21:40Z</time>
      </trkpt>
      <trkpt lat="44.0337" lon="7.36604">
        <ele>1685.8100585938</ele>
        <time>2010-09-05T10:21:45Z</time>
      </trkpt>
      <trkpt lat="44.03381" lon="7.36586">
        <ele>1681.9599609375</ele>
        <time>2010-09-05T10:21:51Z</time>
      </trkpt>
      <trkpt lat="44.03382" lon="7.36574">
        <ele>1681.9599609375</ele>
        <time>2010-09-05T10:21:55Z</time>
      </trkpt>
      <trkpt lat="44.03382" lon="7.36562">
        <ele>1680.0400390625</ele>
        <time>2010-09-05T10:21:59Z</time>
      </trkpt>
      <trkpt lat="44.03379" lon="7.3654">
        <ele>1676.6800537109</ele>
        <time>2010-09-05T10:22:06Z</time>
      </trkpt>
      <trkpt lat="44.03378" lon="7.36537">
        <ele>1676.1999511719</ele>
        <time>2010-09-05T10:22:07Z</time>
      </trkpt>
      <trkpt lat="44.03376" lon="7.36535">
        <ele>1675.7199707031</ele>
        <time>2010-09-05T10:22:08Z</time>
      </trkpt>
      <trkpt lat="44.03366" lon="7.36523">
        <ele>1671.3900146484</ele>
        <time>2010-09-05T10:22:13Z</time>
      </trkpt>
      <trkpt lat="44.0336" lon="7.36517">
        <ele>1669.4699707031</ele>
        <time>2010-09-05T10:22:16Z</time>
      </trkpt>
      <trkpt lat="44.03355" lon="7.36507">
        <ele>1665.6199951172</ele>
        <time>2010-09-05T10:22:20Z</time>
      </trkpt>
      <trkpt lat="44.03352" lon="7.3649">
        <ele>1662.7399902344</ele>
        <time>2010-09-05T10:22:24Z</time>
      </trkpt>
      <trkpt lat="44.03349" lon="7.36475">
        <ele>1660.8100585938</ele>
        <time>2010-09-05T10:22:27Z</time>
      </trkpt>
      <trkpt lat="44.03346" lon="7.36465">
        <ele>1659.3699951172</ele>
        <time>2010-09-05T10:22:29Z</time>
      </trkpt>
      <trkpt lat="44.03342" lon="7.36454">
        <ele>1657.9300537109</ele>
        <time>2010-09-05T10:22:31Z</time>
      </trkpt>
      <trkpt lat="44.0334" lon="7.36445">
        <ele>1656.4899902344</ele>
        <time>2010-09-05T10:22:33Z</time>
      </trkpt>
      <trkpt lat="44.03341" lon="7.36424">
        <ele>1652.6400146484</ele>
        <time>2010-09-05T10:22:39Z</time>
      </trkpt>
      <trkpt lat="44.03341" lon="7.36418">
        <ele>1652.1600341797</ele>
        <time>2010-09-05T10:22:41Z</time>
      </trkpt>
      <trkpt lat="44.03334" lon="7.364">
        <ele>1648.8000488281</ele>
        <time>2010-09-05T10:22:48Z</time>
      </trkpt>
      <trkpt lat="44.03323" lon="7.36389">
        <ele>1645.9100341797</ele>
        <time>2010-09-05T10:22:54Z</time>
      </trkpt>
      <trkpt lat="44.03313" lon="7.36377">
        <ele>1641.1099853516</ele>
        <time>2010-09-05T10:22:59Z</time>
      </trkpt>
      <trkpt lat="44.03312" lon="7.36373">
        <ele>1641.1099853516</ele>
        <time>2010-09-05T10:23:00Z</time>
      </trkpt>
      <trkpt lat="44.03309" lon="7.3637">
        <ele>1641.5899658203</ele>
        <time>2010-09-05T10:23:01Z</time>
      </trkpt>
      <trkpt lat="44.03302" lon="7.36358">
        <ele>1639.1899414062</ele>
        <time>2010-09-05T10:23:04Z</time>
      </trkpt>
      <trkpt lat="44.03293" lon="7.3632">
        <ele>1635.8199462891</ele>
        <time>2010-09-05T10:23:13Z</time>
      </trkpt>
      <trkpt lat="44.03283" lon="7.36303">
        <ele>1632.4599609375</ele>
        <time>2010-09-05T10:23:18Z</time>
      </trkpt>
      <trkpt lat="44.03278" lon="7.36292">
        <ele>1630.0500488281</ele>
        <time>2010-09-05T10:23:21Z</time>
      </trkpt>
      <trkpt lat="44.03273" lon="7.36276">
        <ele>1625.25</ele>
        <time>2010-09-05T10:23:26Z</time>
      </trkpt>
      <trkpt lat="44.03273" lon="7.36273">
        <ele>1624.2800292969</ele>
        <time>2010-09-05T10:23:27Z</time>
      </trkpt>
      <trkpt lat="44.03273" lon="7.36268">
        <ele>1622.8399658203</ele>
        <time>2010-09-05T10:23:29Z</time>
      </trkpt>
      <trkpt lat="44.0327" lon="7.36257">
        <ele>1619.9599609375</ele>
        <time>2010-09-05T10:23:33Z</time>
      </trkpt>
      <trkpt lat="44.03267" lon="7.3625">
        <ele>1618.5200195312</ele>
        <time>2010-09-05T10:23:35Z</time>
      </trkpt>
      <trkpt lat="44.03265" lon="7.36241">
        <ele>1617.0699462891</ele>
        <time>2010-09-05T10:23:37Z</time>
      </trkpt>
      <trkpt lat="44.03264" lon="7.36231">
        <ele>1616.1099853516</ele>
        <time>2010-09-05T10:23:39Z</time>
      </trkpt>
      <trkpt lat="44.03255" lon="7.36207">
        <ele>1612.75</ele>
        <time>2010-09-05T10:23:45Z</time>
      </trkpt>
      <trkpt lat="44.03251" lon="7.36194">
        <ele>1611.7900390625</ele>
        <time>2010-09-05T10:23:48Z</time>
      </trkpt>
      <trkpt lat="44.03244" lon="7.36182">
        <ele>1610.3499755859</ele>
        <time>2010-09-05T10:23:51Z</time>
      </trkpt>
      <trkpt lat="44.03235" lon="7.36169">
        <ele>1607.9399414062</ele>
        <time>2010-09-05T10:23:55Z</time>
      </trkpt>
      <trkpt lat="44.0323" lon="7.36156">
        <ele>1605.5400390625</ele>
        <time>2010-09-05T10:23:59Z</time>
      </trkpt>
      <trkpt lat="44.03227" lon="7.36147">
        <ele>1603.1400146484</ele>
        <time>2010-09-05T10:24:02Z</time>
      </trkpt>
      <trkpt lat="44.03227" lon="7.3614">
        <ele>1602.1700439453</ele>
        <time>2010-09-05T10:24:04Z</time>
      </trkpt>
      <trkpt lat="44.03225" lon="7.36135">
        <ele>1600.7299804688</ele>
        <time>2010-09-05T10:24:06Z</time>
      </trkpt>
      <trkpt lat="44.03223" lon="7.36131">
        <ele>1598.3299560547</ele>
        <time>2010-09-05T10:24:08Z</time>
      </trkpt>
      <trkpt lat="44.03217" lon="7.36123">
        <ele>1596.4100341797</ele>
        <time>2010-09-05T10:24:11Z</time>
      </trkpt>
      <trkpt lat="44.03212" lon="7.36115">
        <ele>1594</ele>
        <time>2010-09-05T10:24:14Z</time>
      </trkpt>
      <trkpt lat="44.03209" lon="7.36096">
        <ele>1590.1600341797</ele>
        <time>2010-09-05T10:24:20Z</time>
      </trkpt>
      <trkpt lat="44.03208" lon="7.36081">
        <ele>1586.3100585938</ele>
        <time>2010-09-05T10:24:25Z</time>
      </trkpt>
      <trkpt lat="44.03209" lon="7.36079">
        <ele>1586.7900390625</ele>
        <time>2010-09-05T10:24:26Z</time>
      </trkpt>
      <trkpt lat="44.03209" lon="7.36077">
        <ele>1585.3499755859</ele>
        <time>2010-09-05T10:24:27Z</time>
      </trkpt>
      <trkpt lat="44.03204" lon="7.36067">
        <ele>1581.9899902344</ele>
        <time>2010-09-05T10:24:33Z</time>
      </trkpt>
      <trkpt lat="44.03201" lon="7.36055">
        <ele>1580.5400390625</ele>
        <time>2010-09-05T10:24:36Z</time>
      </trkpt>
      <trkpt lat="44.03202" lon="7.36048">
        <ele>1579.0999755859</ele>
        <time>2010-09-05T10:24:38Z</time>
      </trkpt>
      <trkpt lat="44.03207" lon="7.36042">
        <ele>1578.6199951172</ele>
        <time>2010-09-05T10:24:41Z</time>
      </trkpt>
      <trkpt lat="44.03205" lon="7.36039">
        <ele>1575.7399902344</ele>
        <time>2010-09-05T10:24:44Z</time>
      </trkpt>
      <trkpt lat="44.03203" lon="7.36027">
        <ele>1573.8199462891</ele>
        <time>2010-09-05T10:24:48Z</time>
      </trkpt>
      <trkpt lat="44.03202" lon="7.36022">
        <ele>1572.8499755859</ele>
        <time>2010-09-05T10:24:50Z</time>
      </trkpt>
      <trkpt lat="44.03196" lon="7.36009">
        <ele>1569.4899902344</ele>
        <time>2010-09-05T10:24:54Z</time>
      </trkpt>
      <trkpt lat="44.03192" lon="7.36004">
        <ele>1567.0899658203</ele>
        <time>2010-09-05T10:24:57Z</time>
      </trkpt>
      <trkpt lat="44.03189" lon="7.35992">
        <ele>1564.6800537109</ele>
        <time>2010-09-05T10:25:02Z</time>
      </trkpt>
      <trkpt lat="44.0319" lon="7.35989">
        <ele>1563.7199707031</ele>
        <time>2010-09-05T10:25:03Z</time>
      </trkpt>
      <trkpt lat="44.03183" lon="7.35965">
        <ele>1559.8800048828</ele>
        <time>2010-09-05T10:25:11Z</time>
      </trkpt>
      <trkpt lat="44.03181" lon="7.3596">
        <ele>1557.9499511719</ele>
        <time>2010-09-05T10:25:13Z</time>
      </trkpt>
      <trkpt lat="44.03174" lon="7.3594">
        <ele>1554.1099853516</ele>
        <time>2010-09-05T10:25:19Z</time>
      </trkpt>
      <trkpt lat="44.03168" lon="7.35927">
        <ele>1551.2199707031</ele>
        <time>2010-09-05T10:25:23Z</time>
      </trkpt>
      <trkpt lat="44.03157" lon="7.35904">
        <ele>1546.4200439453</ele>
        <time>2010-09-05T10:25:30Z</time>
      </trkpt>
      <trkpt lat="44.03149" lon="7.35891">
        <ele>1543.0500488281</ele>
        <time>2010-09-05T10:25:34Z</time>
      </trkpt>
      <trkpt lat="44.03146" lon="7.35887">
        <ele>1543.5300292969</ele>
        <time>2010-09-05T10:25:35Z</time>
      </trkpt>
      <trkpt lat="44.03139" lon="7.35877">
        <ele>1543.0500488281</ele>
        <time>2010-09-05T10:25:38Z</time>
      </trkpt>
      <trkpt lat="44.0313" lon="7.35859">
        <ele>1537.7700195312</ele>
        <time>2010-09-05T10:25:44Z</time>
      </trkpt>
      <trkpt lat="44.03127" lon="7.35845">
        <ele>1535.3599853516</ele>
        <time>2010-09-05T10:25:48Z</time>
      </trkpt>
      <trkpt lat="44.03124" lon="7.35838">
        <ele>1533.4399414062</ele>
        <time>2010-09-05T10:25:50Z</time>
      </trkpt>
      <trkpt lat="44.03117" lon="7.35827">
        <ele>1531.0400390625</ele>
        <time>2010-09-05T10:25:54Z</time>
      </trkpt>
      <trkpt lat="44.03112" lon="7.35818">
        <ele>1528.6300048828</ele>
        <time>2010-09-05T10:25:57Z</time>
      </trkpt>
      <trkpt lat="44.03109" lon="7.35813">
        <ele>1525.75</ele>
        <time>2010-09-05T10:25:59Z</time>
      </trkpt>
      <trkpt lat="44.03106" lon="7.35807">
        <ele>1524.7900390625</ele>
        <time>2010-09-05T10:26:01Z</time>
      </trkpt>
      <trkpt lat="44.03101" lon="7.3579">
        <ele>1521.4200439453</ele>
        <time>2010-09-05T10:26:06Z</time>
      </trkpt>
      <trkpt lat="44.03099" lon="7.35778">
        <ele>1519.9799804688</ele>
        <time>2010-09-05T10:26:09Z</time>
      </trkpt>
      <trkpt lat="44.03097" lon="7.35768">
        <ele>1518.5400390625</ele>
        <time>2010-09-05T10:26:11Z</time>
      </trkpt>
      <trkpt lat="44.03097" lon="7.35759">
        <ele>1517.5799560547</ele>
        <time>2010-09-05T10:26:13Z</time>
      </trkpt>
      <trkpt lat="44.03093" lon="7.35739">
        <ele>1514.6899414062</ele>
        <time>2010-09-05T10:26:19Z</time>
      </trkpt>
      <trkpt lat="44.0309" lon="7.35715">
        <ele>1511.3299560547</ele>
        <time>2010-09-05T10:26:26Z</time>
      </trkpt>
      <trkpt lat="44.03093" lon="7.35694">
        <ele>1508.4499511719</ele>
        <time>2010-09-05T10:26:33Z</time>
      </trkpt>
      <trkpt lat="44.03092" lon="7.3569">
        <ele>1507.4799804688</ele>
        <time>2010-09-05T10:26:34Z</time>
      </trkpt>
      <trkpt lat="44.03089" lon="7.35674">
        <ele>1504.1199951172</ele>
        <time>2010-09-05T10:26:40Z</time>
      </trkpt>
      <trkpt lat="44.03084" lon="7.35669">
        <ele>1501.7199707031</ele>
        <time>2010-09-05T10:26:43Z</time>
      </trkpt>
      <trkpt lat="44.03082" lon="7.35667">
        <ele>1501.2399902344</ele>
        <time>2010-09-05T10:26:44Z</time>
      </trkpt>
      <trkpt lat="44.03074" lon="7.35656">
        <ele>1498.3499755859</ele>
        <time>2010-09-05T10:26:49Z</time>
      </trkpt>
      <trkpt lat="44.0307" lon="7.35647">
        <ele>1495.9499511719</ele>
        <time>2010-09-05T10:26:53Z</time>
      </trkpt>
      <trkpt lat="44.03067" lon="7.35642">
        <ele>1494.0300292969</ele>
        <time>2010-09-05T10:26:55Z</time>
      </trkpt>
      <trkpt lat="44.03064" lon="7.35637">
        <ele>1492.5799560547</ele>
        <time>2010-09-05T10:26:57Z</time>
      </trkpt>
      <trkpt lat="44.0306" lon="7.35623">
        <ele>1490.1800537109</ele>
        <time>2010-09-05T10:27:01Z</time>
      </trkpt>
      <trkpt lat="44.03057" lon="7.35609">
        <ele>1487.3000488281</ele>
        <time>2010-09-05T10:27:05Z</time>
      </trkpt>
      <trkpt lat="44.03055" lon="7.35589">
        <ele>1482.9699707031</ele>
        <time>2010-09-05T10:27:11Z</time>
      </trkpt>
      <trkpt lat="44.03054" lon="7.35584">
        <ele>1481.5300292969</ele>
        <time>2010-09-05T10:27:13Z</time>
      </trkpt>
      <trkpt lat="44.03051" lon="7.35574">
        <ele>1479.6099853516</ele>
        <time>2010-09-05T10:27:16Z</time>
      </trkpt>
      <trkpt lat="44.03048" lon="7.35568">
        <ele>1478.6500244141</ele>
        <time>2010-09-05T10:27:18Z</time>
      </trkpt>
      <trkpt lat="44.03043" lon="7.35546">
        <ele>1474.8000488281</ele>
        <time>2010-09-05T10:27:25Z</time>
      </trkpt>
      <trkpt lat="44.03041" lon="7.35544">
        <ele>1474.3199462891</ele>
        <time>2010-09-05T10:27:26Z</time>
      </trkpt>
      <trkpt lat="44.03034" lon="7.35536">
        <ele>1472.4000244141</ele>
        <time>2010-09-05T10:27:29Z</time>
      </trkpt>
      <trkpt lat="44.03023" lon="7.35525">
        <ele>1469.0300292969</ele>
        <time>2010-09-05T10:27:33Z</time>
      </trkpt>
      <trkpt lat="44.0302" lon="7.35516">
        <ele>1468.0699462891</ele>
        <time>2010-09-05T10:27:35Z</time>
      </trkpt>
      <trkpt lat="44.0302" lon="7.35511">
        <ele>1466.6300048828</ele>
        <time>2010-09-05T10:27:36Z</time>
      </trkpt>
      <trkpt lat="44.03028" lon="7.35488">
        <ele>1464.7099609375</ele>
        <time>2010-09-05T10:27:42Z</time>
      </trkpt>
      <trkpt lat="44.03026" lon="7.35479">
        <ele>1461.3399658203</ele>
        <time>2010-09-05T10:27:45Z</time>
      </trkpt>
      <trkpt lat="44.03025" lon="7.35476">
        <ele>1461.3399658203</ele>
        <time>2010-09-05T10:27:46Z</time>
      </trkpt>
      <trkpt lat="44.03022" lon="7.35463">
        <ele>1458.4599609375</ele>
        <time>2010-09-05T10:27:50Z</time>
      </trkpt>
      <trkpt lat="44.03019" lon="7.3545">
        <ele>1455.5699462891</ele>
        <time>2010-09-05T10:27:55Z</time>
      </trkpt>
      <trkpt lat="44.03017" lon="7.35449">
        <ele>1454.1300048828</ele>
        <time>2010-09-05T10:27:56Z</time>
      </trkpt>
      <trkpt lat="44.03011" lon="7.35448">
        <ele>1452.6899414062</ele>
        <time>2010-09-05T10:27:59Z</time>
      </trkpt>
      <trkpt lat="44.03001" lon="7.35447">
        <ele>1450.2900390625</ele>
        <time>2010-09-05T10:28:04Z</time>
      </trkpt>
      <trkpt lat="44.02999" lon="7.35447">
        <ele>1448.8399658203</ele>
        <time>2010-09-05T10:28:05Z</time>
      </trkpt>
      <trkpt lat="44.0299" lon="7.35447">
        <ele>1445</ele>
        <time>2010-09-05T10:28:11Z</time>
      </trkpt>
      <trkpt lat="44.02982" lon="7.35446">
        <ele>1441.1500244141</ele>
        <time>2010-09-05T10:28:16Z</time>
      </trkpt>
      <trkpt lat="44.02975" lon="7.35446">
        <ele>1438.2700195312</ele>
        <time>2010-09-05T10:28:20Z</time>
      </trkpt>
      <trkpt lat="44.02971" lon="7.35445">
        <ele>1436.3499755859</ele>
        <time>2010-09-05T10:28:23Z</time>
      </trkpt>
      <trkpt lat="44.02965" lon="7.35446">
        <ele>1432.5</ele>
        <time>2010-09-05T10:28:28Z</time>
      </trkpt>
      <trkpt lat="44.02961" lon="7.35445">
        <ele>1431.0600585938</ele>
        <time>2010-09-05T10:28:30Z</time>
      </trkpt>
      <trkpt lat="44.02959" lon="7.3544">
        <ele>1428.1800537109</ele>
        <time>2010-09-05T10:28:33Z</time>
      </trkpt>
      <trkpt lat="44.02958" lon="7.35434">
        <ele>1427.6999511719</ele>
        <time>2010-09-05T10:28:36Z</time>
      </trkpt>
      <trkpt lat="44.02956" lon="7.35425">
        <ele>1424.8100585938</ele>
        <time>2010-09-05T10:28:40Z</time>
      </trkpt>
      <trkpt lat="44.02953" lon="7.35421">
        <ele>1423.3699951172</ele>
        <time>2010-09-05T10:28:42Z</time>
      </trkpt>
      <trkpt lat="44.0295" lon="7.35413">
        <ele>1420.9699707031</ele>
        <time>2010-09-05T10:28:45Z</time>
      </trkpt>
      <trkpt lat="44.02946" lon="7.35405">
        <ele>1419.0400390625</ele>
        <time>2010-09-05T10:28:48Z</time>
      </trkpt>
      <trkpt lat="44.02939" lon="7.35392">
        <ele>1415.6800537109</ele>
        <time>2010-09-05T10:28:52Z</time>
      </trkpt>
      <trkpt lat="44.02933" lon="7.3538">
        <ele>1413.2800292969</ele>
        <time>2010-09-05T10:28:56Z</time>
      </trkpt>
      <trkpt lat="44.0293" lon="7.35372">
        <ele>1410.3900146484</ele>
        <time>2010-09-05T10:29:00Z</time>
      </trkpt>
      <trkpt lat="44.02929" lon="7.35366">
        <ele>1407.5100097656</ele>
        <time>2010-09-05T10:29:03Z</time>
      </trkpt>
      <trkpt lat="44.02921" lon="7.35359">
        <ele>1404.6199951172</ele>
        <time>2010-09-05T10:29:08Z</time>
      </trkpt>
      <trkpt lat="44.02901" lon="7.35355">
        <ele>1402.6999511719</ele>
        <time>2010-09-05T10:29:16Z</time>
      </trkpt>
      <trkpt lat="44.0289" lon="7.35356">
        <ele>1400.7800292969</ele>
        <time>2010-09-05T10:29:20Z</time>
      </trkpt>
      <trkpt lat="44.02882" lon="7.35353">
        <ele>1396.9300537109</ele>
        <time>2010-09-05T10:29:23Z</time>
      </trkpt>
      <trkpt lat="44.02879" lon="7.35352">
        <ele>1396.9300537109</ele>
        <time>2010-09-05T10:29:24Z</time>
      </trkpt>
      <trkpt lat="44.02867" lon="7.35339">
        <ele>1394.0500488281</ele>
        <time>2010-09-05T10:29:29Z</time>
      </trkpt>
      <trkpt lat="44.02862" lon="7.35311">
        <ele>1390.1999511719</ele>
        <time>2010-09-05T10:29:37Z</time>
      </trkpt>
      <trkpt lat="44.02856" lon="7.35301">
        <ele>1388.7600097656</ele>
        <time>2010-09-05T10:29:40Z</time>
      </trkpt>
      <trkpt lat="44.02847" lon="7.3529">
        <ele>1384.4399414062</ele>
        <time>2010-09-05T10:29:44Z</time>
      </trkpt>
      <trkpt lat="44.02836" lon="7.35278">
        <ele>1380.5899658203</ele>
        <time>2010-09-05T10:29:49Z</time>
      </trkpt>
      <trkpt lat="44.02834" lon="7.35276">
        <ele>1380.1099853516</ele>
        <time>2010-09-05T10:29:50Z</time>
      </trkpt>
      <trkpt lat="44.02831" lon="7.35271">
        <ele>1379.6300048828</ele>
        <time>2010-09-05T10:29:52Z</time>
      </trkpt>
      <trkpt lat="44.02828" lon="7.35264">
        <ele>1376.2600097656</ele>
        <time>2010-09-05T10:29:58Z</time>
      </trkpt>
      <trkpt lat="44.02824" lon="7.3526">
        <ele>1373.8599853516</ele>
        <time>2010-09-05T10:30:07Z</time>
      </trkpt>
      <trkpt lat="44.02816" lon="7.35264">
        <ele>1370.9799804688</ele>
        <time>2010-09-05T10:30:13Z</time>
      </trkpt>
      <trkpt lat="44.02814" lon="7.35261">
        <ele>1370.0200195312</ele>
        <time>2010-09-05T10:30:15Z</time>
      </trkpt>
      <trkpt lat="44.02821" lon="7.35237">
        <ele>1366.6500244141</ele>
        <time>2010-09-05T10:30:23Z</time>
      </trkpt>
      <trkpt lat="44.02824" lon="7.35226">
        <ele>1364.7299804688</ele>
        <time>2010-09-05T10:30:26Z</time>
      </trkpt>
      <trkpt lat="44.02827" lon="7.35213">
        <ele>1362.8100585938</ele>
        <time>2010-09-05T10:30:30Z</time>
      </trkpt>
      <trkpt lat="44.02832" lon="7.35204">
        <ele>1361.8399658203</ele>
        <time>2010-09-05T10:30:34Z</time>
      </trkpt>
      <trkpt lat="44.02835" lon="7.35187">
        <ele>1359.9200439453</ele>
        <time>2010-09-05T10:30:40Z</time>
      </trkpt>
      <trkpt lat="44.02839" lon="7.35178">
        <ele>1357.0400390625</ele>
        <time>2010-09-05T10:30:44Z</time>
      </trkpt>
      <trkpt lat="44.02841" lon="7.35169">
        <ele>1355.1199951172</ele>
        <time>2010-09-05T10:30:48Z</time>
      </trkpt>
      <trkpt lat="44.02843" lon="7.35163">
        <ele>1353.6700439453</ele>
        <time>2010-09-05T10:30:52Z</time>
      </trkpt>
      <trkpt lat="44.02846" lon="7.3516">
        <ele>1352.7099609375</ele>
        <time>2010-09-05T10:30:54Z</time>
      </trkpt>
      <trkpt lat="44.02849" lon="7.35153">
        <ele>1350.7900390625</ele>
        <time>2010-09-05T10:30:57Z</time>
      </trkpt>
      <trkpt lat="44.0285" lon="7.3515">
        <ele>1350.3100585938</ele>
        <time>2010-09-05T10:30:58Z</time>
      </trkpt>
      <trkpt lat="44.02852" lon="7.35145">
        <ele>1349.3499755859</ele>
        <time>2010-09-05T10:31:00Z</time>
      </trkpt>
      <trkpt lat="44.02854" lon="7.35143">
        <ele>1349.3499755859</ele>
        <time>2010-09-05T10:31:01Z</time>
      </trkpt>
      <trkpt lat="44.02859" lon="7.35134">
        <ele>1346.4599609375</ele>
        <time>2010-09-05T10:31:05Z</time>
      </trkpt>
      <trkpt lat="44.02868" lon="7.35129">
        <ele>1344.0600585938</ele>
        <time>2010-09-05T10:31:12Z</time>
      </trkpt>
      <trkpt lat="44.02866" lon="7.35126">
        <ele>1343.0999755859</ele>
        <time>2010-09-05T10:31:14Z</time>
      </trkpt>
      <trkpt lat="44.02861" lon="7.35116">
        <ele>1339.25</ele>
        <time>2010-09-05T10:31:18Z</time>
      </trkpt>
      <trkpt lat="44.02861" lon="7.35113">
        <ele>1340.2199707031</ele>
        <time>2010-09-05T10:31:19Z</time>
      </trkpt>
      <trkpt lat="44.02866" lon="7.35098">
        <ele>1337.3299560547</ele>
        <time>2010-09-05T10:31:24Z</time>
      </trkpt>
      <trkpt lat="44.02866" lon="7.35091">
        <ele>1335.4100341797</ele>
        <time>2010-09-05T10:31:28Z</time>
      </trkpt>
      <trkpt lat="44.0285" lon="7.35099">
        <ele>1332.5200195312</ele>
        <time>2010-09-05T10:31:36Z</time>
      </trkpt>
      <trkpt lat="44.02838" lon="7.35104">
        <ele>1329.6400146484</ele>
        <time>2010-09-05T10:31:41Z</time>
      </trkpt>
      <trkpt lat="44.02826" lon="7.3511">
        <ele>1327.2399902344</ele>
        <time>2010-09-05T10:31:46Z</time>
      </trkpt>
      <trkpt lat="44.02824" lon="7.35112">
        <ele>1326.2800292969</ele>
        <time>2010-09-05T10:31:47Z</time>
      </trkpt>
      <trkpt lat="44.02818" lon="7.35114">
        <ele>1324.8299560547</ele>
        <time>2010-09-05T10:31:50Z</time>
      </trkpt>
      <trkpt lat="44.02814" lon="7.35116">
        <ele>1322.9100341797</ele>
        <time>2010-09-05T10:31:52Z</time>
      </trkpt>
      <trkpt lat="44.02809" lon="7.35115">
        <ele>1320.5100097656</ele>
        <time>2010-09-05T10:31:56Z</time>
      </trkpt>
      <trkpt lat="44.02818" lon="7.35086">
        <ele>1316.1800537109</ele>
        <time>2010-09-05T10:32:05Z</time>
      </trkpt>
      <trkpt lat="44.02819" lon="7.35083">
        <ele>1315.6999511719</ele>
        <time>2010-09-05T10:32:06Z</time>
      </trkpt>
      <trkpt lat="44.0283" lon="7.35064">
        <ele>1314.2600097656</ele>
        <time>2010-09-05T10:32:12Z</time>
      </trkpt>
      <trkpt lat="44.0284" lon="7.35049">
        <ele>1311.8599853516</ele>
        <time>2010-09-05T10:32:18Z</time>
      </trkpt>
      <trkpt lat="44.02845" lon="7.35027">
        <ele>1306.5699462891</ele>
        <time>2010-09-05T10:32:26Z</time>
      </trkpt>
      <trkpt lat="44.02851" lon="7.35012">
        <ele>1304.6500244141</ele>
        <time>2010-09-05T10:32:31Z</time>
      </trkpt>
      <trkpt lat="44.02854" lon="7.34998">
        <ele>1301.7600097656</ele>
        <time>2010-09-05T10:32:36Z</time>
      </trkpt>
      <trkpt lat="44.02849" lon="7.34983">
        <ele>1296.9599609375</ele>
        <time>2010-09-05T10:32:42Z</time>
      </trkpt>
      <trkpt lat="44.02848" lon="7.3498">
        <ele>1296.9599609375</ele>
        <time>2010-09-05T10:32:43Z</time>
      </trkpt>
      <trkpt lat="44.02846" lon="7.34971">
        <ele>1295.0300292969</ele>
        <time>2010-09-05T10:32:46Z</time>
      </trkpt>
      <trkpt lat="44.02846" lon="7.34961">
        <ele>1294.0699462891</ele>
        <time>2010-09-05T10:32:50Z</time>
      </trkpt>
      <trkpt lat="44.02843" lon="7.34952">
        <ele>1289.75</ele>
        <time>2010-09-05T10:32:54Z</time>
      </trkpt>
      <trkpt lat="44.0284" lon="7.34946">
        <ele>1288.7800292969</ele>
        <time>2010-09-05T10:32:57Z</time>
      </trkpt>
      <trkpt lat="44.02837" lon="7.34937">
        <ele>1286.3800048828</ele>
        <time>2010-09-05T10:33:00Z</time>
      </trkpt>
      <trkpt lat="44.02834" lon="7.34931">
        <ele>1285.4200439453</ele>
        <time>2010-09-05T10:33:02Z</time>
      </trkpt>
      <trkpt lat="44.0283" lon="7.34924">
        <ele>1283.9799804688</ele>
        <time>2010-09-05T10:33:04Z</time>
      </trkpt>
      <trkpt lat="44.02823" lon="7.34904">
        <ele>1283.0200195312</ele>
        <time>2010-09-05T10:33:10Z</time>
      </trkpt>
      <trkpt lat="44.02823" lon="7.34879">
        <ele>1280.1300048828</ele>
        <time>2010-09-05T10:33:17Z</time>
      </trkpt>
      <trkpt lat="44.02824" lon="7.34865">
        <ele>1277.25</ele>
        <time>2010-09-05T10:33:21Z</time>
      </trkpt>
      <trkpt lat="44.02821" lon="7.34853">
        <ele>1275.3299560547</ele>
        <time>2010-09-05T10:33:25Z</time>
      </trkpt>
      <trkpt lat="44.02819" lon="7.34843">
        <ele>1273.8800048828</ele>
        <time>2010-09-05T10:33:28Z</time>
      </trkpt>
      <trkpt lat="44.02821" lon="7.34828">
        <ele>1271</ele>
        <time>2010-09-05T10:33:32Z</time>
      </trkpt>
      <trkpt lat="44.02822" lon="7.34822">
        <ele>1269.5600585938</ele>
        <time>2010-09-05T10:33:34Z</time>
      </trkpt>
      <trkpt lat="44.02822" lon="7.34819">
        <ele>1269.0799560547</ele>
        <time>2010-09-05T10:33:35Z</time>
      </trkpt>
      <trkpt lat="44.02822" lon="7.34811">
        <ele>1266.1899414062</ele>
        <time>2010-09-05T10:33:38Z</time>
      </trkpt>
      <trkpt lat="44.02822" lon="7.34793">
        <ele>1262.8299560547</ele>
        <time>2010-09-05T10:33:44Z</time>
      </trkpt>
      <trkpt lat="44.02821" lon="7.3479">
        <ele>1262.8299560547</ele>
        <time>2010-09-05T10:33:45Z</time>
      </trkpt>
      <trkpt lat="44.02811" lon="7.34779">
        <ele>1258.9799804688</ele>
        <time>2010-09-05T10:33:52Z</time>
      </trkpt>
      <trkpt lat="44.02811" lon="7.34776">
        <ele>1257.5400390625</ele>
        <time>2010-09-05T10:33:54Z</time>
      </trkpt>
      <trkpt lat="44.0281" lon="7.3477">
        <ele>1256.0999755859</ele>
        <time>2010-09-05T10:33:57Z</time>
      </trkpt>
      <trkpt lat="44.02809" lon="7.34769">
        <ele>1256.0999755859</ele>
        <time>2010-09-05T10:33:58Z</time>
      </trkpt>
      <trkpt lat="44.02806" lon="7.34769">
        <ele>1255.1400146484</ele>
        <time>2010-09-05T10:34:00Z</time>
      </trkpt>
      <trkpt lat="44.02795" lon="7.34782">
        <ele>1251.2900390625</ele>
        <time>2010-09-05T10:34:07Z</time>
      </trkpt>
      <trkpt lat="44.02793" lon="7.34787">
        <ele>1251.2900390625</ele>
        <time>2010-09-05T10:34:10Z</time>
      </trkpt>
      <trkpt lat="44.0279" lon="7.34777">
        <ele>1248.8900146484</ele>
        <time>2010-09-05T10:34:14Z</time>
      </trkpt>
      <trkpt lat="44.02785" lon="7.34756">
        <ele>1246.0100097656</ele>
        <time>2010-09-05T10:34:20Z</time>
      </trkpt>
      <trkpt lat="44.02784" lon="7.34746">
        <ele>1244.0799560547</ele>
        <time>2010-09-05T10:34:23Z</time>
      </trkpt>
      <trkpt lat="44.02782" lon="7.34737">
        <ele>1243.1199951172</ele>
        <time>2010-09-05T10:34:26Z</time>
      </trkpt>
      <trkpt lat="44.02778" lon="7.34728">
        <ele>1241.6800537109</ele>
        <time>2010-09-05T10:34:30Z</time>
      </trkpt>
      <trkpt lat="44.02774" lon="7.34734">
        <ele>1238.8000488281</ele>
        <time>2010-09-05T10:34:35Z</time>
      </trkpt>
      <trkpt lat="44.02771" lon="7.34734">
        <ele>1237.3499755859</ele>
        <time>2010-09-05T10:34:37Z</time>
      </trkpt>
      <trkpt lat="44.02766" lon="7.34728">
        <ele>1235.4300537109</ele>
        <time>2010-09-05T10:34:40Z</time>
      </trkpt>
      <trkpt lat="44.02757" lon="7.34683">
        <ele>1232.0699462891</ele>
        <time>2010-09-05T10:34:52Z</time>
      </trkpt>
      <trkpt lat="44.02753" lon="7.34659">
        <ele>1228.6999511719</ele>
        <time>2010-09-05T10:34:59Z</time>
      </trkpt>
      <trkpt lat="44.02751" lon="7.34655">
        <ele>1228.6999511719</ele>
        <time>2010-09-05T10:35:00Z</time>
      </trkpt>
      <trkpt lat="44.02741" lon="7.3462">
        <ele>1226.3000488281</ele>
        <time>2010-09-05T10:35:09Z</time>
      </trkpt>
      <trkpt lat="44.02737" lon="7.34594">
        <ele>1223.4200439453</ele>
        <time>2010-09-05T10:35:17Z</time>
      </trkpt>
      <trkpt lat="44.02735" lon="7.34586">
        <ele>1222.4499511719</ele>
        <time>2010-09-05T10:35:20Z</time>
      </trkpt>
      <trkpt lat="44.02731" lon="7.34577">
        <ele>1218.1300048828</ele>
        <time>2010-09-05T10:35:27Z</time>
      </trkpt>
      <trkpt lat="44.02729" lon="7.34574">
        <ele>1217.1700439453</ele>
        <time>2010-09-05T10:35:29Z</time>
      </trkpt>
      <trkpt lat="44.02727" lon="7.34565">
        <ele>1214.7600097656</ele>
        <time>2010-09-05T10:35:33Z</time>
      </trkpt>
      <trkpt lat="44.02726" lon="7.34556">
        <ele>1212.8399658203</ele>
        <time>2010-09-05T10:35:36Z</time>
      </trkpt>
      <trkpt lat="44.02725" lon="7.34551">
        <ele>1212.3599853516</ele>
        <time>2010-09-05T10:35:38Z</time>
      </trkpt>
      <trkpt lat="44.02724" lon="7.34546">
        <ele>1211.4000244141</ele>
        <time>2010-09-05T10:35:40Z</time>
      </trkpt>
      <trkpt lat="44.02721" lon="7.34534">
        <ele>1207.0699462891</ele>
        <time>2010-09-05T10:35:44Z</time>
      </trkpt>
      <trkpt lat="44.02718" lon="7.34528">
        <ele>1206.5899658203</ele>
        <time>2010-09-05T10:35:46Z</time>
      </trkpt>
      <trkpt lat="44.02715" lon="7.34514">
        <ele>1202.75</ele>
        <time>2010-09-05T10:35:51Z</time>
      </trkpt>
      <trkpt lat="44.02716" lon="7.34508">
        <ele>1201.3000488281</ele>
        <time>2010-09-05T10:35:53Z</time>
      </trkpt>
      <trkpt lat="44.02718" lon="7.34494">
        <ele>1197.9399414062</ele>
        <time>2010-09-05T10:35:58Z</time>
      </trkpt>
      <trkpt lat="44.02719" lon="7.34481">
        <ele>1195.0600585938</ele>
        <time>2010-09-05T10:36:04Z</time>
      </trkpt>
      <trkpt lat="44.02724" lon="7.34467">
        <ele>1191.6899414062</ele>
        <time>2010-09-05T10:36:09Z</time>
      </trkpt>
      <trkpt lat="44.02726" lon="7.34464">
        <ele>1192.1700439453</ele>
        <time>2010-09-05T10:36:10Z</time>
      </trkpt>
      <trkpt lat="44.02737" lon="7.34453">
        <ele>1187.3699951172</ele>
        <time>2010-09-05T10:36:18Z</time>
      </trkpt>
      <trkpt lat="44.02738" lon="7.34451">
        <ele>1187.3699951172</ele>
        <time>2010-09-05T10:36:19Z</time>
      </trkpt>
      <trkpt lat="44.02737" lon="7.34439">
        <ele>1184</ele>
        <time>2010-09-05T10:36:26Z</time>
      </trkpt>
      <trkpt lat="44.02738" lon="7.34438">
        <ele>1184</ele>
        <time>2010-09-05T10:36:27Z</time>
      </trkpt>
      <trkpt lat="44.02745" lon="7.34436">
        <ele>1183.0400390625</ele>
        <time>2010-09-05T10:36:31Z</time>
      </trkpt>
      <trkpt lat="44.02744" lon="7.34428">
        <ele>1181.5999755859</ele>
        <time>2010-09-05T10:36:46Z</time>
      </trkpt>
      <trkpt lat="44.02747" lon="7.3443">
        <ele>1179.1899414062</ele>
        <time>2010-09-05T10:37:07Z</time>
      </trkpt>
      <trkpt lat="44.02749" lon="7.34421">
        <ele>1178.2299804688</ele>
        <time>2010-09-05T10:37:12Z</time>
      </trkpt>
      <trkpt lat="44.02746" lon="7.34412">
        <ele>1175.8299560547</ele>
        <time>2010-09-05T10:37:15Z</time>
      </trkpt>
      <trkpt lat="44.02738" lon="7.3439">
        <ele>1173.4300537109</ele>
        <time>2010-09-05T10:37:21Z</time>
      </trkpt>
      <trkpt lat="44.02738" lon="7.34372">
        <ele>1173.4300537109</ele>
        <time>2010-09-05T10:37:25Z</time>
      </trkpt>
      <trkpt lat="44.0274" lon="7.3435">
        <ele>1169.5799560547</ele>
        <time>2010-09-05T10:37:31Z</time>
      </trkpt>
      <trkpt lat="44.02732" lon="7.34322">
        <ele>1165.7399902344</ele>
        <time>2010-09-05T10:37:39Z</time>
      </trkpt>
      <trkpt lat="44.02731" lon="7.34318">
        <ele>1165.7399902344</ele>
        <time>2010-09-05T10:37:40Z</time>
      </trkpt>
      <trkpt lat="44.02729" lon="7.34303">
        <ele>1164.2900390625</ele>
        <time>2010-09-05T10:37:44Z</time>
      </trkpt>
      <trkpt lat="44.02731" lon="7.34291">
        <ele>1162.3699951172</ele>
        <time>2010-09-05T10:37:47Z</time>
      </trkpt>
      <trkpt lat="44.02728" lon="7.34272">
        <ele>1159.0100097656</ele>
        <time>2010-09-05T10:37:53Z</time>
      </trkpt>
      <trkpt lat="44.02722" lon="7.34251">
        <ele>1156.5999755859</ele>
        <time>2010-09-05T10:37:59Z</time>
      </trkpt>
      <trkpt lat="44.02721" lon="7.34247">
        <ele>1156.1199951172</ele>
        <time>2010-09-05T10:38:00Z</time>
      </trkpt>
      <trkpt lat="44.02716" lon="7.34219">
        <ele>1153.2399902344</ele>
        <time>2010-09-05T10:38:06Z</time>
      </trkpt>
      <trkpt lat="44.02713" lon="7.34209">
        <ele>1153.2399902344</ele>
        <time>2010-09-05T10:38:08Z</time>
      </trkpt>
      <trkpt lat="44.0271" lon="7.34188">
        <ele>1149.8699951172</ele>
        <time>2010-09-05T10:38:14Z</time>
      </trkpt>
      <trkpt lat="44.02702" lon="7.34169">
        <ele>1146.0300292969</ele>
        <time>2010-09-05T10:38:21Z</time>
      </trkpt>
      <trkpt lat="44.02697" lon="7.34155">
        <ele>1144.1099853516</ele>
        <time>2010-09-05T10:38:26Z</time>
      </trkpt>
      <trkpt lat="44.02696" lon="7.34147">
        <ele>1141.2199707031</ele>
        <time>2010-09-05T10:38:29Z</time>
      </trkpt>
      <trkpt lat="44.02695" lon="7.34138">
        <ele>1139.7800292969</ele>
        <time>2010-09-05T10:38:32Z</time>
      </trkpt>
      <trkpt lat="44.02683" lon="7.34111">
        <ele>1137.8599853516</ele>
        <time>2010-09-05T10:38:42Z</time>
      </trkpt>
      <trkpt lat="44.02675" lon="7.34088">
        <ele>1134.4899902344</ele>
        <time>2010-09-05T10:38:48Z</time>
      </trkpt>
      <trkpt lat="44.02665" lon="7.34059">
        <ele>1131.1300048828</ele>
        <time>2010-09-05T10:38:56Z</time>
      </trkpt>
      <trkpt lat="44.02663" lon="7.34051">
        <ele>1129.6899414062</ele>
        <time>2010-09-05T10:38:58Z</time>
      </trkpt>
      <trkpt lat="44.02663" lon="7.34044">
        <ele>1131.1300048828</ele>
        <time>2010-09-05T10:39:00Z</time>
      </trkpt>
      <trkpt lat="44.02655" lon="7.34011">
        <ele>1127.7600097656</ele>
        <time>2010-09-05T10:39:08Z</time>
      </trkpt>
      <trkpt lat="44.02653" lon="7.34008">
        <ele>1128.2399902344</ele>
        <time>2010-09-05T10:39:09Z</time>
      </trkpt>
      <trkpt lat="44.02657" lon="7.33981">
        <ele>1126.3199462891</ele>
        <time>2010-09-05T10:39:17Z</time>
      </trkpt>
      <trkpt lat="44.02659" lon="7.33963">
        <ele>1123.9200439453</ele>
        <time>2010-09-05T10:39:22Z</time>
      </trkpt>
      <trkpt lat="44.02655" lon="7.33947">
        <ele>1121.5200195312</ele>
        <time>2010-09-05T10:39:27Z</time>
      </trkpt>
      <trkpt lat="44.02654" lon="7.33941">
        <ele>1120.5500488281</ele>
        <time>2010-09-05T10:39:29Z</time>
      </trkpt>
      <trkpt lat="44.02654" lon="7.33933">
        <ele>1117.6700439453</ele>
        <time>2010-09-05T10:39:32Z</time>
      </trkpt>
      <trkpt lat="44.02653" lon="7.33916">
        <ele>1115.75</ele>
        <time>2010-09-05T10:39:38Z</time>
      </trkpt>
      <trkpt lat="44.02651" lon="7.3391">
        <ele>1113.8199462891</ele>
        <time>2010-09-05T10:39:40Z</time>
      </trkpt>
      <trkpt lat="44.02649" lon="7.33901">
        <ele>1112.3800048828</ele>
        <time>2010-09-05T10:39:45Z</time>
      </trkpt>
      <trkpt lat="44.0265" lon="7.33899">
        <ele>1110.4599609375</ele>
        <time>2010-09-05T10:39:48Z</time>
      </trkpt>
      <trkpt lat="44.02655" lon="7.33895">
        <ele>1107.0999755859</ele>
        <time>2010-09-05T10:39:53Z</time>
      </trkpt>
      <trkpt lat="44.02655" lon="7.33893">
        <ele>1108.0600585938</ele>
        <time>2010-09-05T10:39:54Z</time>
      </trkpt>
      <trkpt lat="44.02645" lon="7.33874">
        <ele>1103.25</ele>
        <time>2010-09-05T10:40:02Z</time>
      </trkpt>
      <trkpt lat="44.02631" lon="7.33856">
        <ele>1099.8900146484</ele>
        <time>2010-09-05T10:40:10Z</time>
      </trkpt>
      <trkpt lat="44.02619" lon="7.33824">
        <ele>1097</ele>
        <time>2010-09-05T10:40:20Z</time>
      </trkpt>
      <trkpt lat="44.02606" lon="7.33802">
        <ele>1093.1600341797</ele>
        <time>2010-09-05T10:40:29Z</time>
      </trkpt>
      <trkpt lat="44.02588" lon="7.33791">
        <ele>1089.7900390625</ele>
        <time>2010-09-05T10:40:38Z</time>
      </trkpt>
      <trkpt lat="44.02586" lon="7.3379">
        <ele>1089.7900390625</ele>
        <time>2010-09-05T10:40:39Z</time>
      </trkpt>
      <trkpt lat="44.02578" lon="7.33789">
        <ele>1087.8699951172</ele>
        <time>2010-09-05T10:40:42Z</time>
      </trkpt>
      <trkpt lat="44.02572" lon="7.33788">
        <ele>1086.4300537109</ele>
        <time>2010-09-05T10:40:44Z</time>
      </trkpt>
      <trkpt lat="44.02558" lon="7.3379">
        <ele>1082.0999755859</ele>
        <time>2010-09-05T10:40:50Z</time>
      </trkpt>
      <trkpt lat="44.02553" lon="7.3379">
        <ele>1080.6600341797</ele>
        <time>2010-09-05T10:40:53Z</time>
      </trkpt>
      <trkpt lat="44.02554" lon="7.33795">
        <ele>1079.2199707031</ele>
        <time>2010-09-05T10:40:57Z</time>
      </trkpt>
      <trkpt lat="44.0256" lon="7.338">
        <ele>1077.2900390625</ele>
        <time>2010-09-05T10:41:00Z</time>
      </trkpt>
      <trkpt lat="44.02557" lon="7.33807">
        <ele>1073.9300537109</ele>
        <time>2010-09-05T10:41:05Z</time>
      </trkpt>
      <trkpt lat="44.02546" lon="7.33807">
        <ele>1072.4899902344</ele>
        <time>2010-09-05T10:41:09Z</time>
      </trkpt>
      <trkpt lat="44.02542" lon="7.33806">
        <ele>1071.0500488281</ele>
        <time>2010-09-05T10:41:11Z</time>
      </trkpt>
      <trkpt lat="44.02537" lon="7.33812">
        <ele>1067.6800537109</ele>
        <time>2010-09-05T10:41:19Z</time>
      </trkpt>
      <trkpt lat="44.02532" lon="7.33812">
        <ele>1066.7199707031</ele>
        <time>2010-09-05T10:41:21Z</time>
      </trkpt>
      <trkpt lat="44.02526" lon="7.33811">
        <ele>1066.7199707031</ele>
        <time>2010-09-05T10:41:23Z</time>
      </trkpt>
      <trkpt lat="44.02511" lon="7.33808">
        <ele>1062.8699951172</ele>
        <time>2010-09-05T10:41:28Z</time>
      </trkpt>
      <trkpt lat="44.02506" lon="7.33806">
        <ele>1062.8699951172</ele>
        <time>2010-09-05T10:41:30Z</time>
      </trkpt>
      <trkpt lat="44.02496" lon="7.338">
        <ele>1059.5100097656</ele>
        <time>2010-09-05T10:41:35Z</time>
      </trkpt>
      <trkpt lat="44.02488" lon="7.33799">
        <ele>1055.6700439453</ele>
        <time>2010-09-05T10:41:42Z</time>
      </trkpt>
      <trkpt lat="44.02485" lon="7.33799">
        <ele>1054.6999511719</ele>
        <time>2010-09-05T10:41:45Z</time>
      </trkpt>
      <trkpt lat="44.0248" lon="7.33803">
        <ele>1050.8599853516</ele>
        <time>2010-09-05T10:41:50Z</time>
      </trkpt>
      <trkpt lat="44.02479" lon="7.33802">
        <ele>1051.3399658203</ele>
        <time>2010-09-05T10:41:51Z</time>
      </trkpt>
      <trkpt lat="44.02476" lon="7.33802">
        <ele>1049.4200439453</ele>
        <time>2010-09-05T10:41:53Z</time>
      </trkpt>
      <trkpt lat="44.0247" lon="7.33802">
        <ele>1046.5300292969</ele>
        <time>2010-09-05T10:41:58Z</time>
      </trkpt>
      <trkpt lat="44.02465" lon="7.33804">
        <ele>1044.1300048828</ele>
        <time>2010-09-05T10:42:04Z</time>
      </trkpt>
      <trkpt lat="44.02459" lon="7.33801">
        <ele>1041.7299804688</ele>
        <time>2010-09-05T10:42:09Z</time>
      </trkpt>
      <trkpt lat="44.02455" lon="7.33797">
        <ele>1040.2800292969</ele>
        <time>2010-09-05T10:42:11Z</time>
      </trkpt>
      <trkpt lat="44.02446" lon="7.33788">
        <ele>1037.4000244141</ele>
        <time>2010-09-05T10:42:16Z</time>
      </trkpt>
      <trkpt lat="44.02441" lon="7.33783">
        <ele>1035.4799804688</ele>
        <time>2010-09-05T10:42:18Z</time>
      </trkpt>
      <trkpt lat="44.02428" lon="7.33764">
        <ele>1032.1099853516</ele>
        <time>2010-09-05T10:42:25Z</time>
      </trkpt>
      <trkpt lat="44.02427" lon="7.3376">
        <ele>1032.1099853516</ele>
        <time>2010-09-05T10:42:44Z</time>
      </trkpt>
      <trkpt lat="44.02424" lon="7.33756">
        <ele>1031.1500244141</ele>
        <time>2010-09-05T10:42:53Z</time>
      </trkpt>
      <trkpt lat="44.02418" lon="7.33747">
        <ele>1029.2299804688</ele>
        <time>2010-09-05T10:42:56Z</time>
      </trkpt>
      <trkpt lat="44.02402" lon="7.33724">
        <ele>1025.8599853516</ele>
        <time>2010-09-05T10:43:02Z</time>
      </trkpt>
      <trkpt lat="44.024" lon="7.3372">
        <ele>1025.8599853516</ele>
        <time>2010-09-05T10:43:03Z</time>
      </trkpt>
      <trkpt lat="44.02394" lon="7.33701">
        <ele>1022.9799804688</ele>
        <time>2010-09-05T10:43:07Z</time>
      </trkpt>
      <trkpt lat="44.02392" lon="7.33691">
        <ele>1022.0200195312</ele>
        <time>2010-09-05T10:43:09Z</time>
      </trkpt>
      <trkpt lat="44.02381" lon="7.33696">
        <ele>1019.1300048828</ele>
        <time>2010-09-05T10:43:15Z</time>
      </trkpt>
      <trkpt lat="44.02382" lon="7.33707">
        <ele>1018.1699829102</ele>
        <time>2010-09-05T10:43:17Z</time>
      </trkpt>
      <trkpt lat="44.02399" lon="7.33751">
        <ele>1014.8099975586</ele>
        <time>2010-09-05T10:43:26Z</time>
      </trkpt>
      <trkpt lat="44.02412" lon="7.33787">
        <ele>1011.9299926758</ele>
        <time>2010-09-05T10:43:34Z</time>
      </trkpt>
      <trkpt lat="44.02425" lon="7.33833">
        <ele>1008.0800170898</ele>
        <time>2010-09-05T10:43:44Z</time>
      </trkpt>
      <trkpt lat="44.02437" lon="7.3385">
        <ele>1006.1599731445</ele>
        <time>2010-09-05T10:43:50Z</time>
      </trkpt>
      <trkpt lat="44.02444" lon="7.33854">
        <ele>1006.1599731445</ele>
        <time>2010-09-05T10:43:52Z</time>
      </trkpt>
      <trkpt lat="44.02437" lon="7.33863">
        <ele>1001.3499755859</ele>
        <time>2010-09-05T10:43:58Z</time>
      </trkpt>
      <trkpt lat="44.02408" lon="7.33841">
        <ele>997.98999023438</ele>
        <time>2010-09-05T10:44:06Z</time>
      </trkpt>
      <trkpt lat="44.02393" lon="7.33808">
        <ele>995.09997558594</ele>
        <time>2010-09-05T10:44:14Z</time>
      </trkpt>
      <trkpt lat="44.02375" lon="7.33778">
        <ele>992.21997070312</ele>
        <time>2010-09-05T10:44:22Z</time>
      </trkpt>
      <trkpt lat="44.0237" lon="7.33771">
        <ele>990.78002929688</ele>
        <time>2010-09-05T10:44:24Z</time>
      </trkpt>
      <trkpt lat="44.02349" lon="7.33737">
        <ele>988.84997558594</ele>
        <time>2010-09-05T10:44:33Z</time>
      </trkpt>
      <trkpt lat="44.0233" lon="7.33697">
        <ele>985.48999023438</ele>
        <time>2010-09-05T10:44:43Z</time>
      </trkpt>
      <trkpt lat="44.02331" lon="7.33679">
        <ele>984.53002929688</ele>
        <time>2010-09-05T10:44:47Z</time>
      </trkpt>
      <trkpt lat="44.0234" lon="7.33655">
        <ele>981.64001464844</ele>
        <time>2010-09-05T10:44:52Z</time>
      </trkpt>
      <trkpt lat="44.02346" lon="7.33633">
        <ele>980.20001220703</ele>
        <time>2010-09-05T10:44:57Z</time>
      </trkpt>
      <trkpt lat="44.02353" lon="7.33607">
        <ele>976.35998535156</ele>
        <time>2010-09-05T10:45:03Z</time>
      </trkpt>
      <trkpt lat="44.02355" lon="7.33603">
        <ele>976.35998535156</ele>
        <time>2010-09-05T10:45:04Z</time>
      </trkpt>
      <trkpt lat="44.02373" lon="7.33568">
        <ele>972.98999023438</ele>
        <time>2010-09-05T10:45:13Z</time>
      </trkpt>
      <trkpt lat="44.02389" lon="7.33537">
        <ele>970.59002685547</ele>
        <time>2010-09-05T10:45:21Z</time>
      </trkpt>
      <trkpt lat="44.02423" lon="7.33497">
        <ele>968.66998291016</ele>
        <time>2010-09-05T10:45:34Z</time>
      </trkpt>
      <trkpt lat="44.02459" lon="7.33451">
        <ele>967.70001220703</ele>
        <time>2010-09-05T10:45:49Z</time>
      </trkpt>
      <trkpt lat="44.02499" lon="7.33426">
        <ele>966.73999023438</ele>
        <time>2010-09-05T10:46:03Z</time>
      </trkpt>
      <trkpt lat="44.02543" lon="7.33398">
        <ele>965.78002929688</ele>
        <time>2010-09-05T10:46:18Z</time>
      </trkpt>
      <trkpt lat="44.02583" lon="7.33364">
        <ele>964.82000732422</ele>
        <time>2010-09-05T10:46:33Z</time>
      </trkpt>
      <trkpt lat="44.02617" lon="7.33371">
        <ele>964.82000732422</ele>
        <time>2010-09-05T10:46:44Z</time>
      </trkpt>
      <trkpt lat="44.02644" lon="7.33404">
        <ele>962.41998291016</ele>
        <time>2010-09-05T10:46:56Z</time>
      </trkpt>
      <trkpt lat="44.02655" lon="7.33412">
        <ele>960.48999023438</ele>
        <time>2010-09-05T10:47:00Z</time>
      </trkpt>
      <trkpt lat="44.02688" lon="7.33435">
        <ele>959.04998779297</ele>
        <time>2010-09-05T10:47:11Z</time>
      </trkpt>
      <trkpt lat="44.02716" lon="7.33459">
        <ele>956.65002441406</ele>
        <time>2010-09-05T10:47:21Z</time>
      </trkpt>
      <trkpt lat="44.0273" lon="7.33476">
        <ele>954.72998046875</ele>
        <time>2010-09-05T10:47:26Z</time>
      </trkpt>
      <trkpt lat="44.02735" lon="7.33487">
        <ele>954.25</ele>
        <time>2010-09-05T10:47:28Z</time>
      </trkpt>
      <trkpt lat="44.02752" lon="7.33542">
        <ele>951.35998535156</ele>
        <time>2010-09-05T10:47:40Z</time>
      </trkpt>
      <trkpt lat="44.02773" lon="7.33553">
        <ele>952.32000732422</ele>
        <time>2010-09-05T10:47:49Z</time>
      </trkpt>
      <trkpt lat="44.02769" lon="7.3351">
        <ele>952.79998779297</ele>
        <time>2010-09-05T10:48:01Z</time>
      </trkpt>
      <trkpt lat="44.02771" lon="7.33494">
        <ele>953.28002929688</ele>
        <time>2010-09-05T10:48:05Z</time>
      </trkpt>
      <trkpt lat="44.02769" lon="7.33458">
        <ele>953.77001953125</ele>
        <time>2010-09-05T10:48:16Z</time>
      </trkpt>
      <trkpt lat="44.02766" lon="7.33415">
        <ele>955.69000244141</ele>
        <time>2010-09-05T10:48:28Z</time>
      </trkpt>
      <trkpt lat="44.02772" lon="7.33379">
        <ele>956.65002441406</ele>
        <time>2010-09-05T10:48:39Z</time>
      </trkpt>
      <trkpt lat="44.02783" lon="7.33336">
        <ele>958.57000732422</ele>
        <time>2010-09-05T10:48:51Z</time>
      </trkpt>
      <trkpt lat="44.02779" lon="7.33295">
        <ele>959.53002929688</ele>
        <time>2010-09-05T10:49:04Z</time>
      </trkpt>
      <trkpt lat="44.02774" lon="7.33241">
        <ele>961.46002197266</ele>
        <time>2010-09-05T10:49:20Z</time>
      </trkpt>
      <trkpt lat="44.0278" lon="7.33193">
        <ele>963.38000488281</ele>
        <time>2010-09-05T10:49:34Z</time>
      </trkpt>
      <trkpt lat="44.0278" lon="7.33185">
        <ele>963.38000488281</ele>
        <time>2010-09-05T10:49:37Z</time>
      </trkpt>
      <trkpt lat="44.02779" lon="7.3317">
        <ele>964.34002685547</ele>
        <time>2010-09-05T10:49:41Z</time>
      </trkpt>
      <trkpt lat="44.02773" lon="7.3312">
        <ele>964.34002685547</ele>
        <time>2010-09-05T10:49:56Z</time>
      </trkpt>
      <trkpt lat="44.02758" lon="7.3307">
        <ele>961.94000244141</ele>
        <time>2010-09-05T10:50:10Z</time>
      </trkpt>
      <trkpt lat="44.02736" lon="7.33024">
        <ele>959.04998779297</ele>
        <time>2010-09-05T10:50:23Z</time>
      </trkpt>
      <trkpt lat="44.02705" lon="7.32986">
        <ele>956.16998291016</ele>
        <time>2010-09-05T10:50:36Z</time>
      </trkpt>
      <trkpt lat="44.02668" lon="7.32945">
        <ele>953.28002929688</ele>
        <time>2010-09-05T10:50:50Z</time>
      </trkpt>
      <trkpt lat="44.0264" lon="7.32911">
        <ele>950.88000488281</ele>
        <time>2010-09-05T10:51:02Z</time>
      </trkpt>
      <trkpt lat="44.02612" lon="7.32889">
        <ele>948.47998046875</ele>
        <time>2010-09-05T10:51:12Z</time>
      </trkpt>
      <trkpt lat="44.02577" lon="7.3287">
        <ele>945.10998535156</ele>
        <time>2010-09-05T10:51:23Z</time>
      </trkpt>
      <trkpt lat="44.02533" lon="7.32862">
        <ele>942.22998046875</ele>
        <time>2010-09-05T10:51:37Z</time>
      </trkpt>
      <trkpt lat="44.02492" lon="7.32864">
        <ele>939.34997558594</ele>
        <time>2010-09-05T10:51:49Z</time>
      </trkpt>
      <trkpt lat="44.02489" lon="7.32863">
        <ele>939.34997558594</ele>
        <time>2010-09-05T10:51:50Z</time>
      </trkpt>
      <trkpt lat="44.02451" lon="7.32862">
        <ele>936.46002197266</ele>
        <time>2010-09-05T10:52:01Z</time>
      </trkpt>
      <trkpt lat="44.02401" lon="7.32854">
        <ele>933.09997558594</ele>
        <time>2010-09-05T10:52:16Z</time>
      </trkpt>
      <trkpt lat="44.02376" lon="7.32855">
        <ele>931.65002441406</ele>
        <time>2010-09-05T10:52:23Z</time>
      </trkpt>
      <trkpt lat="44.02326" lon="7.32857">
        <ele>928.77001953125</ele>
        <time>2010-09-05T10:52:38Z</time>
      </trkpt>
      <trkpt lat="44.02308" lon="7.32853">
        <ele>931.16998291016</ele>
        <time>2010-09-05T10:52:48Z</time>
      </trkpt>
      <trkpt lat="44.02305" lon="7.32852">
        <ele>932.14001464844</ele>
        <time>2010-09-05T10:52:50Z</time>
      </trkpt>
      <trkpt lat="44.02301" lon="7.32852">
        <ele>933.09997558594</ele>
        <time>2010-09-05T10:52:54Z</time>
      </trkpt>
      <trkpt lat="44.02296" lon="7.32851">
        <ele>934.05999755859</ele>
        <time>2010-09-05T10:52:59Z</time>
      </trkpt>
      <trkpt lat="44.0228" lon="7.32847">
        <ele>937.41998291016</ele>
        <time>2010-09-05T10:53:14Z</time>
      </trkpt>
      <trkpt lat="44.02252" lon="7.32846">
        <ele>937.41998291016</ele>
        <time>2010-09-05T10:53:26Z</time>
      </trkpt>
      <trkpt lat="44.02216" lon="7.32853">
        <ele>935.97998046875</ele>
        <time>2010-09-05T10:53:38Z</time>
      </trkpt>
      <trkpt lat="44.02195" lon="7.3286">
        <ele>935.5</ele>
        <time>2010-09-05T10:53:46Z</time>
      </trkpt>
      <trkpt lat="44.02166" lon="7.32872">
        <ele>934.05999755859</ele>
        <time>2010-09-05T10:53:57Z</time>
      </trkpt>
      <trkpt lat="44.02139" lon="7.32879">
        <ele>933.58001708984</ele>
        <time>2010-09-05T10:54:07Z</time>
      </trkpt>
      <trkpt lat="44.02107" lon="7.32891">
        <ele>932.14001464844</ele>
        <time>2010-09-05T10:54:18Z</time>
      </trkpt>
      <trkpt lat="44.02091" lon="7.32893">
        <ele>931.65002441406</ele>
        <time>2010-09-05T10:54:24Z</time>
      </trkpt>
      <trkpt lat="44.02065" lon="7.3291">
        <ele>931.65002441406</ele>
        <time>2010-09-05T10:54:35Z</time>
      </trkpt>
      <trkpt lat="44.02059" lon="7.32914">
        <ele>931.16998291016</ele>
        <time>2010-09-05T10:54:37Z</time>
      </trkpt>
      <trkpt lat="44.02022" lon="7.32928">
        <ele>929.72998046875</ele>
        <time>2010-09-05T10:54:50Z</time>
      </trkpt>
      <trkpt lat="44.01993" lon="7.3293">
        <ele>929.25</ele>
        <time>2010-09-05T10:55:00Z</time>
      </trkpt>
      <trkpt lat="44.01952" lon="7.3293">
        <ele>928.28997802734</ele>
        <time>2010-09-05T10:55:13Z</time>
      </trkpt>
      <trkpt lat="44.01921" lon="7.32939">
        <ele>926.84997558594</ele>
        <time>2010-09-05T10:55:24Z</time>
      </trkpt>
      <trkpt lat="44.01883" lon="7.32918">
        <ele>926.84997558594</ele>
        <time>2010-09-05T10:55:35Z</time>
      </trkpt>
      <trkpt lat="44.01857" lon="7.32915">
        <ele>924.45001220703</ele>
        <time>2010-09-05T10:55:45Z</time>
      </trkpt>
      <trkpt lat="44.01824" lon="7.32913">
        <ele>923.96002197266</ele>
        <time>2010-09-05T10:55:56Z</time>
      </trkpt>
      <trkpt lat="44.01796" lon="7.32907">
        <ele>923</ele>
        <time>2010-09-05T10:56:06Z</time>
      </trkpt>
      <trkpt lat="44.01765" lon="7.32895">
        <ele>921.55999755859</ele>
        <time>2010-09-05T10:56:16Z</time>
      </trkpt>
      <trkpt lat="44.01734" lon="7.32866">
        <ele>920.11999511719</ele>
        <time>2010-09-05T10:56:28Z</time>
      </trkpt>
      <trkpt lat="44.01699" lon="7.32849">
        <ele>919.15997314453</ele>
        <time>2010-09-05T10:56:39Z</time>
      </trkpt>
      <trkpt lat="44.01666" lon="7.32835">
        <ele>919.64001464844</ele>
        <time>2010-09-05T10:56:50Z</time>
      </trkpt>
      <trkpt lat="44.01648" lon="7.32798">
        <ele>919.64001464844</ele>
        <time>2010-09-05T10:57:02Z</time>
      </trkpt>
      <trkpt lat="44.01633" lon="7.32733">
        <ele>919.15997314453</ele>
        <time>2010-09-05T10:57:17Z</time>
      </trkpt>
      <trkpt lat="44.01626" lon="7.32684">
        <ele>918.20001220703</ele>
        <time>2010-09-05T10:57:28Z</time>
      </trkpt>
      <trkpt lat="44.01612" lon="7.32641">
        <ele>915.30999755859</ele>
        <time>2010-09-05T10:57:40Z</time>
      </trkpt>
      <trkpt lat="44.0159" lon="7.32604">
        <ele>914.34997558594</ele>
        <time>2010-09-05T10:57:52Z</time>
      </trkpt>
      <trkpt lat="44.01586" lon="7.32595">
        <ele>913.86999511719</ele>
        <time>2010-09-05T10:57:54Z</time>
      </trkpt>
      <trkpt lat="44.01591" lon="7.32535">
        <ele>912.42999267578</ele>
        <time>2010-09-05T10:58:07Z</time>
      </trkpt>
      <trkpt lat="44.01592" lon="7.32487">
        <ele>911.95001220703</ele>
        <time>2010-09-05T10:58:18Z</time>
      </trkpt>
      <trkpt lat="44.01603" lon="7.32445">
        <ele>910.03002929688</ele>
        <time>2010-09-05T10:58:28Z</time>
      </trkpt>
      <trkpt lat="44.01599" lon="7.32428">
        <ele>905.21997070312</ele>
        <time>2010-09-05T10:58:34Z</time>
      </trkpt>
      <trkpt lat="44.01596" lon="7.32422">
        <ele>905.70001220703</ele>
        <time>2010-09-05T10:58:36Z</time>
      </trkpt>
      <trkpt lat="44.01583" lon="7.32408">
        <ele>900.40997314453</ele>
        <time>2010-09-05T10:58:43Z</time>
      </trkpt>
      <trkpt lat="44.0157" lon="7.32405">
        <ele>896.09002685547</ele>
        <time>2010-09-05T10:58:48Z</time>
      </trkpt>
      <trkpt lat="44.01565" lon="7.32383">
        <ele>894.15997314453</ele>
        <time>2010-09-05T10:58:54Z</time>
      </trkpt>
      <trkpt lat="44.01562" lon="7.32363">
        <ele>891.28002929688</ele>
        <time>2010-09-05T10:58:59Z</time>
      </trkpt>
      <trkpt lat="44.01562" lon="7.32359">
        <ele>891.28002929688</ele>
        <time>2010-09-05T10:59:00Z</time>
      </trkpt>
      <trkpt lat="44.01556" lon="7.32348">
        <ele>887.42999267578</ele>
        <time>2010-09-05T10:59:05Z</time>
      </trkpt>
      <trkpt lat="44.01554" lon="7.32348">
        <ele>886.95001220703</ele>
        <time>2010-09-05T10:59:06Z</time>
      </trkpt>
      <trkpt lat="44.01552" lon="7.32348">
        <ele>885.51000976562</ele>
        <time>2010-09-05T10:59:07Z</time>
      </trkpt>
      <trkpt lat="44.01547" lon="7.32304">
        <ele>881.66998291016</ele>
        <time>2010-09-05T10:59:18Z</time>
      </trkpt>
      <trkpt lat="44.01545" lon="7.32273">
        <ele>877.82000732422</ele>
        <time>2010-09-05T10:59:26Z</time>
      </trkpt>
      <trkpt lat="44.01541" lon="7.32249">
        <ele>874.46002197266</ele>
        <time>2010-09-05T10:59:32Z</time>
      </trkpt>
      <trkpt lat="44.01541" lon="7.32246">
        <ele>874.46002197266</ele>
        <time>2010-09-05T10:59:33Z</time>
      </trkpt>
      <trkpt lat="44.01542" lon="7.32198">
        <ele>872.53002929688</ele>
        <time>2010-09-05T10:59:46Z</time>
      </trkpt>
      <trkpt lat="44.01552" lon="7.32169">
        <ele>871.57000732422</ele>
        <time>2010-09-05T10:59:53Z</time>
      </trkpt>
      <trkpt lat="44.0156" lon="7.32159">
        <ele>868.69000244141</ele>
        <time>2010-09-05T10:59:57Z</time>
      </trkpt>
      <trkpt lat="44.0156" lon="7.32152">
        <ele>867.72998046875</ele>
        <time>2010-09-05T11:00:00Z</time>
      </trkpt>
      <trkpt lat="44.01575" lon="7.32121">
        <ele>869.16998291016</ele>
        <time>2010-09-05T11:00:08Z</time>
      </trkpt>
      <trkpt lat="44.01579" lon="7.32102">
        <ele>868.69000244141</ele>
        <time>2010-09-05T11:00:16Z</time>
      </trkpt>
      <trkpt lat="44.01579" lon="7.32074">
        <ele>866.28997802734</ele>
        <time>2010-09-05T11:00:23Z</time>
      </trkpt>
      <trkpt lat="44.0158" lon="7.32069">
        <ele>865.32000732422</ele>
        <time>2010-09-05T11:00:25Z</time>
      </trkpt>
      <trkpt lat="44.01585" lon="7.32064">
        <ele>862.91998291016</ele>
        <time>2010-09-05T11:00:30Z</time>
      </trkpt>
      <trkpt lat="44.01585" lon="7.3205">
        <ele>860.52001953125</ele>
        <time>2010-09-05T11:00:33Z</time>
      </trkpt>
      <trkpt lat="44.01576" lon="7.32035">
        <ele>859.08001708984</ele>
        <time>2010-09-05T11:00:37Z</time>
      </trkpt>
      <trkpt lat="44.01568" lon="7.3203">
        <ele>858.59002685547</ele>
        <time>2010-09-05T11:00:39Z</time>
      </trkpt>
      <trkpt lat="44.01553" lon="7.32022">
        <ele>857.15002441406</ele>
        <time>2010-09-05T11:00:43Z</time>
      </trkpt>
      <trkpt lat="44.01523" lon="7.32013">
        <ele>854.75</ele>
        <time>2010-09-05T11:00:50Z</time>
      </trkpt>
      <trkpt lat="44.01517" lon="7.32016">
        <ele>851.86999511719</ele>
        <time>2010-09-05T11:00:55Z</time>
      </trkpt>
      <trkpt lat="44.01514" lon="7.3202">
        <ele>851.86999511719</ele>
        <time>2010-09-05T11:00:57Z</time>
      </trkpt>
      <trkpt lat="44.01506" lon="7.32029">
        <ele>849.46002197266</ele>
        <time>2010-09-05T11:01:00Z</time>
      </trkpt>
      <trkpt lat="44.01486" lon="7.3206">
        <ele>849.46002197266</ele>
        <time>2010-09-05T11:01:06Z</time>
      </trkpt>
      <trkpt lat="44.01485" lon="7.32072">
        <ele>849.46002197266</ele>
        <time>2010-09-05T11:01:09Z</time>
      </trkpt>
      <trkpt lat="44.0149" lon="7.32088">
        <ele>848.97998046875</ele>
        <time>2010-09-05T11:01:16Z</time>
      </trkpt>
      <trkpt lat="44.01491" lon="7.32093">
        <ele>848.5</ele>
        <time>2010-09-05T11:01:22Z</time>
      </trkpt>
    </trkseg>
  </trk>
</gpx>